Date StartTime U_cm/s V_cm/s W_cm/s Ustd_cm/s Vstd_cm/s Wstd_cm/s Uvar_(cm/s)^2 Vvar_(cm/s)^2 Wvar_(cm/s)^2 KE_(m/s)^2 TurbulentKE_(m/s)^2 HorizWindSpeed_cm/s FrictionSpeec_cm/s DragCoef SpeedOfSound_m/s SonicTemperature_C Pressure_mb 
07/08/2013  00:00:00     -280.219     -116.950      -12.344      115.540      118.277       56.856    13349.502    13989.407     3232.641        6.146        1.529      303.645       56.755        0.035      346.406       24.627      859.775
07/08/2013  00:01:00     -346.535     -105.137       -2.719      109.191       87.985       54.280    11922.673     7741.349     2946.270        7.687        1.131      362.133       58.340        0.026      346.416       24.644      859.800
07/08/2013  00:02:00     -282.929      -31.731       -2.324      239.897      122.134       79.614    57550.399    14916.749     6338.411        7.992        3.940      284.703      113.653        0.159      346.481       24.757      859.790
07/08/2013  00:03:00     -284.246        9.952      -29.731      123.398       87.367       46.756    15226.996     7632.920     2186.111        5.341        1.252      284.420       50.447        0.031      346.476       24.748      859.802
07/08/2013  00:04:00     -275.467      -70.890       -4.866      152.103       97.412       62.893    23135.451     9489.042     3955.536        5.875        1.829      284.442       68.273        0.058      346.440       24.686      859.804
07/08/2013  00:05:00     -261.293      -37.142      -27.481      109.019       91.399       51.495    11885.243     8353.790     2651.739        4.665        1.145      263.919       50.386        0.036      346.414       24.640      859.824
07/08/2013  00:06:00     -252.187      -49.812      -13.930      106.253       96.045       47.095    11289.788     9224.586     2217.907        4.450        1.137      257.060       46.926        0.033      346.402       24.620      859.853
07/08/2013  00:07:00     -275.555     -101.752       -1.868       94.665       91.274       48.241     8961.463     8330.937     2327.171        5.295        0.981      293.741       44.199        0.023      346.409       24.632      859.834
07/08/2013  00:08:00     -315.710      -76.141      -13.916      132.508      133.619       60.121    17558.277    17853.959     3614.479        7.234        1.951      324.762       63.389        0.038      346.398       24.613      859.839
07/08/2013  00:09:00     -239.720      -43.960       -9.049       92.088       99.854       50.060     8480.276     9970.801     2505.966        4.021        1.048      243.717       41.429        0.029      346.400       24.616      859.861
07/08/2013  00:10:00     -344.388      -32.663      -14.000      177.770       85.913       60.686    31602.088     7381.080     3682.798        8.126        2.133      345.934       84.338        0.059      346.460       24.721      859.879
07/08/2013  00:11:00     -233.321      -60.861       -1.440      133.303       82.836       52.792    17769.674     6861.762     2787.018        4.278        1.371      241.128       62.095        0.066      346.439       24.685      859.885
07/08/2013  00:12:00     -253.221        9.221      -24.495       69.840       69.822       49.651     4877.594     4875.158     2465.195        3.851        0.611      253.389       40.765        0.026      346.441       24.686      859.879
07/08/2013  00:13:00     -228.206      -43.192       -2.291      146.486      116.718       56.655    21458.067    13623.118     3209.804        4.611        1.915      232.257       68.133        0.086      346.398       24.614      859.861
07/08/2013  00:14:00     -309.645      -88.242       -2.566      159.962      108.578       62.327    25587.786    11789.075     3884.634        7.246        2.063      321.973       78.247        0.059      346.357       24.543      859.877
07/08/2013  00:15:00     -286.812      -91.998      -13.451      148.084      136.686       60.826    21928.806    18682.932     3699.828        6.760        2.216      301.206       66.065        0.048      346.447       24.697      859.889
07/08/2013  00:16:00     -147.616      -44.606       -8.878       78.570       73.164       47.737     6173.200     5352.996     2278.847        1.883        0.690      154.208       35.822        0.054      346.453       24.709      859.869
07/08/2013  00:17:00     -253.864      -19.686      -10.749      176.933      107.782       55.886    31305.164    11616.893     3123.193        5.549        2.302      254.626       53.295        0.044      346.437       24.681      859.872
07/08/2013  00:18:00     -331.263      -39.033      -10.780      158.011       89.728       54.041    24967.542     8051.175     2920.435        7.365        1.797      333.555       59.111        0.031      346.429       24.666      859.886
07/08/2013  00:19:00     -232.749      -67.871        3.084      105.536      119.072       54.149    11137.844    14178.163     2932.124        4.351        1.412      242.443       54.889        0.051      346.433       24.673      859.919
07/08/2013  00:20:00     -184.948      -78.638        2.568      137.426       93.751       62.033    18885.937     8789.168     3848.074        3.595        1.576      200.972       73.411        0.133      346.421       24.655      859.910
07/08/2013  00:21:00     -255.174      -65.380       -6.796      104.929       68.670       44.766    11010.068     4715.536     2004.028        4.358        0.886      263.416       49.775        0.036      346.444       24.693      859.897
07/08/2013  00:22:00     -189.199      -73.536       -1.665      101.436       89.732       45.264    10289.278     8051.880     2048.814        3.079        1.019      202.987       42.576        0.044      346.360       24.550      859.896
07/08/2013  00:23:00     -359.504      -14.980      -24.479      121.977       88.117       56.144    14878.409     7764.570     3152.149        7.793        1.290      359.816       56.360        0.025      346.371       24.568      859.902
07/08/2013  00:24:00     -231.060      -38.320        1.724       84.166       85.543       47.853     7083.850     7317.537     2289.945        3.577        0.835      234.216       45.744        0.038      346.335       24.505      859.914
07/08/2013  00:25:00     -238.135      -43.268       -1.271      101.528      111.383       51.251    10308.008    12406.195     2626.700        4.196        1.267      242.034       43.281        0.032      346.416       24.642      859.931
07/08/2013  00:26:00     -160.782     -110.880       -9.814      134.850       86.172       41.649    18184.623     7425.593     1734.666        3.279        1.367      195.308       41.782        0.046      346.475       24.747      859.929
07/08/2013  00:27:00      -76.651      -85.306       12.024      113.172       85.624       47.017    12807.798     7331.499     2210.590        1.782        1.117      114.684       56.687        0.244      346.370       24.568      859.959
07/08/2013  00:28:00       15.014      -17.877       36.378       91.107       80.173       53.912     8300.421     6427.648     2906.526        0.975        0.882       23.346       55.069        5.564      346.350       24.535      859.959
07/08/2013  00:29:00     -133.316       -2.596      -20.636       67.009       72.950       36.997     4490.221     5321.690     1368.766        1.469        0.559      133.341       29.023        0.047      346.372       24.571      859.933
07/08/2013  00:30:00     -124.313      -89.912        1.506       93.059       98.562       53.410     8660.059     9714.517     2852.681        2.238        1.061      153.420       48.189        0.099      346.367       24.562      859.920
07/08/2013  00:31:00     -300.851       -9.836      -10.477      112.005       96.883       50.746    12545.192     9386.235     2575.114        5.761        1.225      301.011       41.026        0.019      346.332       24.500      859.910
07/08/2013  00:32:00     -234.100     -120.193      -20.906      127.357      122.150       57.685    16219.848    14920.566     3327.566        5.207        1.723      263.153       60.829        0.053      346.427       24.663      859.881
07/08/2013  00:33:00     -229.339      -31.492        3.573      175.411      128.124       70.748    30768.981    16415.724     5005.262        5.288        2.609      231.491       81.254        0.123      346.351       24.532      859.863
07/08/2013  00:34:00     -372.738     -133.547      -24.349      125.903      104.211       63.089    15851.540    10859.959     3980.283        9.402        1.535      395.940       60.280        0.023      346.531       24.842      859.901
07/08/2013  00:35:00     -213.933      -28.194       -7.109      103.383      106.453       45.791    10688.086    11332.347     2096.772        3.536        1.206      215.782       39.019        0.033      346.515       24.815      859.885
07/08/2013  00:36:00     -227.323      -95.984      -16.373       98.094       83.600       44.651     9622.421     6988.914     1993.735        3.988        0.930      246.756       42.046        0.029      346.513       24.812      859.883
07/08/2013  00:37:00      -91.088      -70.222       -5.076      102.997       58.510       43.178    10608.332     3423.377     1864.306        1.457        0.795      115.013       49.590        0.186      346.435       24.679      859.897
07/08/2013  00:38:00      -87.426      -45.864       -1.436       59.345       44.140       22.019     3521.828     1948.305      484.847        0.785        0.298       98.726       28.276        0.082      346.434       24.679      859.907
07/08/2013  00:39:00     -127.026      -88.245       15.847      106.896       91.659       54.236    11426.672     8401.431     2941.495        2.347        1.138      154.670       54.799        0.126      346.402       24.620      859.916
07/08/2013  00:40:00     -116.566      -40.452        4.226       81.667       60.054       36.502     6669.557     3606.433     1332.363        1.342        0.580      123.386       35.113        0.081      346.378       24.581      859.904
07/08/2013  00:41:00      -69.018      -40.170        1.196       31.044       27.677       17.894      963.734      766.020      320.193        0.421        0.102       79.857        8.441        0.011      346.439       24.688      859.901
07/08/2013  00:42:00      -56.319      -82.192        9.009       50.952       72.728       29.072     2596.123     5289.403      845.185        0.937        0.437       99.636       23.600        0.056      346.415       24.645      859.914
07/08/2013  00:43:00     -115.880      -65.028       -0.636       91.341       70.673       46.019     8343.244     4994.700     2117.709        1.655        0.773      132.879       46.103        0.120      346.419       24.652      859.906
07/08/2013  00:44:00      -85.837     -177.981        9.640      120.765       87.668       39.350    14584.258     7685.657     1548.423        3.147        1.191      197.599       45.880        0.054      346.476       24.748      859.921
07/08/2013  00:45:00      -68.527     -133.080        1.456       70.920       81.028       33.798     5029.699     6565.474     1142.324        1.757        0.637      149.687       26.353        0.031      346.432       24.672      859.941
07/08/2013  00:46:00       -1.977     -162.684      -22.346       83.973       55.039       40.465     7051.424     3029.346     1637.418        1.934        0.586      162.696       21.423        0.017      346.352       24.537      859.960
07/08/2013  00:47:00      -45.914       -1.831      -16.074       83.092       56.892       39.584     6904.267     3236.728     1566.855        0.704        0.585       45.951       34.051        0.549      346.326       24.495      860.006
07/08/2013  00:48:00       12.581      -43.975        9.001       47.374       27.692       32.631     2244.286      766.867     1064.809        0.312        0.204       45.740       35.151        0.591      346.287       24.428      860.037
07/08/2013  00:49:00       -8.512      -31.894        4.590       26.439       34.729       21.974      699.005     1206.069      482.858        0.175        0.119       33.011       18.893        0.328      346.329       24.497      860.030
07/08/2013  00:50:00      -76.462      -45.836        1.340       32.233       50.683       24.534     1038.939     2568.772      601.902        0.608        0.210       89.148       24.612        0.076      346.309       24.464      860.046
07/08/2013  00:51:00      102.072       76.063       38.898       61.421       53.668       39.849     3772.491     2880.266     1587.934        1.298        0.412      127.296       24.133        0.036      346.225       24.319      860.018
07/08/2013  00:52:00       65.520       89.948       59.506       48.447       47.266       46.976     2347.117     2234.072     2206.772        1.135        0.339      111.281       37.668        0.115      346.229       24.327      860.014
07/08/2013  00:53:00       79.186       98.808       62.628       42.032       29.267       30.846     1766.647      856.543      951.469        1.176        0.179      126.623       20.531        0.026      346.123       24.144      860.027
07/08/2013  00:54:00       73.558       67.314       65.449       55.937       46.078       33.626     3128.935     2123.225     1130.718        1.030        0.319       99.709       25.016        0.063      346.047       24.012      860.054
07/08/2013  00:55:00       90.838       52.948       58.088       47.398       40.350       38.868     2246.606     1628.144     1510.734        0.991        0.269      105.143       22.663        0.046      346.162       24.210      860.067
07/08/2013  00:56:00      101.999       69.571       64.740       64.984       50.620       59.043     4222.967     2562.346     3486.122        1.485        0.514      123.467       44.356        0.129      346.100       24.104      860.076
07/08/2013  00:57:00       24.575       51.915       77.318       43.246       59.985       42.925     1870.189     3598.246     1842.586        0.829        0.366       57.438       40.396        0.495      346.002       23.937      860.090
07/08/2013  00:58:00      126.457       95.028       47.241       36.326       24.016       38.635     1319.562      576.763     1492.654        1.532        0.169      158.182       27.872        0.031      346.162       24.211      860.078
07/08/2013  00:59:00       58.562       61.350       57.574       59.429       38.132       34.483     3531.775     1454.015     1189.051        0.834        0.309       84.814       35.046        0.171      345.984       23.905      860.071
07/08/2013  01:00:00       16.474       88.013      104.442       37.779       43.904       28.491     1427.269     1927.577      811.760        1.155        0.208       89.541       28.097        0.098      346.055       24.027      860.085
07/08/2013  01:01:00       -4.804       88.728      101.905       43.103       50.690       45.556     1857.888     2569.477     2075.329        1.239        0.325       88.858       37.508        0.178      346.034       23.990      860.090
07/08/2013  01:02:00       30.187       65.778      104.135       45.905       69.504       41.097     2107.225     4830.807     1688.980        1.235        0.431       72.374       39.998        0.305      345.976       23.891      860.091
07/08/2013  01:03:00       30.765      -10.703       48.803       46.771       56.004       53.253     2187.527     3136.402     2835.892        0.580        0.408       32.574       16.767        0.265      345.899       23.760      860.098
07/08/2013  01:04:00       96.061     -126.187       15.445       68.251       94.618       51.452     4658.142     8952.622     2647.266        2.082        0.813      158.591       68.431        0.186      345.875       23.715      860.092
07/08/2013  01:05:00       93.216      -77.942       -8.562       55.907       71.283       51.794     3125.647     5081.337     2682.615        1.286        0.544      121.508       35.691        0.086      345.924       23.802      860.077
07/08/2013  01:06:00      -31.352      -39.770       19.573       67.064       39.540       36.200     4497.630     1563.387     1310.434        0.516        0.369       50.642       31.128        0.378      346.124       24.147      860.094
07/08/2013  01:07:00      -87.737      -33.479       -6.110       61.960       54.262       19.760     3839.064     2944.337      390.475        0.801        0.359       93.907       26.460        0.079      346.355       24.545      860.114
07/08/2013  01:08:00       20.408       10.702       29.908       28.063       30.146       30.825      787.523      908.777      950.188        0.204        0.132       23.044        9.820        0.182      346.024       23.973      860.143
07/08/2013  01:09:00       35.520       43.237       85.855       73.700      110.035       84.500     5431.759    12107.604     7140.289        1.759        1.234       55.957       98.051        3.070      345.986       23.908      860.144
07/08/2013  01:10:00       87.112      -75.384       11.636       77.564       75.298       58.332     6016.122     5669.792     3402.640        1.424        0.754      115.201       58.510        0.258      346.078       24.067      860.162
07/08/2013  01:11:00       73.395      -90.862        3.408       39.738       64.090       38.457     1579.110     4107.475     1478.905        1.041        0.358      116.802       38.894        0.111      346.079       24.067      860.194
07/08/2013  01:12:00       11.334       -3.465       33.875       24.418       49.420       30.534      596.242     2442.291      932.306        0.263        0.199       11.852       28.683        5.857      345.939       23.829      860.193
07/08/2013  01:13:00       11.533       22.414       67.626       35.777       68.254       39.560     1279.990     4658.573     1565.006        0.635        0.375       25.207       47.200        3.506      345.908       23.775      860.178
07/08/2013  01:14:00       31.239      -10.488       45.051       39.188       43.774       38.340     1535.705     1916.134     1469.924        0.402        0.246       32.953       32.436        0.969      345.922       23.799      860.152
07/08/2013  01:15:00       21.130     -100.723      -22.569       50.324       39.653       25.747     2532.538     1572.378      662.899        0.793        0.238      102.915       20.394        0.039      346.069       24.051      860.144
07/08/2013  01:16:00       53.282     -144.710      -25.046       39.661       48.022       31.345     1572.972     2306.127      982.519        1.463        0.243      154.208       20.785        0.018      346.205       24.283      860.151
07/08/2013  01:17:00       76.549     -126.115      -19.796       43.826       27.377       21.861     1920.726      749.492      477.895        1.265        0.157      147.529       20.041        0.018      346.187       24.253      860.181
07/08/2013  01:18:00       64.222      -93.500       -5.461       47.155       47.269       37.802     2223.602     2234.342     1428.974        0.939        0.294      113.431       32.199        0.081      346.113       24.127      860.203
07/08/2013  01:19:00       88.627     -119.673      -24.159       34.765       42.555       25.536     1208.623     1810.942      652.076        1.322        0.184      148.917       20.013        0.018      346.105       24.113      860.223
07/08/2013  01:20:00       43.811      -17.715       13.260       39.706       60.968       41.867     1576.555     3717.080     1752.819        0.473        0.352       47.257       44.312        0.879      345.961       23.867      860.237
07/08/2013  01:21:00       19.308       79.513       79.133       35.120       29.995       25.678     1233.405      899.675      659.384        0.787        0.140       81.824       25.859        0.100      345.836       23.651      860.238
07/08/2013  01:22:00       62.435       35.399       41.631       47.966       37.125       26.717     2300.721     1378.288      713.785        0.564        0.220       71.772       32.179        0.201      345.831       23.644      860.236
07/08/2013  01:23:00       75.244       75.002       62.400       56.320       37.314       31.494     3171.986     1392.319      991.872        1.037        0.278      106.240       28.866        0.074      345.739       23.485      860.226
07/08/2013  01:24:00       87.274       85.426       81.516       47.329       54.953       41.505     2240.078     3019.794     1722.635        1.427        0.349      122.125       29.008        0.056      345.561       23.181      860.211
07/08/2013  01:25:00      118.196      106.411       63.282       51.938       50.360       55.924     2697.584     2536.156     3127.504        1.883        0.418      159.040       45.029        0.080      345.480       23.039      860.216
07/08/2013  01:26:00       76.715       26.547       18.360       81.954       65.747       49.460     6716.474     4322.615     2446.323        1.020        0.674       81.179       38.483        0.225      345.439       22.969      860.220
07/08/2013  01:27:00       87.129       20.438       10.672       65.778       53.631       38.043     4326.687     2876.324     1447.257        0.838        0.433       89.494       31.560        0.124      345.366       22.844      860.218
07/08/2013  01:28:00       95.935       35.522       31.064       53.578       44.333       33.988     2870.583     1965.435     1155.175        0.871        0.300      102.300       24.770        0.059      345.328       22.779      860.228
07/08/2013  01:29:00       68.872        9.804       37.609       55.486       35.413       33.184     3078.696     1254.111     1101.183        0.584        0.272       69.566       18.899        0.074      345.426       22.949      860.251
07/08/2013  01:30:00       37.623       12.763       25.670       42.004       22.596       18.232     1764.364      510.566      332.423        0.242        0.130       39.729       18.110        0.208      345.429       22.954      860.261
07/08/2013  01:31:00       30.856      -71.848       15.483       23.126       33.189       23.431      534.812     1101.492      549.033        0.427        0.109       78.193       10.963        0.020      345.539       23.141      860.264
07/08/2013  01:32:00        8.185       -5.232       29.210       15.939       26.083       16.455      254.045      680.321      270.782        0.108        0.060        9.714       13.300        1.875      345.516       23.102      860.258
07/08/2013  01:33:00        0.482        3.445       34.814       15.210       27.436       13.756      231.334      752.731      189.226        0.120        0.059        3.478       14.865       18.263      345.502       23.078      860.246
07/08/2013  01:34:00       -1.655      -58.602       11.792       16.498       17.425       13.588      272.186      303.615      184.642        0.217        0.038       58.625        6.878        0.014      345.592       23.231      860.221
07/08/2013  01:35:00      -54.631       -4.265       -1.352       16.421       12.035        8.995      269.650      144.835       80.916        0.175        0.025       54.798        9.201        0.028      345.235       22.622      860.215
07/08/2013  01:36:00      -69.012       -9.852       -4.742       17.534       16.639       10.852      307.451      276.849      117.770        0.279        0.035       69.712        9.416        0.018      345.110       22.407      860.233
07/08/2013  01:37:00      -53.923      -19.487        1.549       16.130       15.692       11.638      260.167      246.228      135.441        0.197        0.032       57.336        8.963        0.024      345.153       22.480      860.262
07/08/2013  01:38:00      -30.322      -18.753        4.108       17.911       14.902        9.367      320.793      222.067       87.736        0.096        0.032       35.653        5.650        0.025      345.363       22.839      860.287
07/08/2013  01:39:00      -17.593      -29.359        0.882       12.999       12.371        9.028      168.962      153.054       81.501        0.079        0.020       34.227        5.297        0.024      345.514       23.098      860.305
07/08/2013  01:40:00      -26.481       -8.706        3.118       14.645       13.094        7.700      214.475      171.442       59.284        0.062        0.022       27.875        5.792        0.043      345.514       23.097      860.322
07/08/2013  01:41:00      -55.420      -17.513       -0.638       11.311       18.992       11.798      127.948      360.713      139.192        0.200        0.031       58.121        8.894        0.023      345.452       22.993      860.338
07/08/2013  01:42:00      -52.091      -16.253        3.749       43.301       31.967       18.565     1874.987     1021.869      344.658        0.312        0.162       54.568       18.936        0.120      345.217       22.588      860.349
07/08/2013  01:43:00      -15.588      -16.843       10.157       38.157       16.957       14.190     1455.976      287.556      201.366        0.129        0.097       22.949       15.966        0.484      345.205       22.570      860.348
07/08/2013  01:44:00       39.543       16.323       11.388       16.019       13.530        7.595      256.605      183.067       57.690        0.123        0.025       42.779        5.038        0.014      345.177       22.522      860.340
07/08/2013  01:45:00       85.694       41.865        7.345       18.657        9.204       10.508      348.081       84.714      110.408        0.485        0.027       95.374       10.612        0.012      345.315       22.757      860.329
07/08/2013  01:46:00      122.573       48.338        8.321       19.991       23.838       19.810      399.648      568.269      392.436        0.939        0.068      131.759        5.146        0.002      345.288       22.713      860.315
07/08/2013  01:47:00      147.158       78.307       13.784       24.910       29.469       22.253      620.517      868.443      495.216        1.498        0.099      166.695       13.087        0.006      345.502       23.077      860.312
07/08/2013  01:48:00      128.538       75.449       35.556       35.412       31.799       33.865     1254.005     1011.180     1146.818        1.344        0.171      149.045       19.769        0.018      345.337       22.794      860.330
07/08/2013  01:49:00       53.392      107.675       92.714       44.052       28.131       26.067     1940.566      791.347      679.480        1.323        0.171      120.186       23.538        0.038      345.367       22.846      860.345
07/08/2013  01:50:00       86.369       97.702       78.124       50.032       39.934       36.611     2503.205     1594.748     1340.392        1.427        0.272      130.405       27.566        0.045      345.341       22.801      860.350
07/08/2013  01:51:00       62.109       64.458       56.457       52.749       42.084       45.379     2782.442     1771.050     2059.290        0.890        0.331       89.512       39.266        0.192      345.247       22.641      860.364
07/08/2013  01:52:00       51.731       45.164       36.604       41.195       34.127       30.241     1697.069     1164.678      914.526        0.492        0.189       68.672       26.394        0.148      345.166       22.502      860.378
07/08/2013  01:53:00       55.615       25.542       17.079       32.190       26.887       18.382     1036.204      722.902      337.901        0.307        0.105       61.200        7.535        0.015      345.028       22.267      860.395
07/08/2013  01:54:00      104.225       61.186       21.796       30.384       21.504       23.423      923.201      462.410      548.621        0.851        0.097      120.858       12.420        0.011      345.064       22.329      860.396
07/08/2013  01:55:00       73.587       17.509       15.050       43.701       34.295       27.479     1909.765     1176.155      755.084        0.489        0.192       75.641       13.658        0.033      344.922       22.083      860.400
07/08/2013  01:56:00       31.626        1.042       10.884       25.593       23.053       16.423      654.990      531.460      269.703        0.129        0.073       31.643       13.904        0.193      344.870       21.996      860.422
07/08/2013  01:57:00       21.872        1.102       14.789       19.220       14.796       14.145      369.421      218.916      200.091        0.074        0.039       21.900        9.578        0.191      344.860       21.978      860.455
07/08/2013  01:58:00        7.082        3.746       23.915       14.759       24.829       14.492      217.821      616.474      210.016        0.084        0.052        8.012       16.459        4.220      344.888       22.026      860.482
07/08/2013  01:59:00       23.753       -7.505       15.824       22.900       36.648       22.470      524.408     1343.077      504.915        0.162        0.119       24.911       18.434        0.548      344.894       22.038      860.483
07/08/2013  02:00:00       36.839        1.167       26.852       31.080       20.597       15.856      965.965      424.227      251.403        0.186        0.082       36.857       14.413        0.153      344.898       22.043      860.483
07/08/2013  02:01:00       35.295        3.484       28.927       40.970       28.914       21.375     1678.512      835.992      456.892        0.253        0.149       35.466       27.165        0.587      344.925       22.090      860.496
07/08/2013  02:02:00       26.405       30.784       52.477       33.792       37.439       21.214     1141.909     1401.692      450.050        0.370        0.150       40.557       27.105        0.447      344.982       22.187      860.507
07/08/2013  02:03:00       19.229       -7.817       28.442       31.121       29.591       22.944      968.547      875.621      526.414        0.180        0.119       20.757       20.801        1.004      345.251       22.646      860.535
07/08/2013  02:04:00       -3.587      -36.097       26.145       20.630       22.673       17.510      425.597      514.046      306.594        0.162        0.062       36.275       11.974        0.109      345.318       22.762      860.539
07/08/2013  02:05:00      -33.712      -38.463       -2.595       38.475       16.445       18.493     1480.305      270.449      341.974        0.236        0.105       51.146        8.143        0.025      344.980       22.183      860.548
07/08/2013  02:06:00      -44.647      -42.981       -2.668       21.248       18.009       13.707      451.466      324.327      187.877        0.241        0.048       61.973        8.137        0.017      345.000       22.217      860.565
07/08/2013  02:07:00       -8.272      -10.956        5.216       24.485       25.224       12.610      599.509      636.243      159.021        0.080        0.070       13.728       14.256        1.078      345.000       22.219      860.559
07/08/2013  02:08:00       20.106       27.969       34.170       27.386       16.701       17.455      750.009      278.921      304.680        0.184        0.067       34.446        5.950        0.030      344.912       22.066      860.558
07/08/2013  02:09:00       53.332       43.985        5.946       20.025       17.749       12.257      400.983      315.017      150.230        0.284        0.043       69.130        9.304        0.018      344.768       21.821      860.563
07/08/2013  02:10:00       45.053       39.299        6.312       25.406       23.467       16.297      645.444      550.680      265.584        0.254        0.073       59.784       12.064        0.041      344.594       21.525      860.581
07/08/2013  02:11:00       14.137       15.010       -0.720       20.789       19.305       14.879      432.168      372.669      221.393        0.073        0.051       20.619       14.259        0.478      344.528       21.410      860.588
07/08/2013  02:12:00       16.488       14.947        6.069       17.653       21.349       11.440      311.632      455.800      130.883        0.072        0.045       22.254       10.262        0.213      344.551       21.451      860.592
07/08/2013  02:13:00       26.460       15.489       -1.615       24.547       16.155       13.863      602.565      260.988      192.182        0.100        0.053       30.660        8.354        0.074      344.659       21.633      860.596
07/08/2013  02:14:00       29.153       55.939       -6.634        9.789       15.227        8.741       95.822      231.875       76.403        0.221        0.020       63.080        3.812        0.004      344.876       22.006      860.603
07/08/2013  02:15:00       17.333       47.639       -4.671       17.127       15.199        8.998      293.344      231.011       80.972        0.160        0.030       50.694        7.149        0.020      344.990       22.203      860.617
07/08/2013  02:16:00        0.272       24.238       -6.753       15.075       11.397        7.408      227.250      129.888       54.872        0.052        0.021       24.239        4.811        0.039      345.009       22.234      860.623
07/08/2013  02:17:00       -9.592       -1.763        2.360       11.962       16.523        5.855      143.080      273.007       34.276        0.028        0.023        9.752        8.799        0.814      344.994       22.206      860.624
07/08/2013  02:18:00      -42.921      -17.125       -5.224       13.912        8.943        7.835      193.539       79.978       61.388        0.125        0.017       46.211        3.539        0.006      344.769       21.823      860.629
07/08/2013  02:19:00       -9.760      -16.105       -6.550        8.675       10.957        9.261       75.258      120.052       85.766        0.034        0.014       18.832        3.106        0.027      344.799       21.875      860.636
07/08/2013  02:20:00       -3.425       14.187       12.890        5.834       16.343       19.443       34.034      267.100      378.020        0.053        0.034       14.594       16.032        1.207      344.841       21.948      860.629
07/08/2013  02:21:00       16.146       31.346       32.898       16.323       15.978        9.490      266.437      255.303       90.054        0.147        0.031       35.260        9.716        0.076      344.810       21.893      860.620
07/08/2013  02:22:00       12.950        7.280       14.290       14.448        8.822        9.767      208.753       77.832       95.388        0.040        0.019       14.856        9.725        0.429      344.848       21.959      860.616
07/08/2013  02:23:00       -6.039       16.255        4.311       40.056       10.506       10.600     1604.466      110.384      112.353        0.107        0.091       17.340       17.906        1.066      344.955       22.141      860.615
07/08/2013  02:24:00      -78.415       18.255      -11.794       28.115       18.516        9.643      790.454      342.846       92.983        0.392        0.061       80.512        5.447        0.005      344.595       21.525      860.623
07/08/2013  02:25:00      -88.503       34.230       -5.687       28.071       24.243       19.203      787.965      587.745      368.740        0.539        0.087       94.892       15.236        0.026      344.509       21.378      860.611
07/08/2013  02:26:00      -80.125       32.953      -10.247       30.627       20.462       15.948      937.986      418.705      254.341        0.461        0.081       86.637       15.080        0.030      344.639       21.601      860.609
07/08/2013  02:27:00      -70.251       35.972       -8.976       18.111       21.454       16.587      327.991      460.284      275.129        0.369        0.053       78.925       12.446        0.025      344.668       21.649      860.628
07/08/2013  02:28:00      -57.999       29.578      -12.230       19.747       20.974       13.843      389.956      439.901      191.641        0.270        0.051       65.105       15.403        0.056      344.748       21.786      860.649
07/08/2013  02:29:00      -13.011       49.973       -8.700       20.838       24.794        9.118      434.220      614.758       83.141        0.194        0.057       51.639        6.063        0.014      344.780       21.840      860.669
07/08/2013  02:30:00        9.116       70.425      -11.064       13.893       17.693        9.786      193.014      313.045       95.771        0.288        0.030       71.013        7.395        0.011      344.831       21.927      860.685
07/08/2013  02:31:00       15.234       58.038       -6.131       19.804       18.079       12.608      392.185      326.841      158.965        0.226        0.044       60.004       11.158        0.035      344.772       21.829      860.693
07/08/2013  02:32:00       15.214       41.859       -5.617       14.031       28.423       15.519      196.871      807.879      240.846        0.163        0.062       44.538       16.753        0.141      344.718       21.737      860.702
07/08/2013  02:33:00       13.013       22.091       -2.451       13.962       22.095        6.574      194.937      488.200       43.220        0.069        0.036       25.639        6.070        0.056      344.745       21.782      860.713
07/08/2013  02:34:00        4.532       11.684        7.880        7.621        8.528        7.235       58.078       72.728       52.351        0.020        0.009       12.532        5.250        0.175      344.646       21.612      860.725
07/08/2013  02:35:00        4.094        5.767        5.730        6.585        4.199        4.777       43.363       17.630       22.818        0.008        0.004        7.073        2.189        0.096      344.709       21.719      860.735
07/08/2013  02:36:00      -13.500        1.349        5.021       13.577        7.594        5.816      184.346       57.666       33.823        0.024        0.014       13.567        6.090        0.202      344.709       21.720      860.740
07/08/2013  02:37:00      -31.943      -20.220       -4.551       16.290       15.237        5.989      265.368      232.157       35.868        0.099        0.027       37.805        3.280        0.008      344.681       21.672      860.735
07/08/2013  02:38:00      -35.069      -39.422        0.741       20.863       13.302       12.798      435.253      176.944      163.797        0.178        0.039       52.763        8.285        0.025      344.594       21.524      860.737
07/08/2013  02:39:00      -46.561      -38.768      -10.721       15.199       18.460       11.647      231.007      340.753      135.646        0.225        0.035       60.588        9.189        0.023      344.680       21.668      860.741
07/08/2013  02:40:00      -39.073      -12.535       -6.002        9.025        8.447        7.143       81.447       71.356       51.027        0.096        0.010       41.034        5.173        0.016      344.756       21.802      860.743
07/08/2013  02:41:00       -1.517      -22.714       -8.708       17.512        9.698        8.267      306.687       94.061       68.350        0.053        0.023       22.765        4.283        0.035      344.746       21.783      860.748
07/08/2013  02:42:00       -0.324      -34.036       -1.419        8.854       10.612        6.905       78.400      112.609       47.679        0.070        0.012       34.037        6.743        0.039      344.892       22.034      860.762
07/08/2013  02:43:00      -53.656       -6.690       -6.425       15.756       13.406        9.779      248.238      179.712       95.622        0.174        0.026       54.071        7.527        0.019      344.661       21.639      860.762
07/08/2013  02:44:00      -79.872       -4.611       -1.746       29.135       22.468       17.045      848.873      504.801      290.526        0.402        0.082       80.005       17.472        0.048      344.305       21.030      860.761
07/08/2013  02:45:00     -109.158      -19.592       -0.546       20.517       26.578       15.028      420.938      706.412      225.826        0.683        0.068      110.902       11.108        0.010      344.265       20.960      860.761
07/08/2013  02:46:00      -83.781       20.675       -5.973       27.821       24.373       14.609      773.995      594.037      213.415        0.453        0.079       86.294       12.894        0.022      344.269       20.969      860.757
07/08/2013  02:47:00      -79.988       34.259       -7.035       28.258       14.754       12.400      798.505      217.668      153.763        0.440        0.058       87.016        6.249        0.005      344.329       21.070      860.753
07/08/2013  02:48:00      -53.471       24.170      -13.449       14.311       14.176       12.320      204.799      200.946      151.780        0.209        0.028       58.680        7.059        0.014      344.537       21.426      860.745
07/08/2013  02:49:00      -50.359        9.461       -1.077       17.970       11.718       11.288      322.921      137.309      127.417        0.161        0.029       51.240        7.555        0.022      344.626       21.579      860.740
07/08/2013  02:50:00      -61.764       -6.855       -7.298       11.511       12.597        9.219      132.496      158.673       84.994        0.215        0.019       62.143        6.386        0.011      344.512       21.384      860.742
07/08/2013  02:51:00      -72.045      -46.990       -9.420       22.501       14.527       13.854      506.307      211.030      191.931        0.420        0.045       86.015        5.377        0.004      344.378       21.154      860.742
07/08/2013  02:52:00      -57.016      -43.245       -3.914       12.821       13.361       11.743      164.374      178.515      137.908        0.281        0.024       71.561        8.723        0.015      344.350       21.106      860.741
07/08/2013  02:53:00      -54.245      -28.380        1.209       28.485       16.515       12.322      811.379      272.737      151.829        0.249        0.062       61.220       12.775        0.044      344.318       21.051      860.746
07/08/2013  02:54:00     -135.883      -13.317      -12.010       27.245       22.808       13.370      742.288      520.184      178.765        1.011        0.072      136.534        8.560        0.004      344.211       20.870      860.731
07/08/2013  02:55:00     -109.991       -8.090       -5.239       42.795       28.318       17.128     1831.454      801.901      293.383        0.756        0.146      110.288       20.351        0.034      344.092       20.667      860.729
07/08/2013  02:56:00     -159.726       30.510      -14.225       27.190       28.299       15.939      739.320      800.856      254.053        1.422        0.090      162.614        9.656        0.004      344.199       20.851      860.731
07/08/2013  02:57:00     -139.431       38.722      -17.313       24.924       20.587       17.350      621.221      423.831      301.016        1.129        0.067      144.707       10.492        0.005      344.122       20.718      860.731
07/08/2013  02:58:00      -87.019        5.181       -5.360       39.688       23.231       11.696     1575.177      539.697      136.803        0.494        0.113       87.173       11.173        0.016      344.145       20.755      860.739
07/08/2013  02:59:00      -55.395        3.364      -10.814       26.662       15.485       13.952      710.864      239.800      194.667        0.217        0.057       55.497       11.831        0.045      344.149       20.762      860.750
07/08/2013  03:00:00      -64.730      -10.118      -11.715       14.738       10.786        9.189      217.204      116.344       84.446        0.242        0.021       65.516        7.276        0.012      344.248       20.932      860.759
07/08/2013  03:01:00      -19.949      -14.606       -2.030       21.634       13.747       11.870      468.037      188.967      140.898        0.071        0.040       24.724        4.773        0.037      344.282       20.990      860.770
07/08/2013  03:02:00      -23.239      -14.419       -6.576       12.918       12.736       10.246      166.882      162.203      104.982        0.061        0.022       27.349        9.355        0.117      344.273       20.975      860.782
07/08/2013  03:03:00      -60.605      -40.044      -11.643       13.012       14.492       10.614      169.303      210.031      112.664        0.295        0.025       72.639        6.434        0.008      344.294       21.010      860.795
07/08/2013  03:04:00      -78.229      -41.056      -14.666       14.152       17.896       10.273      200.275      320.272      105.533        0.432        0.031       88.348        7.627        0.007      344.089       20.661      860.801
07/08/2013  03:05:00      -86.585      -30.365       -4.750       39.600       34.446       15.367     1568.191     1186.514      236.150        0.572        0.150       91.755       15.575        0.029      344.020       20.542      860.797
07/08/2013  03:06:00      -89.922      -13.100       -0.956       52.508       33.571       29.218     2757.088     1127.016      853.708        0.650        0.237       90.871       27.031        0.088      343.916       20.365      860.809
07/08/2013  03:07:00      -61.615      -16.643       -5.292       26.916       33.730       20.281      724.497     1137.705      411.326        0.319        0.114       63.823       15.770        0.061      343.931       20.390      860.821
07/08/2013  03:08:00      -68.338      -22.983      -10.525       27.122       21.444       14.116      735.601      459.860      199.249        0.335        0.070       72.099        4.690        0.004      344.012       20.528      860.824
07/08/2013  03:09:00      -57.535      -20.870       -5.319       18.601       29.630       16.022      345.992      877.966      256.709        0.263        0.074       61.204       15.818        0.067      344.080       20.644      860.828
07/08/2013  03:10:00      -43.970      -11.079       -7.115       14.627       10.988        9.504      213.939      120.729       90.318        0.127        0.021       45.345        6.073        0.018      344.131       20.732      860.832
07/08/2013  03:11:00      -55.874      -20.900       -4.923       15.270       12.485        8.714      233.179      155.879       75.937        0.202        0.023       59.655        8.360        0.020      344.146       20.758      860.829
07/08/2013  03:12:00      -70.919      -14.912       -8.727       19.929       17.623       13.361      397.147      310.581      178.510        0.311        0.044       72.470       10.807        0.022      344.029       20.558      860.834
07/08/2013  03:13:00     -110.846       17.453       -9.094       22.860       23.345       14.708      522.567      544.984      216.316        0.698        0.064      112.212        9.489        0.007      343.964       20.447      860.845
07/08/2013  03:14:00     -102.281        1.464       -8.827       40.074       24.721       18.942     1605.958      611.116      358.801        0.656        0.129      102.292       14.522        0.020      343.899       20.337      860.858
07/08/2013  03:15:00     -111.466        3.297       -7.092       42.739       29.466       25.163     1826.646      868.230      633.199        0.791        0.166      111.515       23.898        0.046      343.775       20.123      860.865
07/08/2013  03:16:00     -107.542       -5.581       -5.398       26.309       27.141       20.940      692.178      736.655      438.472        0.675        0.093      107.686       14.988        0.019      343.783       20.137      860.866
07/08/2013  03:17:00     -110.210      -20.670      -11.969       27.369       27.125       16.713      749.069      735.747      279.336        0.724        0.088      112.131       13.504        0.015      343.872       20.290      860.874
07/08/2013  03:18:00      -96.009      -22.198       -3.179       38.993       28.048       15.620     1520.431      786.678      243.972        0.614        0.128       98.542       18.189        0.034      343.836       20.227      860.867
07/08/2013  03:19:00      -94.853       -4.556       -1.086       33.026       26.534       20.114     1090.694      704.029      404.590        0.561        0.110       94.963       20.339        0.046      343.779       20.131      860.865
07/08/2013  03:20:00      -75.087       -5.518       -1.531       33.019       32.072       22.997     1090.240     1028.635      528.877        0.416        0.132       75.289       19.907        0.070      343.750       20.082      860.876
07/08/2013  03:21:00      -30.890       -8.661        2.060       32.242       24.710       17.482     1039.521      610.585      305.603        0.149        0.098       32.081       16.295        0.258      343.784       20.139      860.881
07/08/2013  03:22:00        1.700       -5.642       -6.799       11.997       12.196       10.308      143.925      148.749      106.245        0.024        0.020        5.893        8.139        1.908      343.830       20.218      860.872
07/08/2013  03:23:00      -14.574       17.762       -3.645        9.124       27.555        7.059       83.245      759.282       49.829        0.072        0.045       22.976        5.734        0.062      344.171       20.800      860.866
07/08/2013  03:24:00        8.262       21.747        5.796       19.840       16.701       10.372      393.623      278.922      107.582        0.068        0.039       23.263       11.294        0.236      344.192       20.836      860.879
07/08/2013  03:25:00        6.898       30.403       -2.914       19.319       14.914        8.903      373.232      222.434       79.256        0.083        0.034       31.176        6.987        0.050      344.090       20.661      860.872
07/08/2013  03:26:00      -25.715       51.279       -5.657       16.214       34.386        8.925      262.892     1182.372       79.654        0.242        0.076       57.366       11.100        0.037      344.106       20.689      860.863
07/08/2013  03:27:00      -49.773       -1.569      -10.130       11.342       17.609        8.782      128.644      310.087       77.126        0.155        0.026       49.798        8.824        0.031      343.988       20.490      860.876
07/08/2013  03:28:00      -88.838      -31.323      -13.963       24.108       11.369        7.973      581.190      129.252       63.577        0.492        0.039       94.199        3.528        0.001      343.976       20.467      860.885
07/08/2013  03:29:00     -122.535      -37.318      -14.829       19.592       17.342       12.570      383.846      300.744      157.998        0.873        0.042      128.092        3.936        0.001      343.773       20.122      860.906
07/08/2013  03:30:00     -110.575      -26.937       -5.609       25.568       22.935       17.060      653.701      526.016      291.059        0.723        0.074      113.809       15.349        0.018      343.745       20.074      860.928
07/08/2013  03:31:00     -105.999      -14.172      -13.516       20.317       19.353       16.037      412.785      374.555      257.191        0.633        0.052      106.942       10.397        0.009      343.740       20.065      860.933
07/08/2013  03:32:00      -83.658        2.745      -12.954       35.869       24.181       18.708     1286.585      584.733      349.973        0.470        0.111       83.703       20.227        0.058      343.670       19.945      860.917
07/08/2013  03:33:00      -80.010       20.780      -12.994       30.323       24.867       20.954      919.476      618.372      439.054        0.449        0.099       82.664       18.605        0.051      343.998       20.505      860.906
07/08/2013  03:34:00      -70.804       50.140      -15.442       16.032       26.907       15.141      257.034      723.998      229.255        0.449        0.061       86.760       13.354        0.024      344.240       20.917      860.907
07/08/2013  03:35:00      -75.779       46.374      -16.114       17.089       19.112       12.874      292.035      365.259      165.728        0.449        0.041       88.843       10.392        0.014      344.315       21.046      860.910
07/08/2013  03:36:00      -70.014       54.954      -13.415       15.754       27.298       11.644      248.178      745.154      135.586        0.462        0.056       89.005       10.863        0.015      344.440       21.259      860.910
07/08/2013  03:37:00      -43.141       55.857      -13.495       15.532       18.149       10.298      241.251      329.398      106.050        0.292        0.034       70.578        9.556        0.018      344.567       21.476      860.915
07/08/2013  03:38:00      -28.079       -8.646       -3.911       15.375       22.322       10.143      236.394      498.256      102.889        0.086        0.042       29.380       12.360        0.177      344.287       21.000      860.930
07/08/2013  03:39:00      -71.978      -28.394       -8.789       25.384       13.391       11.246      644.337      179.316      126.463        0.351        0.048       77.376       11.589        0.022      344.122       20.716      860.941
07/08/2013  03:40:00      -62.451      -39.286       -5.420       27.858       15.683       14.561      776.044      245.960      212.014        0.335        0.062       73.780       10.705        0.021      343.954       20.430      860.941
07/08/2013  03:41:00      -43.749      -40.430        0.410       33.829       21.412       17.194     1144.420      458.478      295.640        0.272        0.095       59.570       18.922        0.101      343.982       20.477      860.944
07/08/2013  03:42:00       -2.619      -23.929        6.371       23.285       16.198       18.662      542.174      262.371      348.270        0.089        0.058       24.072       17.017        0.500      344.059       20.610      860.970
07/08/2013  03:43:00       -0.947      -50.121       -6.770       11.295       16.716       11.005      127.584      279.427      121.120        0.154        0.026       50.130        5.531        0.012      344.070       20.628      860.977
07/08/2013  03:44:00       -5.885      -16.965       -1.387        9.362       13.968        5.532       87.639      195.102       30.604        0.032        0.016       17.957        5.006        0.078      344.142       20.751      860.971
07/08/2013  03:45:00      -14.264      -20.095       -1.402       12.466        6.963        5.424      155.397       48.486       29.425        0.042        0.012       24.643        4.300        0.030      344.202       20.853      860.973
07/08/2013  03:46:00      -46.931        1.836       -3.258        6.100        5.203        3.993       37.213       27.072       15.945        0.115        0.004       46.967        1.730        0.001      344.371       21.143      860.984
07/08/2013  03:47:00      -45.864      -11.406       -3.282        7.588       12.400        9.241       57.582      153.761       85.402        0.127        0.015       47.261        6.062        0.016      344.225       20.894      860.994
07/08/2013  03:48:00      -53.507      -20.950       -7.036        8.634        6.090        5.794       74.547       37.087       33.566        0.175        0.007       57.462        4.797        0.007      344.218       20.883      861.011
07/08/2013  03:49:00      -73.184      -20.974      -13.430        5.935        7.435        5.106       35.227       55.280       26.074        0.305        0.006       76.130        3.589        0.002      344.152       20.767      861.034
07/08/2013  03:50:00     -100.112      -16.580      -12.386       14.817       11.980        8.988      219.553      143.509       80.776        0.545        0.022      101.475        3.395        0.001      344.039       20.576      861.043
07/08/2013  03:51:00      -68.957      -45.247       -1.232       49.609       25.370       19.558     2461.088      643.658      382.498        0.514        0.174       82.477       25.314        0.094      343.945       20.416      861.056
07/08/2013  03:52:00      -11.896      -30.573        5.478       25.835       16.057       17.419      667.422      257.821      303.411        0.117        0.061       32.806       15.273        0.217      343.968       20.453      861.065
07/08/2013  03:53:00      -34.107     -109.968        9.398       32.647       43.250       19.092     1065.801     1870.553      364.503        0.832        0.165      115.136       18.844        0.027      343.913       20.359      861.077
07/08/2013  03:54:00      -29.231      -62.672       -3.612       27.518       31.578       24.151      757.225      997.169      583.250        0.357        0.117       69.153       10.318        0.022      343.912       20.358      861.090
07/08/2013  03:55:00      -19.190        2.356        3.600       13.104       14.356        8.116      171.719      206.084       65.874        0.042        0.022       19.334        8.135        0.177      344.006       20.520      861.084
07/08/2013  03:56:00       -3.552      -26.692        8.379       10.822       23.747        9.496      117.109      563.909       90.173        0.078        0.039       26.927        9.638        0.128      343.974       20.464      861.071
07/08/2013  03:57:00       -7.610      -47.131       16.271        8.692       16.213       16.464       75.549      262.851      271.069        0.158        0.030       47.741        8.491        0.032      344.119       20.713      861.067
07/08/2013  03:58:00      -13.784      -34.203        1.531       13.745       16.320       11.600      188.917      266.336      134.561        0.098        0.029       36.876        8.973        0.059      344.213       20.871      861.069
07/08/2013  03:59:00      -48.065      -22.139       -3.535       19.735       22.417       12.801      389.486      502.504      163.878        0.193        0.053       52.919       10.467        0.039      344.031       20.560      861.081
07/08/2013  04:00:00      -97.024      -45.177       -2.942       30.281       19.025       12.672      916.957      361.953      160.574        0.645        0.072      107.026        8.754        0.007      343.818       20.197      861.098
07/08/2013  04:01:00     -159.714      -74.571        2.198       43.084       36.210       24.807     1856.268     1311.152      615.404        1.743        0.189      176.265       22.855        0.017      343.727       20.043      861.119
07/08/2013  04:02:00     -143.742      -54.964       -0.921       46.764       39.326       26.581     2186.825     1546.561      706.563        1.406        0.222      153.892       24.314        0.025      343.630       19.876      861.141
07/08/2013  04:03:00     -111.227      -11.032       -8.650       26.818       30.876       20.464      719.185      953.312      418.791        0.733        0.105      111.773       12.917        0.013      343.617       19.854      861.145
07/08/2013  04:04:00      -69.387        1.342       -1.042       25.270       20.329       14.925      638.592      413.272      222.744        0.305        0.064       69.400       12.394        0.032      343.642       19.896      861.134
07/08/2013  04:05:00      -56.017        0.470       -1.619       19.927       10.496        9.619      397.091      110.165       92.517        0.187        0.030       56.019       10.336        0.034      343.771       20.118      861.118
07/08/2013  04:06:00      -44.415      -14.603       -0.593       18.854       14.194        8.214      355.484      201.457       67.469        0.141        0.031       46.754        7.760        0.028      343.909       20.352      861.115
07/08/2013  04:07:00      -55.559      -31.899       -3.563       15.515       13.738       12.334      240.719      188.744      152.116        0.235        0.029       64.065        9.259        0.021      344.021       20.544      861.110
07/08/2013  04:08:00      -58.385      -31.629       -4.132       20.720        9.049        7.578      429.322       81.888       57.433        0.250        0.028       66.402        6.328        0.009      344.008       20.524      861.121
07/08/2013  04:09:00      -51.815      -28.859        0.152       16.001       12.103       13.132      256.042      146.483      172.438        0.205        0.029       59.309        7.051        0.014      343.956       20.434      861.139
07/08/2013  04:10:00      -53.208      -47.100       -0.468       32.612       21.677       17.348     1063.546      469.871      300.939        0.344        0.092       71.060       11.094        0.024      343.903       20.343      861.150
07/08/2013  04:11:00     -101.950      -40.343        0.682       54.625       31.680       21.831     2983.934     1003.606      476.586        0.824        0.223      109.642       27.621        0.063      343.675       19.952      861.152
07/08/2013  04:12:00     -143.194      -61.756       -4.160       37.132       31.802       18.759     1378.817     1011.350      351.894        1.354        0.137      155.943       14.879        0.009      343.605       19.835      861.140
07/08/2013  04:13:00     -116.979      -54.168       -3.200       27.299       26.410       15.007      745.208      697.464      225.208        0.915        0.083      128.912       12.566        0.010      343.736       20.058      861.137
07/08/2013  04:14:00      -32.806      -35.878        7.354       43.485       20.432       15.963     1890.964      417.463      254.818        0.249        0.128       48.616       19.849        0.167      343.792       20.153      861.135
07/08/2013  04:15:00      -62.713      -28.995       -5.307       17.332       16.792       14.524      300.409      281.986      210.957        0.280        0.040       69.092        8.624        0.016      343.741       20.066      861.140
07/08/2013  04:16:00      -59.549      -32.331       -3.115       22.706       21.144       11.196      515.562      447.072      125.355        0.284        0.054       67.759        5.944        0.008      343.673       19.949      861.145
07/08/2013  04:17:00      -91.595      -23.147       -1.661       24.105       25.800       17.270      581.051      665.635      298.254        0.524        0.077       94.475       13.994        0.022      343.730       20.046      861.150
07/08/2013  04:18:00      -87.035       -5.951       -5.864       23.060       25.103       11.266      531.744      630.169      126.922        0.447        0.064       87.239        8.517        0.010      343.672       19.949      861.156
07/08/2013  04:19:00      -85.756      -18.183       -4.321       20.096       18.087       12.901      403.869      327.150      166.441        0.430        0.045       87.662        9.587        0.012      343.724       20.037      861.161
07/08/2013  04:20:00      -77.134      -24.507       -2.429       19.020       20.751       10.771      361.773      430.584      116.012        0.373        0.045       80.934        7.372        0.008      343.727       20.042      861.179
07/08/2013  04:21:00      -92.469      -27.306       -9.802       15.957       13.717       11.776      254.614      188.165      138.672        0.499        0.029       96.416        9.050        0.009      343.652       19.914      861.192
07/08/2013  04:22:00      -94.424      -39.435       -8.435       14.615       18.417       12.477      213.601      339.186      155.681        0.563        0.035      102.328        8.584        0.007      343.618       19.856      861.190
07/08/2013  04:23:00      -98.723      -28.415       -4.551       24.773       24.009       11.338      613.682      576.448      128.561        0.595        0.066      102.731        4.279        0.002      343.519       19.688      861.198
07/08/2013  04:24:00     -135.136       18.781       -6.475       36.098       38.743       22.484     1303.050     1501.003      505.530        1.098        0.165      136.435       18.511        0.018      343.394       19.475      861.203
07/08/2013  04:25:00     -155.910       44.547      -10.643       33.922       25.010       18.950     1150.709      625.525      359.100        1.427        0.107      162.149       14.284        0.008      343.546       19.733      861.224
07/08/2013  04:26:00     -118.126       -4.411      -11.276       17.276       21.785       13.135      298.452      474.571      172.525        0.752        0.047      118.209        7.916        0.004      343.530       19.705      861.235
07/08/2013  04:27:00      -49.714        0.618       -8.602       29.349       26.856       14.125      861.348      721.262      199.503        0.216        0.089       49.718       13.812        0.077      343.543       19.729      861.231
07/08/2013  04:28:00      -53.527       -3.507       -4.255       33.442       18.036       16.886     1118.355      325.314      285.135        0.231        0.086       53.642       11.383        0.045      343.689       19.977      861.226
07/08/2013  04:29:00      -69.576       -1.253       -4.813       29.057       19.472       12.684      844.325      379.162      160.882        0.312        0.069       69.587        8.659        0.015      343.826       20.212      861.244
07/08/2013  04:30:00      -77.495      -23.488       -9.438       23.209       12.965       10.526      538.646      168.102      110.801        0.373        0.041       80.977       10.821        0.018      343.785       20.140      861.250
07/08/2013  04:31:00      -67.952      -16.034       -3.832       20.202       22.459       13.913      408.122      504.387      193.572        0.300        0.055       69.818        8.751        0.016      343.520       19.688      861.244
07/08/2013  04:32:00     -103.622        8.454      -13.314       28.077       26.095       14.684      788.294      680.961      215.631        0.634        0.084      103.966        4.408        0.002      343.490       19.639      861.245
07/08/2013  04:33:00      -81.248        3.319       -8.851       20.676       38.238       15.651      427.484     1462.116      244.968        0.441        0.107       81.315        9.404        0.013      343.320       19.349      861.255
07/08/2013  04:34:00      -82.427      -26.805      -17.766       43.700       20.585       16.163     1909.647      423.749      261.234        0.521        0.130       86.675       18.650        0.046      343.242       19.216      861.258
07/08/2013  04:35:00      -76.849      -39.132       -7.044       35.201       21.165       13.266     1239.087      447.953      175.982        0.467        0.093       86.238       11.339        0.017      343.179       19.108      861.263
07/08/2013  04:36:00      -85.378      -25.553       -5.255       16.717       17.652        9.993      279.457      311.579       99.858        0.433        0.035       89.120        4.183        0.002      343.198       19.139      861.282
07/08/2013  04:37:00      -80.055      -26.834       -5.472       29.223       22.796       12.615      853.992      519.669      159.143        0.435        0.077       84.432       12.161        0.021      343.152       19.062      861.297
07/08/2013  04:38:00      -87.090      -16.256       -0.339       36.606       32.300       20.839     1339.990     1043.317      434.270        0.533        0.141       88.594       20.144        0.052      343.114       18.998      861.290
07/08/2013  04:39:00      -30.346       -6.557        8.204       38.588       26.827       19.414     1489.045      719.674      376.911        0.181        0.129       31.046       17.956        0.334      343.036       18.866      861.291
07/08/2013  04:40:00      -66.225        9.454       -2.858       31.776       25.576       25.157     1009.728      654.111      632.877        0.339        0.115       66.897       18.308        0.075      343.152       19.064      861.302
07/08/2013  04:41:00      -62.602       -5.233        3.673       38.404       24.756       17.889     1474.842      612.843      320.028        0.318        0.120       62.820       16.432        0.068      343.158       19.072      861.312
07/08/2013  04:42:00      -82.367       -4.879        2.739       33.582       26.695       22.552     1127.728      712.637      508.599        0.458        0.117       82.511       20.075        0.059      343.202       19.147      861.312
07/08/2013  04:43:00     -104.842      -40.908       -4.494       26.238       24.721       16.619      688.435      611.143      276.197        0.713        0.079      112.540       11.847        0.011      343.160       19.077      861.308
07/08/2013  04:44:00      -93.888      -52.152       -5.243       25.916       21.213       17.293      671.628      449.996      299.043        0.649        0.071      107.400       15.099        0.020      343.153       19.064      861.316
07/08/2013  04:45:00      -76.251      -42.962      -11.780       16.015       13.600       11.450      256.480      184.954      131.101        0.419        0.029       87.521        5.142        0.003      343.166       19.086      861.319
07/08/2013  04:46:00      -81.550      -17.469       -6.647       15.573       19.972       11.188      242.520      398.899      125.180        0.388        0.038       83.400        5.803        0.005      343.162       19.081      861.316
07/08/2013  04:47:00      -88.007      -28.856       -6.445       21.204       22.317       13.427      449.595      498.068      180.279        0.487        0.056       92.617        8.014        0.007      343.116       19.001      861.326
07/08/2013  04:48:00      -97.072      -14.368       -7.414       26.520       19.454       14.305      703.293      378.453      204.639        0.549        0.064       98.130       13.281        0.018      343.075       18.931      861.331
07/08/2013  04:49:00     -108.086       -8.426       -7.132       14.289       16.239       12.177      204.188      263.721      148.290        0.621        0.031      108.413        6.663        0.004      342.993       18.792      861.331
07/08/2013  04:50:00      -96.579       -8.390       -2.646       23.849       12.786       13.122      568.775      163.494      172.187        0.515        0.045       96.943       12.812        0.017      342.919       18.666      861.331
07/08/2013  04:51:00      -84.726       -6.964       -4.091       22.806       17.096       12.730      520.116      292.261      162.042        0.411        0.049       85.012       11.195        0.017      342.907       18.645      861.341
07/08/2013  04:52:00      -97.814      -19.088       -0.386       36.687       21.510       14.470     1345.960      462.699      209.388        0.597        0.101       99.659       15.233        0.023      342.904       18.640      861.352
07/08/2013  04:53:00     -134.038      -41.009       -4.314       26.960       23.030       15.876      726.851      530.372      252.039        1.059        0.075      140.171       15.590        0.012      342.946       18.712      861.371
07/08/2013  04:54:00     -114.250      -21.008       -0.890       37.896       26.287       18.336     1436.116      690.992      336.200        0.798        0.123      116.165       15.929        0.019      342.949       18.716      861.398
07/08/2013  04:55:00      -89.021      -38.375        1.150       29.123       26.646       17.637      848.135      710.021      311.050        0.563        0.093       96.940       14.268        0.022      342.899       18.631      861.413
07/08/2013  04:56:00      -70.015      -58.282        4.376       42.356       20.741       16.845     1794.046      430.199      283.745        0.541        0.125       91.098       17.324        0.036      342.905       18.642      861.414
07/08/2013  04:57:00      -80.351      -30.362       -6.608       12.098       22.414       13.507      146.351      502.403      182.430        0.413        0.042       85.896       10.332        0.014      342.852       18.551      861.406
07/08/2013  04:58:00      -50.948      -20.937       -4.665       23.426       13.572       16.482      548.788      184.205      271.648        0.203        0.050       55.082       13.459        0.060      342.941       18.705      861.395
07/08/2013  04:59:00      -56.607      -12.053        1.293       25.299       21.666       19.356      640.033      469.433      374.661        0.242        0.074       57.876       19.470        0.113      343.053       18.893      861.375
07/08/2013  05:00:00      -78.427       57.901      -16.420       29.656       44.376       16.305      879.473     1969.245      265.849        0.644        0.156       97.485       22.503        0.053      343.379       19.449      861.372
07/08/2013  05:01:00      -65.852       99.955      -17.830       34.361       30.653       20.814     1180.688      939.625      433.224        0.860        0.128      119.698       21.126        0.031      343.602       19.829      861.383
07/08/2013  05:02:00      -72.895       66.014      -14.491       29.178       40.311       18.893      851.342     1624.942      356.938        0.636        0.142       98.344       15.248        0.024      343.443       19.559      861.405
07/08/2013  05:03:00      -78.941      -18.157      -14.015       19.330       17.403       12.687      373.664      302.867      160.950        0.380        0.042       81.002       11.683        0.021      342.933       18.689      861.417
07/08/2013  05:04:00     -128.589      -41.452       -9.339       15.167       16.177       12.038      230.051      261.706      144.910        0.949        0.032      135.106        7.918        0.003      342.784       18.435      861.427
07/08/2013  05:05:00      -88.997      -33.444        1.350       33.879       19.819       20.245     1147.781      392.796      409.879        0.550        0.098       95.074       15.100        0.025      342.716       18.321      861.455
07/08/2013  05:06:00      -60.113      -50.304        3.340       38.611       38.233       19.636     1490.806     1461.784      385.572        0.475        0.167       78.384       21.893        0.078      342.818       18.493      861.466
07/08/2013  05:07:00      -87.072      -76.177       -0.921       29.250       32.029       18.884      855.553     1025.836      356.609        0.781        0.112      115.691       17.573        0.023      342.972       18.756      861.477
07/08/2013  05:08:00      -99.132      -26.933       -5.215       25.787       22.527       17.894      664.951      507.482      320.201        0.604        0.075      102.726       11.474        0.012      343.075       18.931      861.478
07/08/2013  05:09:00      -99.367      -37.722      -13.904       18.232       16.369       10.977      332.418      267.938      120.502        0.611        0.036      106.287        6.809        0.004      343.047       18.884      861.453
07/08/2013  05:10:00      -94.556      -25.362       -6.747       20.345       23.768       10.227      413.915      564.920      104.591        0.536        0.054       97.898        5.614        0.003      342.948       18.717      861.422
07/08/2013  05:11:00      -84.906      -22.047       -8.359       27.730       24.751       14.449      768.965      612.612      208.777        0.468        0.080       87.721       15.456        0.031      342.854       18.555      861.413
07/08/2013  05:12:00      -89.208      -19.599        0.561       30.821       23.510       15.030      949.958      552.723      225.886        0.504        0.086       91.336       14.145        0.024      342.846       18.540      861.408
07/08/2013  05:13:00     -119.482      -42.790      -11.837       26.000       29.130       16.663      676.017      848.558      277.664        0.902        0.090      126.914       14.643        0.013      342.904       18.639      861.406
07/08/2013  05:14:00     -151.186      -55.834      -10.393       27.403       24.125       16.752      750.900      582.005      280.614        1.385        0.081      161.167       15.717        0.010      342.817       18.491      861.423
07/08/2013  05:15:00     -173.647      -41.668       -9.105       37.278       21.046       23.413     1389.628      442.935      548.167        1.718        0.119      178.576       23.232        0.017      342.773       18.418      861.436
07/08/2013  05:16:00     -130.168      -29.250       -6.451       30.796       30.720       16.507      948.369      943.742      272.490        1.000        0.108      133.414       15.870        0.014      342.684       18.266      861.450
07/08/2013  05:17:00     -158.077      -25.096       -4.879       44.340       27.760       23.405     1966.026      770.606      547.806        1.446        0.164      160.056       24.107        0.023      342.662       18.228      861.460
07/08/2013  05:18:00     -137.231      -23.365       -5.926       35.442       28.356       25.653     1256.123      804.079      658.060        1.107        0.136      139.206       21.210        0.023      342.675       18.250      861.458
07/08/2013  05:19:00     -126.008      -13.023       -3.276       58.209       40.137       24.369     3388.287     1610.954      593.859        1.082        0.280      126.680       22.340        0.031      342.706       18.304      861.457
07/08/2013  05:20:00     -134.039      -36.062       -3.150       30.689       27.448       17.390      941.840      753.407      302.422        1.064        0.100      138.805       11.365        0.007      342.743       18.367      861.441
07/08/2013  05:21:00     -133.589      -42.665       -1.590       50.492       39.942       22.751     2549.424     1595.374      517.610        1.216        0.233      140.237       27.617        0.039      342.722       18.330      861.437
07/08/2013  05:22:00     -109.332      -29.189       -1.129       36.469       35.261       21.053     1329.960     1243.352      443.213        0.791        0.151      113.161       18.142        0.026      342.738       18.356      861.450
07/08/2013  05:23:00      -84.508       -0.797       -6.508       44.794       32.482       17.225     2006.474     1055.097      296.717        0.527        0.168       84.512       16.458        0.038      342.735       18.352      861.450
07/08/2013  05:24:00      -99.528        7.752       -9.375       48.838       20.513       16.598     2385.150      420.770      275.508        0.657        0.154       99.829       21.201        0.045      342.768       18.408      861.458
07/08/2013  05:25:00     -112.094      -13.656       -6.718       36.921       34.828       20.812     1363.152     1212.966      433.131        0.790        0.150      112.923       20.479        0.033      342.783       18.435      861.460
07/08/2013  05:26:00     -179.351      -19.390      -15.575       25.682       23.436       19.409      659.559      549.266      376.721        1.719        0.079      180.396       12.443        0.005      342.804       18.470      861.456
07/08/2013  05:27:00     -166.954      -31.791       -6.898       39.914       39.161       22.567     1593.119     1533.549      509.258        1.628        0.182      169.954       20.831        0.015      342.742       18.364      861.456
07/08/2013  05:28:00     -153.877      -23.279       -9.785       44.579       27.556       25.667     1987.305      759.323      658.787        1.386        0.170      155.628       22.749        0.021      342.704       18.299      861.463
07/08/2013  05:29:00     -165.804      -59.199       -3.566       36.363       33.451       25.723     1322.237     1118.940      661.653        1.705        0.155      176.055       24.722        0.020      342.738       18.357      861.466
07/08/2013  05:30:00     -169.296      -48.391      -10.009       40.473       44.577       24.206     1638.085     1987.088      585.916        1.766        0.211      176.076       19.484        0.012      342.690       18.274      861.476
07/08/2013  05:31:00     -129.117       -4.050       -4.211       41.764       48.165       27.460     1744.213     2319.889      754.036        1.076        0.241      129.180       25.768        0.040      342.653       18.213      861.486
07/08/2013  05:32:00     -132.145      -20.976       -8.329       40.797       23.459       21.542     1664.359      550.311      464.057        1.032        0.134      133.799       21.506        0.026      342.676       18.251      861.482
07/08/2013  05:33:00     -133.891       -6.324      -10.932       23.880       31.236       17.249      570.253      975.664      297.534        0.996        0.092      134.040       13.608        0.010      342.693       18.279      861.487
07/08/2013  05:34:00     -114.425      -25.900       -1.416       35.800       26.593       20.367     1281.669      707.186      414.827        0.808        0.120      117.320       20.027        0.029      342.685       18.268      861.482
07/08/2013  05:35:00     -100.615      -49.914       -3.623       37.835       29.103       17.407     1431.478      846.971      303.009        0.760        0.129      112.316       11.751        0.011      342.709       18.307      861.495
07/08/2013  05:36:00      -77.796      -69.637        1.144       60.124       43.751       35.391     3614.897     1914.130     1252.504        0.884        0.339      104.410       37.265        0.127      342.625       18.166      861.513
07/08/2013  05:37:00     -122.448      -36.478       -5.284       53.846       33.220       20.378     2899.418     1103.555      415.269        1.038        0.221      127.766       21.112        0.027      342.593       18.112      861.516
07/08/2013  05:38:00     -129.358      -65.679       -3.082       38.929       34.723       20.937     1515.504     1205.719      438.354        1.211        0.158      145.077       16.825        0.013      342.590       18.106      861.514
07/08/2013  05:39:00     -145.943      -47.680      -11.358       40.118       48.895       17.763     1609.423     2390.757      315.510        1.401        0.216      153.534        7.333        0.002      342.657       18.219      861.499
07/08/2013  05:40:00     -156.571      -49.159       -5.067       23.279       19.913       14.862      541.923      396.520      220.883        1.406        0.058      164.107        5.477        0.001      342.615       18.149      861.479
07/08/2013  05:41:00     -157.584      -49.973       -4.044       20.291       25.563       17.446      411.736      653.453      304.356        1.436        0.068      165.318       10.755        0.004      342.643       18.197      861.481
07/08/2013  05:42:00     -139.035      -13.315       -6.604       40.794       35.078       26.168     1664.141     1230.500      684.762        1.156        0.179      139.671       26.287        0.035      342.693       18.282      861.485
07/08/2013  05:43:00     -145.799      -38.747       -4.364       46.130       36.187       23.758     2127.952     1309.492      564.433        1.339        0.200      150.860       23.170        0.024      342.670       18.242      861.485
07/08/2013  05:44:00      -92.574      -40.974        1.012       35.416       28.733       17.829     1254.280      825.595      317.890        0.632        0.120      101.237       13.267        0.017      342.656       18.219      861.501
07/08/2013  05:45:00      -54.189      -63.007        6.240       34.588       44.546       23.042     1196.348     1984.351      530.948        0.533        0.186       83.105       21.275        0.066      342.689       18.276      861.518
07/08/2013  05:46:00     -106.826      -93.019       -4.912       48.708       71.141       28.371     2372.467     5061.097      804.895        1.416        0.412      141.648       31.688        0.050      342.635       18.182      861.533
07/08/2013  05:47:00     -131.258      -97.327       -8.150       49.431       39.747       33.520     2443.388     1579.800     1123.616        1.596        0.257      163.405       31.068        0.036      342.603       18.127      861.540
07/08/2013  05:48:00     -112.948      -93.172      -13.959       37.717       34.933       26.535     1422.573     1220.336      704.128        1.249        0.167      146.419       17.292        0.014      342.596       18.115      861.547
07/08/2013  05:49:00      -75.198      -66.966        1.597       41.753       37.460       19.156     1743.323     1403.286      366.935        0.683        0.176      100.694       18.626        0.034      342.592       18.109      861.552
07/08/2013  05:50:00      -95.410      -74.788       -4.711       27.379       27.867       21.506      749.618      776.548      462.488        0.835        0.099      121.228       11.451        0.009      342.645       18.200      861.550
07/08/2013  05:51:00      -72.055      -24.324        4.856       38.163       32.732       20.756     1456.377     1071.401      430.797        0.438        0.148       76.050       22.399        0.087      342.584       18.096      861.541
07/08/2013  05:52:00     -105.337      -64.464      -10.993       24.736       25.355       14.572      611.866      642.865      212.350        0.842        0.073      123.497        8.742        0.005      342.692       18.278      861.534
07/08/2013  05:53:00     -100.261      -65.015       -6.704       22.079       26.893       16.558      487.485      723.242      274.176        0.790        0.074      119.496       11.323        0.009      342.703       18.299      861.539
07/08/2013  05:54:00      -92.311      -50.608       -2.719       28.735       23.283       16.324      825.682      542.105      266.461        0.636        0.082      105.274       17.523        0.028      342.647       18.202      861.541
07/08/2013  05:55:00      -69.396      -48.303        0.518       46.516       22.558       20.082     2163.723      508.841      403.279        0.511        0.154       84.552       13.830        0.027      342.694       18.283      861.563
07/08/2013  05:56:00      -88.201      -80.256       -1.721       35.677       31.863       22.172     1272.859     1015.257      491.616        0.850        0.139      119.249       18.163        0.023      342.641       18.193      861.584
07/08/2013  05:57:00     -123.067      -70.325       -0.306       30.391       26.654       23.507      923.590      710.455      552.558        1.114        0.109      141.742       13.522        0.009      342.614       18.146      861.602
07/08/2013  05:58:00      -76.246      -51.917       -2.741       37.122       28.675       17.026     1378.006      822.260      289.884        0.550        0.125       92.243        9.709        0.011      342.598       18.119      861.610
07/08/2013  05:59:00      -16.712      -42.425        3.707       34.504       29.070       17.457     1190.542      845.066      304.733        0.222        0.117       45.598       14.955        0.108      342.602       18.126      861.627
07/08/2013  06:00:00      -29.958      -52.514       -2.896       36.409       17.160       17.165     1325.593      294.452      294.644        0.279        0.096       60.459       18.752        0.096      342.606       18.134      861.615
07/08/2013  06:01:00      -65.538      -43.327       -5.241       27.559       26.308       18.155      759.480      692.098      329.619        0.399        0.089       78.565       12.973        0.027      342.558       18.050      861.612
07/08/2013  06:02:00      -70.737      -36.412       -2.168       38.801       22.678       21.036     1505.554      514.297      442.533        0.440        0.123       79.559       24.037        0.091      342.507       17.965      861.612
07/08/2013  06:03:00      -61.543      -17.474       -1.810       42.685       12.129       15.166     1821.978      147.119      230.012        0.315        0.110       63.976       19.566        0.094      342.525       17.996      861.623
07/08/2013  06:04:00      -71.230      -12.833      -10.820       27.672       28.427       16.507      765.751      808.076      272.469        0.360        0.092       72.377        9.201        0.016      342.820       18.496      861.648
07/08/2013  06:05:00      -56.011      -26.304       -4.382       35.700       23.641       16.736     1274.520      558.884      280.091        0.298        0.106       61.880       17.646        0.081      342.645       18.199      861.659
07/08/2013  06:06:00      -88.539      -41.542       -9.291       23.129       13.659       11.705      534.969      186.575      137.008        0.525        0.043       97.800       10.695        0.012      342.551       18.040      861.664
07/08/2013  06:07:00      -47.700      -47.550       -2.639       21.682       12.738       12.723      470.116      162.250      161.885        0.267        0.040       67.352        9.089        0.018      342.613       18.144      861.663
07/08/2013  06:08:00      -59.514      -53.603       -2.875       23.896       15.233        9.371      571.002      232.046       87.806        0.366        0.045       80.095        5.685        0.005      342.643       18.196      861.666
07/08/2013  06:09:00      -93.637      -63.226       -3.186       27.414       14.591       11.592      751.519      212.892      134.368        0.694        0.055      112.984        5.198        0.002      342.668       18.238      861.682
07/08/2013  06:10:00     -111.976      -73.385       -6.660       38.571       30.247       19.902     1487.730      914.890      396.085        1.038        0.140      133.881       14.592        0.012      342.609       18.140      861.701
07/08/2013  06:11:00     -153.765      -58.946       -7.261       40.822       30.141       19.408     1666.442      908.452      376.678        1.506        0.148      164.676       15.379        0.009      342.558       18.053      861.710
07/08/2013  06:12:00     -138.765      -67.530       -5.439       32.584       29.413       22.929     1061.730      865.140      525.720        1.315        0.123      154.324       22.574        0.021      342.587       18.101      861.704
07/08/2013  06:13:00     -111.455      -53.343       -8.905       40.462       31.763       21.855     1637.145     1008.883      477.639        0.923        0.156      123.563       18.281        0.022      342.590       18.106      861.706
07/08/2013  06:14:00     -106.602      -42.654      -12.531       17.106       17.714       13.196      292.605      313.795      174.144        0.706        0.039      114.819        5.018        0.002      342.599       18.121      861.700
07/08/2013  06:15:00     -109.561      -48.717      -13.464       22.339       21.301       17.507      499.030      453.754      306.507        0.791        0.063      119.904       11.562        0.009      342.587       18.099      861.696
07/08/2013  06:16:00     -134.228      -34.045      -12.629       20.865       20.258       14.489      435.355      410.407      209.938        1.020        0.053      138.478       11.260        0.007      342.672       18.245      861.702
07/08/2013  06:17:00     -101.724      -42.857      -12.115       19.569       15.798       15.403      382.935      249.570      237.242        0.660        0.043      110.383       11.244        0.010      342.624       18.165      861.705
07/08/2013  06:18:00     -103.639      -33.336      -13.812       14.807       12.787       14.333      219.256      163.509      205.428        0.632        0.029      108.869        9.466        0.008      342.652       18.211      861.712
07/08/2013  06:19:00      -91.331      -43.266      -14.007       18.936       15.984        9.066      358.576      255.476       82.198        0.555        0.035      101.061        4.522        0.002      342.609       18.137      861.717
07/08/2013  06:20:00      -48.256      -48.655        2.513       45.032       41.634       24.320     2027.848     1733.424      591.481        0.453        0.218       68.528       24.945        0.133      342.540       18.021      861.717
07/08/2013  06:21:00     -116.415      -90.557       -3.707       47.785       42.547       27.492     2283.437     1810.225      755.783        1.331        0.242      147.489       26.772        0.033      342.432       17.836      861.730
07/08/2013  06:22:00     -143.062      -92.667       -3.874       53.449       39.359       26.309     2856.775     1549.129      692.184        1.708        0.255      170.452       26.620        0.024      342.363       17.717      861.722
07/08/2013  06:23:00     -156.028      -34.434       -9.933       30.942       35.338       16.461      957.433     1248.791      270.965        1.405        0.124      159.783       14.251        0.008      342.481       17.920      861.731
07/08/2013  06:24:00     -109.729      -54.685        0.788       42.186       30.911       22.105     1779.618      955.469      488.617        0.913        0.161      122.601       20.282        0.027      342.480       17.920      861.733
07/08/2013  06:25:00     -141.246      -38.646       -0.584       33.616       34.233       20.239     1130.056     1171.873      409.607        1.208        0.136      146.437       16.669        0.013      342.486       17.928      861.745
07/08/2013  06:26:00     -117.798      -68.410       -4.477       36.046       28.925       20.695     1299.311      836.653      428.280        1.057        0.128      136.221       14.883        0.012      342.549       18.037      861.759
07/08/2013  06:27:00     -107.044      -67.019        2.092       48.329       41.727       27.272     2335.663     1741.142      743.735        1.039        0.241      126.294       20.824        0.027      342.580       18.089      861.760
07/08/2013  06:28:00     -101.372      -69.077       -6.731       38.812       24.817       20.121     1506.342      615.865      404.852        0.881        0.126      122.670       15.749        0.016      342.581       18.092      861.767
07/08/2013  06:29:00      -42.318      -53.446        8.146       46.024       39.314       25.452     2118.173     1545.553      647.821        0.451        0.216       68.171       32.015        0.221      342.658       18.223      861.775
07/08/2013  06:30:00      -15.319      -27.295       18.472       38.762       34.931       28.012     1502.519     1220.160      784.685        0.241        0.175       31.299       22.834        0.532      342.728       18.341      861.792
07/08/2013  06:31:00      -83.236      -49.233       -9.113       30.429       33.611       17.151      925.949     1129.723      294.167        0.589        0.117       96.707       16.505        0.029      342.652       18.212      861.794
07/08/2013  06:32:00     -132.904      -20.336      -13.195       34.599       28.515       23.500     1197.058      813.112      552.246        1.041        0.128      134.451       21.130        0.025      342.522       17.991      861.807
07/08/2013  06:33:00     -109.391      -31.917       -7.088       33.331       19.888       16.853     1110.953      395.521      284.011        0.741        0.090      113.952        8.449        0.005      342.529       18.003      861.829
07/08/2013  06:34:00      -52.278      -34.666        3.788       35.830       21.250       16.980     1283.813      451.553      288.323        0.299        0.101       62.728       17.532        0.078      342.598       18.120      861.843
07/08/2013  06:35:00      -53.664      -33.197       -1.334       35.903       19.785       17.111     1289.014      391.444      292.776        0.298        0.099       63.103       10.741        0.029      342.615       18.150      861.870
07/08/2013  06:36:00      -22.546      -28.439        4.295       25.562       21.187       18.144      653.440      448.873      329.200        0.138        0.072       36.292       17.044        0.221      342.738       18.357      861.882
07/08/2013  06:37:00      -49.384      -37.143       -0.981       33.651       20.187       18.402     1132.375      407.525      338.644        0.285        0.094       61.793       19.517        0.100      342.719       18.326      861.889
07/08/2013  06:38:00      -89.857      -41.106       -2.323       34.829       29.099       16.497     1213.092      846.776      272.140        0.605        0.117       98.813       10.665        0.012      342.658       18.221      861.883
07/08/2013  06:39:00      -76.090      -42.358        4.283       45.193       25.376       17.775     2042.382      643.940      315.934        0.530        0.150       87.086       13.459        0.024      342.731       18.345      861.878
07/08/2013  06:40:00      -58.431      -51.549        0.012       38.384       29.334       17.726     1473.320      860.506      314.214        0.436        0.132       77.920       14.486        0.035      342.773       18.416      861.886
07/08/2013  06:41:00      -99.358      -48.637       -3.915       56.130       25.251       22.970     3150.578      637.600      527.623        0.828        0.216      110.623       24.901        0.051      342.805       18.472      861.891
07/08/2013  06:42:00      -84.409      -45.618        0.592       36.737       25.066       19.284     1349.616      628.326      371.864        0.578        0.117       95.947       14.202        0.022      342.765       18.403      861.902
07/08/2013  06:43:00      -70.585      -48.353       -3.801       30.218       18.887       15.920      913.135      356.725      253.457        0.443        0.076       85.559       11.967        0.020      342.834       18.519      861.907
07/08/2013  06:44:00      -62.391      -30.049       -0.945       30.454       29.856       18.186      927.442      891.373      330.737        0.347        0.107       69.250       14.638        0.045      342.934       18.691      861.925
07/08/2013  06:45:00      -58.013      -19.510        1.207       53.245       26.574       23.952     2835.053      706.184      573.716        0.393        0.206       61.205       27.838        0.207      343.043       18.877      861.937
07/08/2013  06:46:00      -55.739      -47.479       -6.806       41.398       27.494       17.220     1713.784      755.943      296.534        0.409        0.138       73.219       18.716        0.065      342.973       18.757      861.950
07/08/2013  06:47:00      -56.540      -76.862       -8.291       25.737       23.970       18.107      662.375      574.569      327.852        0.537        0.078       95.418       11.885        0.016      342.895       18.626      861.961
07/08/2013  06:48:00      -57.022      -86.422      -10.191       19.931       17.423       14.495      397.233      303.569      210.103        0.587        0.046      103.539        9.412        0.008      342.956       18.729      861.954
07/08/2013  06:49:00      -49.041      -49.233       -3.102       30.429       22.008       17.400      925.899      484.364      302.761        0.328        0.086       69.491       18.727        0.073      343.053       18.893      861.960
07/08/2013  06:50:00      -45.329      -80.092       -1.649       38.483       42.526       31.516     1480.943     1808.456      993.237        0.638        0.214       92.030       18.533        0.041      342.943       18.707      861.969
07/08/2013  06:51:00      -95.030      -71.884       -7.372       54.155       41.520       23.998     2932.715     1723.942      575.905        0.974        0.262      119.155       18.685        0.025      342.902       18.635      861.990
07/08/2013  06:52:00     -112.730      -83.395       -2.825       40.424       29.298       22.157     1634.131      858.397      490.931        1.133        0.149      140.224       20.605        0.022      342.850       18.549      862.009
07/08/2013  06:53:00      -94.929      -58.174        5.389       60.201       33.664       24.986     3624.195     1133.289      624.320        0.890        0.269      111.336       29.606        0.071      343.013       18.825      862.026
07/08/2013  06:54:00      -54.677      -60.598        6.998       54.611       45.500       33.281     2982.376     2070.282     1107.649        0.643        0.308       81.620       29.469        0.130      343.127       19.019      862.034
07/08/2013  06:55:00      -95.932     -129.066       -9.710       28.807       26.805       18.455      829.856      718.523      340.584        1.392        0.094      160.814       13.862        0.007      342.980       18.770      862.044
07/08/2013  06:56:00     -111.285      -76.278       -7.840       55.147       44.208       29.634     3041.196     1954.349      878.149        1.207        0.294      134.917       24.251        0.032      342.984       18.776      862.041
07/08/2013  06:57:00     -130.552      -84.488       -3.517       51.794       36.483       21.829     2682.665     1331.042      476.503        1.434        0.225      155.506       22.114        0.020      342.972       18.756      862.044
07/08/2013  06:58:00      -95.722      -64.882       -1.476       33.725       25.231       17.043     1137.382      636.586      290.452        0.772        0.103      115.638       16.176        0.020      343.009       18.819      862.048
07/08/2013  06:59:00     -101.899      -73.087       -1.331       33.805       36.094       21.495     1142.783     1302.745      462.051        0.932        0.145      125.400       23.033        0.034      343.046       18.882      862.052
07/08/2013  07:00:00     -118.483      -95.194       -5.487       39.171       35.783       29.588     1534.338     1280.409      875.464        1.341        0.185      151.987       26.004        0.029      343.054       18.895      862.062
07/08/2013  07:01:00      -74.059      -37.211       -3.762       36.415       32.263       21.426     1326.030     1040.914      459.089        0.485        0.141       82.882       21.999        0.070      343.125       19.016      862.060
07/08/2013  07:02:00      -82.991      -44.879       -3.729       44.845       29.354       23.389     2011.109      861.656      547.024        0.617        0.171       94.348       26.690        0.080      343.263       19.252      862.077
07/08/2013  07:03:00     -112.638      -28.318       -2.183       36.086       33.562       19.086     1302.206     1126.434      364.272        0.814        0.140      116.143       16.657        0.021      343.255       19.238      862.094
07/08/2013  07:04:00      -60.896      -67.147       -0.555       37.043       52.670       22.368     1372.182     2774.136      500.312        0.643        0.232       90.648       27.045        0.089      343.300       19.315      862.115
07/08/2013  07:05:00      -41.112      -53.080       -2.179       41.905       30.095       22.150     1756.065      905.725      490.634        0.383        0.158       67.139       20.541        0.094      343.333       19.369      862.129
07/08/2013  07:06:00      -55.534      -84.067       -1.959       31.887       29.925       17.659     1016.804      895.483      311.846        0.619        0.111      100.754       14.148        0.020      343.341       19.384      862.143
07/08/2013  07:07:00      -61.401      -92.570       -6.589       19.834       18.991       13.643      393.392      360.647      186.132        0.666        0.047      111.082        8.941        0.006      343.384       19.458      862.153
07/08/2013  07:08:00      -79.170      -73.460       -8.569       20.395       22.617       10.753      415.953      511.544      115.624        0.639        0.052      108.001       10.085        0.009      343.387       19.464      862.167
07/08/2013  07:09:00      -73.169      -71.800       -6.888       26.019       16.533       15.682      676.986      273.333      245.930        0.588        0.060      102.513       16.147        0.025      343.441       19.555      862.167
07/08/2013  07:10:00      -75.695      -76.460       -5.793       19.318       33.568       16.444      373.199     1126.796      270.408        0.669        0.089      107.591       13.639        0.016      343.458       19.584      862.168
07/08/2013  07:11:00      -29.650      -29.669        5.502       22.570       19.066       14.842      509.424      363.499      220.278        0.144        0.055       41.945       14.783        0.124      343.550       19.741      862.177
07/08/2013  07:12:00      -36.190      -18.471        0.954       16.015       26.404       13.050      256.471      697.169      170.313        0.139        0.056       40.632       13.693        0.114      343.561       19.760      862.175
07/08/2013  07:13:00      -27.184       -2.184        3.844       16.049       11.096        8.533      257.560      123.114       72.805        0.061        0.023       27.271        7.295        0.072      343.742       20.069      862.188
07/08/2013  07:14:00      -63.598      -13.992       -2.089       15.593       14.154       12.260      243.157      200.322      150.320        0.242        0.030       65.119       11.532        0.031      343.601       19.829      862.196
07/08/2013  07:15:00      -50.256       -3.556        2.118       11.107       15.241        9.625      123.355      232.297       92.649        0.150        0.022       50.381        3.412        0.005      343.637       19.889      862.215
07/08/2013  07:16:00      -25.497      -42.042        2.620       33.650       31.830       17.882     1132.299     1013.134      319.757        0.244        0.123       49.170       13.316        0.073      343.836       20.228      862.227
07/08/2013  07:17:00      -21.091      -64.219       -0.722       41.804       33.869       20.991     1747.587     1147.125      440.606        0.395        0.167       67.594       22.868        0.114      343.726       20.039      862.242
07/08/2013  07:18:00      -22.899      -68.326       -7.540       33.054       35.441       19.855     1092.539     1256.048      394.204        0.400        0.137       72.061       10.937        0.023      343.699       19.994      862.239
07/08/2013  07:19:00      -27.486      -65.037       10.352       35.638       31.098       24.802     1270.044      967.066      615.131        0.397        0.143       70.607       21.248        0.091      343.758       20.096      862.241
07/08/2013  07:20:00      -69.450      -79.720       -6.303       32.907       21.235       16.470     1082.848      450.906      271.245        0.651        0.090      105.729       16.941        0.026      343.644       19.900      862.247
07/08/2013  07:21:00      -93.624      -80.392      -11.806       23.581       24.607       19.290      556.048      605.514      372.111        0.845        0.077      123.403       12.833        0.011      343.652       19.916      862.239
07/08/2013  07:22:00      -47.095      -55.161        8.271       27.144       28.098       24.784      736.770      789.484      614.223        0.373        0.107       72.530       16.580        0.052      343.727       20.041      862.251
07/08/2013  07:23:00      -63.558      -99.056       -7.430       26.987       19.271       14.918      728.291      371.382      222.556        0.761        0.066      117.693       11.746        0.010      343.683       19.966      862.251
07/08/2013  07:24:00      -65.493      -89.294      -13.589       30.274       31.628       15.044      916.540     1000.319      226.312        0.729        0.107      110.738       14.321        0.017      343.714       20.021      862.252
07/08/2013  07:25:00      -64.979     -102.121       -9.927       34.904       23.370       19.498     1218.281      546.148      380.189        0.845        0.107      121.041        8.892        0.005      343.748       20.078      862.261
07/08/2013  07:26:00      -59.365      -37.908        5.344       68.463       33.479       27.747     4687.177     1120.863      769.880        0.578        0.329       70.436       25.740        0.134      343.779       20.130      862.264
07/08/2013  07:27:00      -84.302      -75.776      -25.708       41.113       46.348       19.991     1690.292     2148.149      399.645        0.887        0.212      113.353       15.302        0.018      343.580       19.791      862.269
07/08/2013  07:28:00      -50.052      -87.178       -5.924       31.597       26.061       20.233      998.402      679.199      409.392        0.611        0.104      100.525       11.841        0.014      343.600       19.825      862.270
07/08/2013  07:29:00      -45.465      -48.583        6.830       44.587       37.350       28.274     1988.031     1395.048      799.439        0.433        0.209       66.539       24.842        0.139      343.781       20.134      862.268
07/08/2013  07:30:00      -78.326      -84.548       -3.018       41.755       22.737       21.633     1743.441      516.954      467.977        0.801        0.136      115.254       21.503        0.035      343.653       19.917      862.265
07/08/2013  07:31:00      -47.985      -38.043        9.266       32.572       28.206       14.800     1060.944      795.587      219.051        0.296        0.104       61.236       13.130        0.046      343.775       20.124      862.265
07/08/2013  07:32:00      -36.652      -46.617        5.100       24.534       40.256       21.685      601.917     1620.551      470.248        0.312        0.135       59.300       18.689        0.099      343.768       20.113      862.272
07/08/2013  07:33:00      -66.760      -99.488       -2.943       24.742       52.260       19.591      612.186     2731.100      383.797        0.904        0.186      119.811       11.513        0.009      343.692       19.983      862.282
07/08/2013  07:34:00      -87.955      -82.882        4.680       57.723       37.713       29.452     3331.978     1422.246      867.401        1.012        0.281      120.853       31.279        0.067      343.744       20.070      862.295
07/08/2013  07:35:00      -81.850      -57.043       -5.406       33.693       44.919       28.350     1135.221     2017.744      803.709        0.697        0.198       99.766       19.884        0.040      343.735       20.056      862.308
07/08/2013  07:36:00      -59.570      -54.196        6.735       54.511       58.419       32.540     2971.400     3412.763     1058.871        0.699        0.372       80.534       25.567        0.101      343.666       19.938      862.315
07/08/2013  07:37:00      -88.157      -51.241       -3.460       42.670       31.316       26.271     1820.707      980.672      690.166        0.695        0.175      101.967       13.508        0.018      343.656       19.920      862.318
07/08/2013  07:38:00      -41.883      -46.550        9.869       35.004       42.926       22.347     1225.303     1842.614      499.396        0.379        0.178       62.619       24.498        0.153      343.753       20.087      862.319
07/08/2013  07:39:00      -79.085      -61.447       -5.778       38.913       25.378       18.290     1514.210      644.039      334.537        0.628        0.125      100.151       15.817        0.025      343.669       19.943      862.323
07/08/2013  07:40:00      -89.912      -76.161        0.432       47.436       33.458       23.460     2250.168     1119.438      550.372        0.890        0.196      117.833       26.782        0.052      343.663       19.933      862.344
07/08/2013  07:41:00     -107.357      -97.032      -10.862       27.860       30.621       16.201      776.170      937.615      262.485        1.152        0.099      144.709       10.812        0.006      343.637       19.888      862.357
07/08/2013  07:42:00      -74.871      -55.104       16.611       70.520       37.954       33.668     4973.047     1440.526     1133.534        0.823        0.377       92.963       37.384        0.162      343.783       20.139      862.356
07/08/2013  07:43:00      -66.462      -61.767        1.819       41.350       51.463       24.187     1709.847     2648.485      585.026        0.659        0.247       90.732       29.503        0.106      343.750       20.081      862.358
07/08/2013  07:44:00      -67.126      -37.569        4.909       35.267       33.240       17.507     1243.788     1104.885      306.501        0.430        0.133       76.924       15.605        0.041      343.802       20.171      862.352
07/08/2013  07:45:00      -43.695      -41.084       -1.230       36.319       33.086       22.529     1319.062     1094.654      507.537        0.326        0.146       59.976       15.094        0.063      343.871       20.289      862.350
07/08/2013  07:46:00      -31.612      -10.376        5.679       49.301       23.523       24.117     2430.581      553.338      581.608        0.235        0.178       33.272       14.207        0.182      344.179       20.814      862.356
07/08/2013  07:47:00      -70.881       -8.638       -1.311       48.826       26.454       24.873     2383.961      699.795      618.659        0.440        0.185       71.406       27.530        0.149      344.108       20.695      862.352
07/08/2013  07:48:00      -62.021      -34.003       -0.209       42.789       30.882       23.628     1830.905      953.710      558.274        0.417        0.167       70.730       22.419        0.100      343.898       20.335      862.364
07/08/2013  07:49:00      -29.567       14.538        3.975       17.361       16.927       18.607      301.398      286.537      346.205        0.102        0.047       32.948       10.315        0.098      343.992       20.493      862.362
07/08/2013  07:50:00      -17.435      -14.417        6.285       18.576       17.165       20.273      345.072      294.635      410.977        0.080        0.053       22.624       15.163        0.449      344.166       20.791      862.371
07/08/2013  07:51:00      -31.465       15.100       22.748       24.489       24.972       18.828      599.724      623.576      354.493        0.166        0.079       34.901        9.251        0.070      344.274       20.976      862.379
07/08/2013  07:52:00      -24.235      -18.874        6.370       27.364       33.283       22.950      748.812     1107.771      526.689        0.168        0.119       30.718       21.901        0.508      344.537       21.427      862.389
07/08/2013  07:53:00      -54.110      -40.479        0.679       33.728       28.905       20.118     1137.565      835.484      404.721        0.347        0.119       67.575       13.500        0.040      344.034       20.568      862.408
07/08/2013  07:54:00      -68.882      -28.929       -0.037       21.757       26.949       18.784      473.359      726.247      352.822        0.357        0.078       74.710       13.486        0.033      344.046       20.586      862.415
07/08/2013  07:55:00      -50.210       -9.077       -3.173       19.837       21.620       11.209      393.492      467.443      125.642        0.180        0.049       51.024       11.262        0.049      344.031       20.562      862.418
07/08/2013  07:56:00      -37.131       11.825        4.402       22.197       15.429       16.128      492.722      238.042      260.099        0.126        0.050       38.969        7.487        0.037      344.296       21.016      862.415
07/08/2013  07:57:00      -41.360        7.584       11.508       33.930       25.302       19.917     1151.258      640.209      396.692        0.204        0.109       42.050       19.466        0.214      344.462       21.299      862.405
07/08/2013  07:58:00      -31.942      -19.710       -9.737       21.513       26.274       14.098      462.797      690.342      198.764        0.143        0.068       37.534       12.068        0.103      344.262       20.956      862.412
07/08/2013  07:59:00      -51.600      -13.529        0.280       18.184       17.552        8.683      330.664      308.059       75.402        0.178        0.036       53.344        7.044        0.017      344.256       20.944      862.417
07/08/2013  08:00:00      -22.149      -32.059        9.318       28.029       20.353       17.713      785.598      414.263      313.739        0.156        0.076       38.966       11.096        0.081      344.533       21.419      862.424
07/08/2013  08:01:00      -22.571      -21.213        2.498        8.849       10.624        9.746       78.296      112.869       94.991        0.063        0.014       30.975        5.366        0.030      344.280       20.986      862.435
07/08/2013  08:02:00      -36.145      -29.745        7.712       41.171       24.716       17.842     1695.014      610.880      318.323        0.244        0.131       46.810       20.140        0.185      344.737       21.769      862.435
07/08/2013  08:03:00      -23.946      -22.285       18.597       29.270       29.079       20.921      856.732      845.572      437.699        0.178        0.107       32.711       17.582        0.289      345.102       22.394      862.449
07/08/2013  08:04:00      -22.113      -10.361        6.151       22.558       22.494       18.737      508.847      505.972      351.074        0.100        0.068       24.420       18.219        0.557      344.814       21.901      862.448
07/08/2013  08:05:00      -51.559      -15.544       -4.046       21.339       17.650       13.529      455.358      311.515      183.021        0.193        0.047       53.852       10.681        0.039      344.541       21.433      862.445
07/08/2013  08:06:00      -33.977      -16.940       -0.879       20.671       14.657       12.802      427.308      214.837      163.891        0.112        0.040       37.966       11.474        0.091      344.708       21.721      862.437
07/08/2013  08:07:00        1.079       -1.489        9.374       24.321       20.289       27.615      591.528      411.650      762.576        0.093        0.088        1.839       19.393      111.189      345.080       22.357      862.439
07/08/2013  08:08:00        5.245      -68.492        5.087       30.175       29.882       24.612      910.535      892.946      605.740        0.358        0.120       68.693       19.571        0.081      344.809       21.891      862.448
07/08/2013  08:09:00       -6.465      -28.306        8.455       32.477       25.719       23.981     1054.756      661.455      575.076        0.160        0.115       29.035        9.714        0.112      344.993       22.207      862.446
07/08/2013  08:10:00      -25.799       16.055       14.240       23.671       19.684       23.602      560.296      387.470      557.057        0.132        0.075       30.387       16.450        0.293      345.173       22.515      862.442
07/08/2013  08:11:00      -21.393       -0.123       10.139       18.216       21.282       20.431      331.814      452.936      417.440        0.088        0.060       21.393       14.375        0.452      345.168       22.506      862.444
07/08/2013  08:12:00      -56.565      -34.540        5.676       37.186       43.949       23.853     1382.797     1931.521      568.983        0.415        0.194       66.276       25.029        0.143      345.024       22.261      862.449
07/08/2013  08:13:00      -35.155      -26.014        0.725       21.556       32.811       12.167      464.677     1076.578      148.024        0.180        0.084       43.734       15.186        0.121      344.702       21.710      862.445
07/08/2013  08:14:00      -15.012      -13.464        4.845       19.233       16.199       14.508      369.927      262.413      210.478        0.064        0.042       20.166       11.457        0.323      345.050       22.304      862.447
07/08/2013  08:15:00      -30.435      -15.060        6.089       23.373       35.005       21.342      546.274     1225.372      455.488        0.171        0.111       33.957       18.317        0.291      345.204       22.568      862.441
07/08/2013  08:16:00      -42.920      -21.888       15.136       28.511       41.037       24.106      812.873     1684.015      581.087        0.281        0.154       48.179       22.709        0.222      345.090       22.373      862.446
07/08/2013  08:17:00      -37.830      -28.803        2.829       31.360       29.633       24.251      983.478      878.121      588.089        0.236        0.122       47.547       20.851        0.192      345.229       22.610      862.446
07/08/2013  08:18:00      -46.463      -21.833        1.543       42.409       35.103       26.294     1798.544     1232.192      691.373        0.318        0.186       51.337       21.431        0.174      345.182       22.530      862.460
07/08/2013  08:19:00      -98.368      -68.422       -0.408       42.312       28.907       15.842     1790.276      835.611      250.967        0.862        0.144      119.824       11.949        0.010      344.739       21.772      862.469
07/08/2013  08:20:00      -20.734       -6.278       12.208       24.448       23.153       22.313      597.686      536.058      497.891        0.112        0.082       21.664       15.961        0.543      345.421       22.940      862.481
07/08/2013  08:21:00      -24.783      -20.752        8.701       27.267       29.666       17.468      743.474      880.076      305.125        0.152        0.096       32.324       19.452        0.362      345.232       22.617      862.490
07/08/2013  08:22:00      -38.209      -57.258        0.375       18.950       56.717       18.118      359.120     3216.776      328.269        0.432        0.195       68.836       16.339        0.056      344.929       22.096      862.496
07/08/2013  08:23:00      -52.364      -15.535        5.858       37.222       24.364       21.293     1385.456      593.622      453.373        0.272        0.122       54.619       22.848        0.175      345.251       22.650      862.492
07/08/2013  08:24:00      -25.700       -0.072       13.320       19.540       22.877       18.025      381.823      523.343      324.894        0.103        0.062       25.700       16.126        0.394      345.700       23.420      862.491
07/08/2013  08:25:00      -56.189      -36.813       -2.461       23.535       42.987       19.910      553.877     1847.924      396.399        0.366        0.140       67.174       21.545        0.103      344.972       22.171      862.498
07/08/2013  08:26:00      -26.033       -6.945       15.153       33.026       17.445       23.081     1090.721      304.315      532.743        0.144        0.096       26.944       22.032        0.669      345.436       22.966      862.492
07/08/2013  08:27:00      -47.048      -48.087       -5.881       34.212       47.691       24.257     1170.482     2274.417      588.382        0.430        0.202       67.275       15.290        0.052      345.066       22.332      862.490
07/08/2013  08:28:00      -14.583       16.780       36.603       18.962       23.180       17.940      359.550      537.324      321.836        0.153        0.061       22.232       11.288        0.258      346.255       24.372      862.481
07/08/2013  08:29:00      -16.503        6.507       29.506       15.677       20.593       21.434      245.767      424.090      459.396        0.116        0.056       17.740       17.357        0.957      345.931       23.815      862.493
07/08/2013  08:30:00      -18.890       28.299       40.921       16.981       31.877       27.471      288.352     1016.129      754.654        0.245        0.103       34.025       11.998        0.124      345.903       23.768      862.498
07/08/2013  08:31:00      -12.002       15.680       34.302       13.504       22.538       18.384      182.364      507.954      337.985        0.130        0.051       19.746        7.895        0.160      346.295       24.440      862.507
07/08/2013  08:32:00      -16.197        0.260       27.910       17.251       26.331       25.689      297.603      693.318      659.926        0.135        0.083       16.200       22.827        1.986      346.008       23.948      862.519
07/08/2013  08:33:00      -17.878      -23.494       15.896       20.790       28.647       22.164      432.218      820.675      491.259        0.143        0.087       29.523       17.490        0.351      345.660       23.350      862.529
07/08/2013  08:34:00       11.720       -2.671       44.641       33.083       42.696       36.672     1094.465     1822.970     1344.799        0.320        0.213       12.020       33.332        7.690      346.256       24.375      862.529
07/08/2013  08:35:00       23.959       18.695       39.605       40.835       26.806       23.920     1667.513      718.586      572.172        0.272        0.148       30.390       16.757        0.304      345.983       23.904      862.543
07/08/2013  08:36:00       33.203       38.387       50.470       42.592       30.510       26.617     1814.083      930.833      708.446        0.429        0.173       50.755       22.207        0.191      345.792       23.577      862.551
07/08/2013  08:37:00        5.091        0.576       30.663       36.417       33.820       34.956     1326.223     1143.777     1221.905        0.233        0.185        5.123       25.935       25.625      346.076       24.065      862.557
07/08/2013  08:38:00      -13.048       -3.487       37.855       33.332       33.171       27.306     1111.003     1100.291      745.614        0.229        0.148       13.506       28.619        4.490      345.854       23.682      862.562
07/08/2013  08:39:00      -99.087     -113.813        1.617       22.598       27.993       25.462      510.675      783.606      648.304        1.236        0.097      150.903        8.768        0.003      345.178       22.522      862.568
07/08/2013  08:40:00      -29.607      -68.143       21.077       28.404       37.153       25.187      806.801     1380.325      634.396        0.439        0.141       74.296       20.365        0.075      345.624       23.287      862.580
07/08/2013  08:41:00      -26.612        6.270       10.742       14.975       25.545       12.344      224.236      652.534      152.386        0.095        0.051       27.341        6.429        0.055      345.435       22.962      862.591
07/08/2013  08:42:00      -46.997        1.983       -1.439       15.943       18.076       13.303      254.166      326.729      176.967        0.149        0.038       47.039       10.902        0.054      345.392       22.890      862.595
07/08/2013  08:43:00      -26.673        2.579        4.020       27.358       20.188       15.433      748.435      407.538      238.184        0.106        0.070       26.798        8.316        0.096      345.850       23.673      862.601
07/08/2013  08:44:00      -12.838        2.050       19.756       19.496       11.745       18.148      380.106      137.937      329.345        0.070        0.042       13.001        7.781        0.358      346.296       24.444      862.610
07/08/2013  08:45:00      -24.152       -3.387        6.710       18.739       15.642       18.704      351.139      244.676      349.852        0.079        0.047       24.388       12.876        0.279      345.972       23.886      862.616
07/08/2013  08:46:00       -1.684      -15.996       10.295       23.843       17.840       17.507      568.497      318.274      306.497        0.078        0.060       16.085       11.665        0.526      345.820       23.623      862.614
07/08/2013  08:47:00      -38.316      -21.588       -0.699       14.606       22.487       17.818      213.333      505.678      317.496        0.149        0.052       43.979       12.825        0.085      345.664       23.358      862.618
07/08/2013  08:48:00      -15.182        0.691       11.831       12.366       15.760       11.305      152.927      248.384      127.811        0.045        0.026       15.198        5.997        0.156      346.112       24.127      862.625
07/08/2013  08:49:00      -31.448        5.474       -0.490       12.062       10.536        8.856      145.485      111.017       78.435        0.068        0.017       31.921        7.398        0.054      345.535       23.134      862.627
07/08/2013  08:50:00        3.594       35.935       26.817       30.386       26.037       21.556      923.326      677.914      464.662        0.204        0.103       36.115       14.613        0.164      346.090       24.088      862.631
07/08/2013  08:51:00      -18.692       16.244       33.905       19.992       18.775       16.939      399.677      352.515      286.940        0.140        0.052       24.764       15.314        0.382      346.272       24.401      862.629
07/08/2013  08:52:00       22.906      -12.547       41.401       43.738       51.412       40.331     1913.017     2643.240     1626.626        0.429        0.309       26.117       40.419        2.395      346.394       24.613      862.615
07/08/2013  08:53:00       32.169      -26.846       27.709       40.746       67.792       31.834     1660.246     4595.812     1013.377        0.489        0.363       41.900       34.608        0.682      346.306       24.458      862.616
07/08/2013  08:54:00       45.986      -47.204       21.710       45.139       65.408       39.671     2037.538     4278.228     1573.790        0.635        0.394       65.901       35.993        0.298      346.237       24.341      862.614
07/08/2013  08:55:00       22.602       18.209       49.942       41.414       36.324       35.431     1715.085     1319.444     1255.370        0.381        0.214       29.025       18.664        0.413      346.451       24.709      862.626
07/08/2013  08:56:00       24.146       16.047       36.278       36.277       33.195       29.536     1316.056     1101.919      872.350        0.272        0.165       28.992       22.611        0.608      346.360       24.552      862.622
07/08/2013  08:57:00       20.606        0.283       37.392       35.712       46.391       25.948     1275.372     2152.122      673.273        0.296        0.205       20.608       24.837        1.453      346.546       24.872      862.614
07/08/2013  08:58:00       52.610       44.899       16.643       34.372       36.955       29.020     1181.439     1365.663      842.162        0.422        0.169       69.164       18.766        0.074      346.272       24.400      862.615
07/08/2013  08:59:00       71.259       48.611       25.531       51.342       32.963       36.583     2635.969     1086.549     1338.322        0.658        0.253       86.261       30.903        0.128      346.348       24.530      862.599
07/08/2013  09:00:00       48.850       56.809       49.211       50.311       42.376       39.159     2531.183     1795.732     1533.411        0.695        0.293       74.923       26.755        0.128      346.198       24.274      862.608
07/08/2013  09:01:00       -2.854      -12.893       25.079       33.366       39.574       31.130     1113.260     1566.120      969.094        0.223        0.182       13.205       22.050        2.788      346.705       25.145      862.602
07/08/2013  09:02:00       20.456        4.765       47.187       33.206       30.490       31.551     1102.648      929.647      995.465        0.285        0.151       21.003       12.236        0.339      346.823       25.347      862.608
07/08/2013  09:03:00       14.316       18.188       54.880       34.522       49.329       33.476     1191.799     2433.321     1120.648        0.415        0.237       23.146       22.738        0.965      346.587       24.943      862.605
07/08/2013  09:04:00       23.686       -8.535       51.477       34.675       59.192       38.362     1202.382     3503.687     1471.610        0.473        0.309       25.176       40.074        2.534      346.284       24.421      862.604
07/08/2013  09:05:00       30.594       10.679       13.992       32.192       52.148       24.368     1036.346     2719.412      593.814        0.280        0.217       32.404       25.953        0.641      346.441       24.691      862.614
07/08/2013  09:06:00       44.095       72.412        3.021       29.364       26.903       25.696      862.262      723.792      660.270        0.472        0.112       84.782       17.285        0.042      346.171       24.226      862.603
07/08/2013  09:07:00       50.467       62.257        0.564       25.182       29.111       25.191      634.131      847.440      634.586        0.427        0.106       80.143       19.786        0.061      345.988       23.912      862.604
07/08/2013  09:08:00       60.681       49.334       25.307       29.992       24.251       24.863      899.511      588.090      618.157        0.443        0.105       78.205       14.186        0.033      346.032       23.986      862.605
07/08/2013  09:09:00       -4.267       -9.275        2.184       23.010       29.822       25.648      529.465      889.337      657.806        0.109        0.104       10.209       17.879        3.067      346.236       24.339      862.591
07/08/2013  09:10:00        7.695        1.911       24.331       14.285       15.277       17.544      204.074      233.387      307.793        0.070        0.037        7.928       11.788        2.211      347.210       26.015      862.587
07/08/2013  09:11:00       -6.704       -8.869       27.644       14.696       29.028       18.001      215.974      842.639      324.024        0.113        0.069       11.117        9.250        0.692      347.118       25.858      862.584
07/08/2013  09:12:00       49.408       64.103        9.406       39.551       45.350       40.827     1564.318     2056.579     1666.808        0.596        0.264       80.934       31.502        0.152      346.674       25.093      862.578
07/08/2013  09:13:00       78.561       67.387        4.148       43.936       38.865       30.154     1930.372     1510.479      909.242        0.754        0.218      103.503       25.524        0.061      346.526       24.838      862.575
07/08/2013  09:14:00       74.114       48.878        0.434       42.990       27.386       24.323     1848.177      749.992      591.588        0.554        0.159       88.780       20.564        0.054      346.176       24.234      862.579
07/08/2013  09:15:00       30.008       62.207       -1.274       29.580       25.561       24.884      874.971      653.373      619.227        0.346        0.107       69.067       12.246        0.031      346.448       24.704      862.571
07/08/2013  09:16:00       -9.773       94.308        4.890       19.345       45.933       30.237      374.211     2109.829      914.271        0.621        0.170       94.813       18.969        0.040      346.722       25.175      862.570
07/08/2013  09:17:00       -6.915        8.638       22.923       18.288       26.038       20.554      334.458      678.001      422.481        0.104        0.072       11.065       16.704        2.279      347.159       25.927      862.570
07/08/2013  09:18:00       -2.917       20.736       17.405       13.840       30.456       19.768      191.543      927.595      390.775        0.113        0.075       20.940       20.529        0.961      347.025       25.697      862.587
07/08/2013  09:19:00      -10.396       44.134        2.118       15.772       28.037       24.917      248.763      786.092      620.845        0.186        0.083       45.342       17.694        0.152      346.729       25.188      862.593
07/08/2013  09:20:00      -10.990        5.225       18.954       26.875       15.448       18.273      722.274      238.653      333.912        0.090        0.065       12.169       14.553        1.430      347.055       25.749      862.608
07/08/2013  09:21:00      -24.023      -21.870        2.071       17.431       22.622       12.830      303.840      511.755      164.605        0.102        0.049       32.487        7.688        0.056      346.151       24.193      862.603
07/08/2013  09:22:00      -29.164       -1.251       13.927       15.109       18.440       14.704      228.287      340.017      216.221        0.092        0.039       29.191       10.402        0.127      346.460       24.724      862.604
07/08/2013  09:23:00        1.362        8.974       15.763       35.507       17.362       23.255     1260.717      301.455      540.773        0.122        0.105        9.077       24.074        7.034      347.110       25.843      862.595
07/08/2013  09:24:00       97.160       44.627       24.704       59.547       35.158       38.108     3545.899     1236.084     1452.193        0.914        0.312      106.919       25.766        0.058      346.699       25.136      862.593
07/08/2013  09:25:00      144.267       68.561        7.837       37.563       33.042       28.169     1410.965     1091.795      793.472        1.443        0.165      159.730       12.855        0.006      346.142       24.177      862.588
07/08/2013  09:26:00       50.876       58.632       18.161       34.259       30.949       28.651     1173.688      957.823      820.862        0.465        0.148       77.628       11.095        0.020      346.305       24.458      862.582
07/08/2013  09:27:00       38.841       13.154       -9.921       21.329       26.543       33.493      454.935      704.526     1121.791        0.203        0.114       41.008       14.537        0.126      346.569       24.911      862.584
07/08/2013  09:28:00      -16.492       19.481        5.652       22.385       24.855       18.655      501.086      617.776      347.991        0.107        0.073       25.525       15.624        0.375      346.921       25.518      862.587
07/08/2013  09:29:00      -46.285       -3.286       -1.203       13.115       13.312       11.504      172.004      177.211      132.333        0.132        0.024       46.402        8.150        0.031      346.414       24.645      862.585
07/08/2013  09:30:00      -29.733      -16.150        0.588       22.807        9.047       11.588      520.156       81.842      134.278        0.094        0.037       33.836        6.470        0.037      346.591       24.949      862.583
07/08/2013  09:31:00      -24.742      -39.070        3.277       37.188       35.082       17.762     1382.945     1230.776      315.496        0.254        0.146       46.246        9.175        0.039      346.574       24.920      862.590
07/08/2013  09:32:00       -2.824      -91.492        0.149       37.099       26.922       31.201     1376.350      724.782      973.503        0.573        0.154       91.536       18.040        0.039      346.340       24.518      862.577
07/08/2013  09:33:00       15.731      -37.792       31.132       22.280       57.361       24.968      496.384     3290.286      623.396        0.353        0.221       40.935       22.285        0.296      346.929       25.531      862.574
07/08/2013  09:34:00        5.062       30.358       42.888       28.036       34.264       27.809      786.037     1173.995      773.322        0.276        0.137       30.777       24.857        0.652      347.248       26.080      862.562
07/08/2013  09:35:00       52.504     -104.845        3.383       39.688       35.677       30.637     1575.158     1272.848      938.652        0.877        0.189      117.257       21.913        0.035      346.526       24.835      862.560
07/08/2013  09:36:00       36.367      -21.605       12.360       37.192       46.052       23.695     1383.245     2120.820      561.473        0.300        0.203       42.301       22.862        0.292      346.875       25.438      862.548
07/08/2013  09:37:00        2.942       17.481       58.143       39.221       65.170       42.327     1538.299     4247.117     1791.544        0.563        0.379       17.727       42.136        5.650      347.050       25.739      862.550
07/08/2013  09:38:00       23.078       75.321       97.645       60.418       54.264       37.529     3650.381     2944.635     1408.414        1.187        0.400       78.777       31.288        0.158      346.864       25.418      862.548
07/08/2013  09:39:00       78.185      102.283       74.075       42.443       45.356       37.199     1801.404     2057.178     1383.799        1.365        0.262      128.743       27.847        0.047      346.492       24.779      862.551
07/08/2013  09:40:00       18.878       36.671       50.686       28.379       38.324       25.599      805.365     1468.693      655.323        0.360        0.146       41.245       21.925        0.283      347.130       25.876      862.560
07/08/2013  09:41:00       47.868      -20.239       13.531       32.569       31.758       29.623     1060.751     1008.585      877.550        0.291        0.147       51.971       22.422        0.186      346.774       25.263      862.566
07/08/2013  09:42:00       14.040      -85.855       -8.791       21.956       33.144       24.355      482.053     1098.498      593.164        0.491        0.109       86.996        5.995        0.005      346.647       25.045      862.566
07/08/2013  09:43:00       16.007      -84.901      -17.461       36.700       41.144       27.047     1346.876     1692.865      731.557        0.577        0.189       86.397       14.347        0.028      346.819       25.341      862.561
07/08/2013  09:44:00        0.633      -52.814       19.478       34.039       48.316       36.268     1158.623     2334.470     1315.366        0.399        0.240       52.818       30.388        0.331      347.283       26.141      862.557
07/08/2013  09:45:00       19.061      -93.064       -5.415       44.164       61.775       28.152     1950.502     3816.192      792.538        0.781        0.328       94.996       30.544        0.103      347.167       25.941      862.555
07/08/2013  09:46:00       19.368      -34.871       44.493       42.786       60.687       36.640     1830.623     3682.909     1342.484        0.521        0.343       39.889       35.237        0.780      347.482       26.483      862.552
07/08/2013  09:47:00       67.698       47.567       43.843       67.867       47.039       43.014     4605.967     2212.669     1850.215        0.872        0.433       82.738       29.487        0.127      346.964       25.592      862.555
07/08/2013  09:48:00       30.367       26.240       66.116       35.701       53.810       31.257     1274.547     2895.554      977.017        0.556        0.257       40.133       34.880        0.755      347.255       26.092      862.560
07/08/2013  09:49:00       20.874       36.896       60.589       38.007       32.899       29.186     1444.541     1082.366      851.806        0.442        0.169       42.391        9.970        0.055      347.344       26.244      862.559
07/08/2013  09:50:00       53.766       75.151       65.906       64.732       57.429       38.317     4190.261     3298.108     1468.174        1.092        0.448       92.403       35.223        0.145      347.215       26.023      862.545
07/08/2013  09:51:00        2.993       10.863       45.905       40.832       46.253       31.127     1667.275     2139.309      968.919        0.350        0.239       11.268       18.648        2.739      347.615       26.713      862.549
07/08/2013  09:52:00       48.399      -40.267       27.609       34.127       44.063       34.858     1164.653     1941.512     1215.090        0.452        0.216       62.959       29.093        0.214      346.879       25.444      862.554
07/08/2013  09:53:00       33.898       -8.472       28.704       36.737       23.113       22.115     1349.586      534.202      489.091        0.221        0.119       34.941        8.630        0.061      347.074       25.781      862.559
07/08/2013  09:54:00       10.058      -62.434       13.267       35.731       34.964       35.994     1276.735     1222.455     1295.581        0.398        0.190       63.239       21.998        0.121      347.078       25.788      862.540
07/08/2013  09:55:00        3.239       14.850       36.790       28.706       42.345       33.453      824.029     1793.118     1119.129        0.266        0.187       15.200       29.448        3.754      347.712       26.879      862.556
07/08/2013  09:56:00       -3.844       -9.793       25.657       21.150       20.120       20.469      447.323      404.832      418.974        0.102        0.064       10.521        9.514        0.818      347.784       27.006      862.552
07/08/2013  09:57:00       -4.959      -34.074       -4.341       25.283       31.227       26.169      639.223      975.146      684.836        0.175        0.115       34.433       13.115        0.145      347.083       25.795      862.556
07/08/2013  09:58:00      -40.871      -62.588        5.646       42.363       35.442       25.573     1794.656     1256.144      653.961        0.466        0.185       74.751       20.885        0.078      347.075       25.781      862.554
07/08/2013  09:59:00      -35.179      -38.392        8.290       33.296       30.157       23.274     1108.597      909.434      541.691        0.267        0.128       52.072       23.961        0.212      347.347       26.251      862.549
07/08/2013  10:00:00       -6.441      -47.783        9.192       30.401       30.143       23.140      924.218      908.577      535.465        0.239        0.118       48.215       19.917        0.171      347.365       26.282      862.540
07/08/2013  10:01:00      -40.990      -37.330        6.020       34.330       25.278       19.844     1178.519      638.963      393.771        0.266        0.111       55.441       23.393        0.178      347.247       26.078      862.532
07/08/2013  10:02:00      -19.981        2.882       17.299       26.087       18.724       20.189      680.528      350.581      407.595        0.107        0.072       20.188       17.372        0.741      347.642       26.762      862.529
07/08/2013  10:03:00      -16.974       -3.259        2.902       20.306       13.971       19.262      412.325      195.193      371.031        0.064        0.049       17.284        8.661        0.251      347.773       26.987      862.512
07/08/2013  10:04:00        2.894       10.884       20.927       15.730       16.142       18.374      247.447      260.579      337.601        0.071        0.042       11.262        9.191        0.666      348.284       27.869      862.506
07/08/2013  10:05:00       48.998       69.989       18.997       50.545       40.483       46.803     2554.797     1638.882     2190.510        0.702        0.319       85.435       33.211        0.151      347.666       26.800      862.502
07/08/2013  10:06:00       16.251       87.151       -4.845       49.069       55.210       38.018     2407.778     3048.183     1445.370        0.739        0.345       88.653       29.224        0.109      347.555       26.609      862.501
07/08/2013  10:07:00      -28.657       38.189        2.380       30.693       28.086       27.543      942.087      788.831      758.634        0.239        0.124       47.745       23.224        0.237      347.665       26.799      862.505
07/08/2013  10:08:00      -85.044       45.649      -19.582       21.532       28.183       17.199      463.616      794.279      295.807        0.563        0.078       96.521        9.836        0.010      346.917       25.509      862.502
07/08/2013  10:09:00     -125.470       51.147      -16.724       15.520       25.456       18.219      240.869      648.033      331.936        0.993        0.061      135.494        9.553        0.005      346.908       25.492      862.494
07/08/2013  10:10:00     -117.323       37.176       -7.924       24.815       31.138       22.073      615.769      969.544      487.197        0.864        0.104      123.072       11.157        0.008      347.018       25.684      862.493
07/08/2013  10:11:00      -98.752       93.701      -22.891       27.235       45.872       24.074      741.722     2104.200      579.580        1.124        0.171      136.132       13.623        0.010      347.168       25.943      862.490
07/08/2013  10:12:00     -116.312       26.586      -12.806       32.313       36.140       22.882     1044.149     1306.103      523.596        0.864        0.144      119.312       20.996        0.031      347.086       25.802      862.492
07/08/2013  10:13:00     -105.029       23.178       -3.865       27.527       23.988       16.642      757.759      575.444      276.945        0.660        0.081      107.556       11.744        0.012      347.126       25.870      862.484
07/08/2013  10:14:00      -58.879      -19.986        3.547       33.321       29.767       15.273     1110.279      886.094      233.250        0.305        0.111       62.179       15.501        0.062      347.442       26.414      862.485
07/08/2013  10:15:00      -26.583      -37.738        1.214       27.692       25.151       20.710      766.820      632.593      428.888        0.198        0.091       46.161       16.965        0.135      347.619       26.720      862.484
07/08/2013  10:16:00      -36.610      -17.021       10.812       16.489       23.447       14.982      271.877      549.774      224.468        0.140        0.052       40.373       11.706        0.084      347.481       26.482      862.469
07/08/2013  10:17:00      -36.760        1.788       -1.019       14.710       11.586       10.844      216.380      134.245      117.596        0.091        0.023       36.804        8.186        0.049      347.466       26.456      862.457
07/08/2013  10:18:00        2.168       13.965       30.367       36.672       29.460       24.529     1344.819      867.897      601.666        0.197        0.141       14.132       24.811        3.082      348.383       28.041      862.445
07/08/2013  10:19:00        2.443        6.693       18.706       26.739       36.927       26.332      714.984     1363.573      693.382        0.159        0.139        7.125       20.173        8.017      347.918       27.237      862.432
07/08/2013  10:20:00       68.066       38.337       11.761       55.863       34.653       27.742     3120.643     1200.858      769.617        0.567        0.255       78.120       16.047        0.042      348.167       27.667      862.427
07/08/2013  10:21:00       88.369       64.875       61.410       96.287       61.299       48.283     9271.100     3757.572     2331.289        1.557        0.768      109.626       22.322        0.041      348.173       27.675      862.419
07/08/2013  10:22:00      136.332       75.339       25.488       67.716       53.893       43.784     4585.424     2904.504     1916.998        1.716        0.470      155.764       19.468        0.016      347.350       26.255      862.422
07/08/2013  10:23:00      134.406      121.536       82.558       82.758       68.550       63.649     6848.845     4699.156     4051.249        2.762        0.780      181.207       54.908        0.092      347.625       26.727      862.406
07/08/2013  10:24:00       97.899      105.131       43.536       98.818       52.840       78.447     9764.928     2792.108     6153.891        2.062        0.936      143.655       67.600        0.221      347.759       26.961      862.417
07/08/2013  10:25:00       68.917       96.445       25.029       52.586       52.207       44.861     2765.286     2725.521     2012.533        1.109        0.375      118.537       31.847        0.072      347.731       26.912      862.410
07/08/2013  10:26:00       70.375       60.589       -1.148       45.244       42.351       30.875     2047.061     1793.602      953.238        0.671        0.240       92.864       18.370        0.039      347.768       26.978      862.413
07/08/2013  10:27:00       33.414       14.322        8.530       45.684       35.563       25.655     2087.056     1264.693      658.171        0.270        0.200       36.354       15.352        0.178      348.060       27.482      862.408
07/08/2013  10:28:00      -14.512       11.170       19.372       24.267       20.849       21.093      588.901      434.664      444.933        0.109        0.073       18.313       10.960        0.358      348.006       27.388      862.402
07/08/2013  10:29:00       11.007       33.117       51.430       43.360       42.649       41.941     1880.055     1818.960     1759.069        0.466        0.273       34.898       35.182        1.016      348.001       27.379      862.393
07/08/2013  10:30:00       37.617      -49.516        9.642       53.036       45.353       40.115     2812.847     2056.880     1609.217        0.522        0.324       62.184       31.003        0.249      347.737       26.925      862.386
07/08/2013  10:31:00        7.023      -68.818       22.841       21.099       51.113       31.435      445.176     2612.568      988.131        0.468        0.202       69.176       34.947        0.255      347.865       27.145      862.393
07/08/2013  10:32:00       31.909       24.938       25.860       35.558       29.901       23.572     1264.362      894.071      555.637        0.251        0.136       40.498       17.074        0.178      348.227       27.769      862.400
07/08/2013  10:33:00      131.562       69.108       16.470       56.098       51.405       41.445     3146.967     2642.511     1717.651        1.493        0.375      148.609       12.813        0.007      347.674       26.814      862.411
07/08/2013  10:34:00       87.816       68.876       49.293       64.999       44.884       47.216     4224.811     2014.584     2229.348        1.168        0.423      111.604       31.388        0.079      347.879       27.170      862.406
07/08/2013  10:35:00       89.688       71.849       25.837       61.157       40.971       50.973     3740.131     1678.591     2598.227        1.094        0.401      114.919       44.922        0.153      347.843       27.106      862.415
07/08/2013  10:36:00      138.304      104.927       16.790       56.300       36.179       46.518     3169.710     1308.906     2163.962        1.853        0.332      173.602       31.929        0.034      347.844       27.108      862.415
07/08/2013  10:37:00      108.271       96.099        9.158       50.538       35.186       32.627     2554.068     1238.061     1064.540        1.295        0.243      144.768       16.992        0.014      347.625       26.729      862.428
07/08/2013  10:38:00       24.530       44.991       17.130       38.235       23.917       27.526     1461.891      572.025      757.705        0.285        0.140       51.243       19.526        0.145      348.061       27.481      862.440
07/08/2013  10:39:00      -48.767       27.650       21.912       24.546       13.568       36.521      602.503      184.088     1333.795        0.287        0.106       56.060       14.220        0.064      347.812       27.054      862.443
07/08/2013  10:40:00       -1.936       13.739       32.274       26.647       19.864       23.781      710.082      394.564      565.518        0.145        0.084       13.875       18.698        1.816      348.668       28.532      862.447
07/08/2013  10:41:00      -13.746       21.386       19.610       26.857       25.074       17.879      721.303      628.700      319.666        0.135        0.083       25.423       13.466        0.281      348.607       28.428      862.440
07/08/2013  10:42:00      -17.505       25.509       30.450       49.810       26.058       24.252     2481.024      679.020      588.147        0.282        0.187       30.938       24.989        0.652      348.581       28.383      862.436
07/08/2013  10:43:00       -5.344       15.119       26.047       37.448       23.870       19.265     1402.341      569.763      371.152        0.164        0.117       16.035       18.594        1.345      348.568       28.361      862.442
07/08/2013  10:44:00      -20.651       30.696       24.897       32.888       30.293       24.872     1081.636      917.660      618.604        0.230        0.131       36.997       20.318        0.302      348.953       29.028      862.435
07/08/2013  10:45:00      -62.174      118.766        0.129       45.268       56.932       34.940     2049.167     3241.259     1220.775        1.224        0.326      134.056       34.677        0.067      348.186       27.699      862.433
07/08/2013  10:46:00      -50.373      113.484      -10.077       28.130       35.178       28.334      791.311     1237.521      802.799        0.917        0.142      124.161       19.185        0.024      348.155       27.646      862.416
07/08/2013  10:47:00      -18.296       95.148        9.157       27.246       49.758       29.682      742.321     2475.903      881.005        0.678        0.205       96.891       26.099        0.073      348.726       28.635      862.418
07/08/2013  10:48:00      -24.727       31.015       26.046       27.741       29.763       28.577      769.576      885.831      816.620        0.236        0.124       39.665       23.982        0.366      348.908       28.948      862.419
07/08/2013  10:49:00       23.277       41.935       33.890       48.069       44.697       28.219     2310.582     1997.849      796.291        0.428        0.255       47.962       19.662        0.168      348.508       28.256      862.415
07/08/2013  10:50:00     -102.957      -49.125        4.021       52.122       55.044       36.020     2716.716     3029.843     1297.432        1.004        0.352      114.077       30.076        0.070      348.172       27.674      862.418
07/08/2013  10:51:00     -125.232      -74.456       -6.495       63.807       43.415       37.535     4071.275     1884.898     1408.841        1.432        0.368      145.694       26.619        0.033      347.893       27.192      862.407
07/08/2013  10:52:00      -41.273      -74.946       16.148       63.149       49.028       30.562     3987.775     2403.733      934.022        0.745        0.366       85.559       36.822        0.185      348.097       27.546      862.409
07/08/2013  10:53:00      -74.857      -71.884       -8.671       43.284       58.222       25.090     1873.492     3389.823      629.528        0.837        0.295      103.783       18.760        0.033      347.746       26.937      862.408
07/08/2013  10:54:00      -37.227      -50.394       17.739       56.232       70.548       40.738     3162.093     4977.010     1659.600        0.702        0.490       62.653       42.864        0.468      348.328       27.944      862.408
07/08/2013  10:55:00      -69.795      -51.315       -6.131       77.169       57.301       33.413     5954.987     3283.366     1116.446        0.895        0.518       86.629       26.600        0.094      348.044       27.454      862.413
07/08/2013  10:56:00       -2.796       -2.898       16.341       43.553       47.159       43.216     1896.822     2223.961     1867.661        0.313        0.299        4.027       35.893       79.429      348.357       27.995      862.407
07/08/2013  10:57:00      -16.145       -3.055       12.533       40.534       45.712       32.195     1643.019     2089.617     1036.543        0.260        0.238       16.431       22.676        1.905      348.446       28.149      862.410
07/08/2013  10:58:00      -12.022       16.197       17.812       26.700       31.432       25.294      712.903      987.965      639.779        0.153        0.117       20.171       21.423        1.128      348.524       28.284      862.397
07/08/2013  10:59:00      -44.453      -17.638        6.151       20.891       25.605       15.820      436.454      655.608      250.264        0.183        0.067       47.824       16.532        0.119      348.307       27.907      862.392
07/08/2013  11:00:00      -35.282      -18.727        4.695       29.733       16.485       22.231      884.074      271.741      494.196        0.163        0.083       39.944       18.013        0.203      348.379       28.033      862.397
07/08/2013  11:01:00      -34.181      -15.269       26.039       53.171       54.941       37.183     2827.106     3018.505     1382.557        0.465        0.361       37.437       39.481        1.112      348.730       28.641      862.393
07/08/2013  11:02:00       -7.735      -76.848      -11.306       49.452       66.585       42.246     2445.473     4433.499     1784.695        0.738        0.433       77.236       35.715        0.214      348.609       28.430      862.393
07/08/2013  11:03:00      -94.589      -52.442      -10.670       35.809       49.513       27.903     1282.259     2451.551      778.605        0.816        0.226      108.154       17.770        0.027      348.125       27.594      862.399
07/08/2013  11:04:00      -65.849      -12.496        0.186       42.641       27.613       26.530     1818.239      762.490      703.861        0.389        0.164       67.024       24.649        0.135      348.355       27.992      862.388
07/08/2013  11:05:00      -65.664      -23.025        2.136       37.999       34.051       33.969     1443.949     1159.478     1153.879        0.430        0.188       69.584       24.370        0.123      348.685       28.563      862.383
07/08/2013  11:06:00        0.575      -20.570       15.005       57.423       29.862       30.552     3297.346      891.711      933.431        0.288        0.256       20.578       18.497        0.808      348.667       28.532      862.381
07/08/2013  11:07:00       30.791       46.636       17.488       31.739       45.930       29.739     1007.363     2109.604      884.429        0.371        0.200       55.884       16.470        0.087      348.434       28.127      862.386
07/08/2013  11:08:00      119.049      102.534       59.242       72.022       54.613       67.496     5187.114     2982.547     4555.777        2.046        0.636      157.118       43.167        0.075      348.500       28.240      862.360
07/08/2013  11:09:00       43.412       42.104       78.046       88.659       91.848       67.749     7860.501     8436.073     4589.993        1.531        1.044       60.476       59.947        0.983      348.780       28.724      862.346
07/08/2013  11:10:00      101.426      181.207      161.784      128.506       85.404       82.910    16513.727     7293.792     6874.086        4.998        1.534      207.662       83.537        0.162      348.181       27.686      862.337
07/08/2013  11:11:00       79.665       49.309       81.326       65.544      102.710       72.373     4295.982    10549.440     5237.803        1.773        1.004       93.690       80.872        0.745      348.362       28.002      862.350
07/08/2013  11:12:00       65.562      -35.909       44.278       63.494      100.185       57.072     4031.454    10037.016     3257.246        1.243        0.866       74.752       65.844        0.776      348.428       28.119      862.335
07/08/2013  11:13:00       16.901       20.369       80.073       45.188       84.327       43.629     2041.977     7111.101     1903.514        0.908        0.553       26.468       45.809        2.995      348.854       28.852      862.327
07/08/2013  11:14:00       -2.134      -29.441       45.910       38.681       64.081       37.965     1496.213     4106.314     1441.306        0.501        0.352       29.518       23.815        0.651      348.945       29.012      862.323
07/08/2013  11:15:00       25.121     -123.513      -32.173       65.084       65.577       35.156     4235.942     4300.288     1235.913        1.334        0.489      126.042       33.077        0.069      348.541       28.312      862.325
07/08/2013  11:16:00       -8.654     -139.731      -20.169       62.652      108.018       47.450     3925.300    11667.858     2251.517        1.892        0.892      139.999       40.871        0.085      348.649       28.497      862.326
07/08/2013  11:17:00       52.392     -143.385        3.596       67.143       64.550       37.728     4508.191     4166.737     1423.406        1.671        0.505      152.657       40.440        0.070      348.086       27.524      862.335
07/08/2013  11:18:00        3.263       37.286       73.080       38.151       46.403       31.739     1455.487     2153.195     1007.334        0.568        0.231       37.428       22.797        0.371      348.931       28.989      862.335
07/08/2013  11:19:00       39.294      -13.219       36.475       35.012       35.856       26.998     1225.806     1285.684      728.903        0.314        0.162       41.457       24.627        0.353      348.511       28.259      862.319
07/08/2013  11:20:00       36.206       14.961       56.347       50.480       42.078       43.505     2548.184     1770.527     1892.711        0.546        0.311       39.175       33.806        0.745      348.656       28.511      862.319
07/08/2013  11:21:00       15.226      -18.748       15.511       31.368       42.643       37.109      983.923     1818.438     1377.049        0.250        0.209       24.152       27.746        1.320      348.525       28.285      862.317
07/08/2013  11:22:00       58.751       31.431       33.603       62.672       31.960       34.060     3927.805     1021.441     1160.070        0.584        0.305       66.630       22.789        0.117      348.761       28.696      862.297
07/08/2013  11:23:00        7.249       10.636       49.288       31.475       37.254       26.331      990.682     1387.854      693.328        0.283        0.154       12.871       12.579        0.955      348.857       28.860      862.293
07/08/2013  11:24:00       39.468       60.140       25.805       31.382       36.543       29.959      984.807     1335.410      897.570        0.453        0.161       71.935       23.073        0.103      348.729       28.640      862.292
07/08/2013  11:25:00       45.439       47.456       26.889       25.241       34.665       26.234      637.123     1201.658      688.221        0.378        0.126       65.702       20.327        0.096      348.599       28.411      862.282
07/08/2013  11:26:00       -0.769       32.824       12.453       26.868       38.436       31.956      721.884     1477.310     1021.197        0.223        0.161       32.833       30.776        0.879      348.940       29.004      862.263
07/08/2013  11:27:00      -53.004       98.329      -12.223       31.877       45.581       30.712     1016.116     2077.634      943.205        0.833        0.202      111.706       18.566        0.028      348.586       28.389      862.254
07/08/2013  11:28:00      -18.280      184.410      -26.913       42.266       46.574       30.630     1786.378     2169.118      938.200        1.998        0.245      185.314       23.137        0.016      348.373       28.021      862.256
07/08/2013  11:29:00        5.486       76.712       10.581       27.605       52.858       36.091      762.010     2793.924     1302.532        0.544        0.243       76.908       32.678        0.181      349.000       29.108      862.235
07/08/2013  11:30:00       20.626      104.476        0.244       44.839       58.922       38.542     2010.547     3471.772     1485.507        0.915        0.348      106.492       35.696        0.112      348.842       28.834      862.224
07/08/2013  11:31:00       27.615       75.702       -1.052       36.477       50.759       33.239     1330.560     2576.437     1104.844        0.575        0.251       80.581       33.273        0.170      348.670       28.536      862.225
07/08/2013  11:32:00       -7.888       18.585       33.169       28.058       28.397       25.803      787.245      806.416      665.814        0.188        0.113       20.190       19.734        0.955      349.499       29.973      862.213
07/08/2013  11:33:00      -15.418       55.830       16.346       33.554       41.147       38.534     1125.877     1693.072     1484.876        0.396        0.215       57.920       30.730        0.281      349.007       29.120      862.204
07/08/2013  11:34:00      -47.077       47.490       -4.562       28.435       40.409       24.177      808.552     1632.867      584.544        0.376        0.151       66.870       15.482        0.054      348.390       28.052      862.203
07/08/2013  11:35:00      -13.806       55.259        3.622       46.730       57.779       40.377     2183.698     3338.437     1630.310        0.520        0.358       56.957       40.641        0.509      348.656       28.513      862.197
07/08/2013  11:36:00       82.942       56.139       29.100       71.765       37.706       38.446     5150.169     1421.733     1478.110        0.946        0.403      100.155       24.024        0.058      348.779       28.725      862.183
07/08/2013  11:37:00       37.977      -14.464       19.157       42.898       81.234       34.374     1840.231     6598.945     1181.576        0.582        0.481       40.638       27.206        0.448      348.580       28.382      862.182
07/08/2013  11:38:00       33.066      -35.645       27.639       27.437       65.866       26.655      752.790     4338.366      710.500        0.446        0.290       48.620       37.300        0.589      348.548       28.324      862.178
07/08/2013  11:39:00       83.253       51.784       15.505       41.461       30.941       38.952     1719.043      957.342     1517.224        0.702        0.210       98.044       20.343        0.043      348.662       28.521      862.164
07/08/2013  11:40:00      -24.896       47.757       11.685       30.100       25.489       32.167      906.006      649.698     1034.734        0.281        0.130       53.857       19.394        0.130      349.206       29.464      862.160
07/08/2013  11:41:00      -15.206       20.631        6.428       39.538       23.745       26.679     1563.280      563.801      711.757        0.177        0.142       25.629       19.672        0.589      349.180       29.419      862.162
07/08/2013  11:42:00       83.688       68.532       39.033       57.720       36.653       30.689     3331.576     1343.412      941.804        0.942        0.281      108.168        8.170        0.006      348.748       28.671      862.151
07/08/2013  11:43:00       37.990       54.996       17.996       44.994       45.657       29.599     2024.470     2084.603      876.103        0.489        0.249       66.842       21.668        0.105      348.846       28.841      862.156
07/08/2013  11:44:00       -6.655      -20.628       16.097       27.327       29.255       27.348      746.758      855.873      747.922        0.154        0.118       21.675       18.441        0.724      348.922       28.972      862.156
07/08/2013  11:45:00      -30.171      -23.685       13.400       31.399       38.319       19.795      985.892     1468.343      391.860        0.225        0.142       38.357       19.377        0.255      349.046       29.187      862.154
07/08/2013  11:46:00     -110.221       17.308       -5.350       35.734       23.067       22.205     1276.938      532.099      493.065        0.739        0.115      111.572       20.094        0.032      348.766       28.701      862.161
07/08/2013  11:47:00      -45.032       -0.961       20.738       48.451       45.730       34.563     2347.523     2091.261     1194.594        0.404        0.282       45.042       31.689        0.495      349.220       29.489      862.147
07/08/2013  11:48:00       29.760       32.144        0.341       38.204       29.101       29.635     1459.543      846.842      878.238        0.255        0.159       43.805       20.464        0.218      349.061       29.213      862.153
07/08/2013  11:49:00       43.981      144.239        3.891       53.746      141.634       41.697     2888.613    20060.181     1738.645        2.372        1.234      150.795       60.022        0.158      348.920       28.966      862.140
07/08/2013  11:50:00      -37.834      159.675       -0.823       57.643       96.854       37.502     3322.691     9380.674     1406.427        2.052        0.705      164.097       36.631        0.050      348.975       29.061      862.150
07/08/2013  11:51:00      -11.502       86.560        3.589       29.057       62.182       37.922      844.313     3866.655     1438.066        0.689        0.307       87.321       26.430        0.092      349.202       29.457      862.170
07/08/2013  11:52:00       23.793       -4.526       30.362       30.801       20.542       25.997      948.711      421.964      675.856        0.178        0.102       24.220       11.072        0.209      349.465       29.914      862.162
07/08/2013  11:53:00       38.370      -58.067       24.578       35.457       64.133       40.789     1257.212     4113.051     1663.742        0.624        0.352       69.599       43.994        0.400      348.700       28.588      862.144
07/08/2013  11:54:00       50.380      -12.021       39.183       38.558       32.906       31.277     1486.712     1082.798      978.227        0.388        0.177       51.794       22.712        0.192      349.255       29.550      862.113
07/08/2013  11:55:00       21.898       24.881       30.026       34.898       31.710       29.822     1217.841     1005.513      889.336        0.256        0.156       33.145       18.737        0.320      349.232       29.510      862.113
07/08/2013  11:56:00       -9.853       51.945       18.976       41.364       48.255       35.305     1710.965     2328.554     1246.466        0.422        0.264       52.871       25.035        0.224      349.380       29.766      862.099
07/08/2013  11:57:00      -57.301       41.213        8.247       55.863       43.819       33.319     3120.641     1920.066     1110.157        0.560        0.308       70.583       31.764        0.203      349.605       30.155      862.094
07/08/2013  11:58:00     -148.250        3.177        0.542       82.636       94.327       50.633     6828.763     8897.593     2563.751        2.014        0.915      148.284       33.195        0.050      349.410       29.817      862.076
07/08/2013  11:59:00     -189.150        6.851      -25.028       76.589       71.505       38.027     5865.927     5112.943     1446.025        2.444        0.621      189.274       38.740        0.042      349.263       29.561      862.090
07/08/2013  12:00:00      -93.524       -3.469       13.894       93.845       46.605       46.046     8806.792     2172.012     2120.277        1.102        0.655       93.589       57.486        0.377      349.622       30.186      862.082
07/08/2013  12:01:00      -26.649       24.069       13.836       38.001       49.334       30.588     1444.049     2433.863      935.631        0.315        0.241       35.910       22.836        0.404      350.004       30.848      862.078
07/08/2013  12:02:00      -51.267       78.255        0.075       36.784       39.415       34.116     1353.067     1553.545     1163.932        0.641        0.204       93.553       26.805        0.082      349.193       29.441      862.082
07/08/2013  12:03:00      -44.163       91.766      -22.417       52.178       42.981       29.141     2722.592     1847.383      849.198        0.815        0.271      101.840       24.817        0.059      348.853       28.855      862.067
07/08/2013  12:04:00      -14.943       54.816        7.834       26.817       33.619       32.435      719.138     1130.249     1052.017        0.309        0.145       56.817       25.279        0.198      349.491       29.958      862.055
07/08/2013  12:05:00      -32.248       57.254       -8.865       27.194       47.209       31.063      739.510     2228.733      964.941        0.416        0.197       65.711       15.222        0.054      349.125       29.324      862.033
07/08/2013  12:06:00       13.302        7.342       27.225       28.635       24.130       26.327      819.979      582.257      693.135        0.153        0.105       15.193       21.096        1.928      349.709       30.337      862.030
07/08/2013  12:07:00       59.133       67.840       16.221       53.565       46.596       45.138     2869.240     2171.168     2037.483        0.772        0.354       89.994       28.839        0.103      349.341       29.698      862.019
07/08/2013  12:08:00       94.846       80.890        0.571       54.990       35.310       36.604     3023.919     1246.798     1339.844        1.057        0.281      124.655       24.580        0.039      349.085       29.256      862.006
07/08/2013  12:09:00       69.984       71.813       50.382       64.255       60.768       54.838     4128.695     3692.690     3007.155        1.171        0.541      100.273       42.285        0.178      349.475       29.932      861.996
07/08/2013  12:10:00      122.316      101.651       35.416       61.590       54.238       52.567     3793.374     2941.739     2763.252        1.802        0.475      159.041       30.610        0.037      349.033       29.164      861.988
07/08/2013  12:11:00      114.502      100.677        9.813       50.333       45.176       39.049     2533.436     2040.837     1524.837        1.472        0.305      152.468       23.082        0.023      348.873       28.886      861.982
07/08/2013  12:12:00       11.428      144.004      -11.296       48.231       55.421       33.140     2326.227     3071.513     1098.247        1.374        0.325      144.456       28.864        0.040      349.236       29.516      861.989
07/08/2013  12:13:00       40.648       77.450        6.312       53.453       51.796       43.593     2857.242     2682.814     1900.326        0.756        0.372       87.468       31.643        0.131      349.427       29.847      861.988
07/08/2013  12:14:00      108.382      103.327        1.172       54.607       50.152       46.502     2981.878     2515.175     2162.474        1.504        0.383      149.743       33.447        0.050      349.103       29.284      861.995
07/08/2013  12:15:00      101.113       98.509       38.679       52.486       45.586       49.921     2754.735     2078.051     2492.079        1.437        0.366      141.166       30.715        0.047      348.968       29.051      861.992
07/08/2013  12:16:00       50.667       39.658       11.834       38.493       33.682       30.016     1481.748     1134.508      900.973        0.390        0.176       64.342       22.576        0.123      349.390       29.784      862.002
07/08/2013  12:17:00       51.743       41.686       21.906       36.883       33.013       29.573     1360.341     1089.868      874.551        0.411        0.166       66.446       19.406        0.085      349.372       29.752      862.000
07/08/2013  12:18:00       44.805       40.134       17.435       67.150       59.068       36.016     4509.184     3489.083     1297.174        0.661        0.465       60.151       28.551        0.225      349.566       30.090      861.997
07/08/2013  12:19:00       85.644       82.142        8.200       55.227       50.398       45.323     3049.978     2539.923     2054.153        1.090        0.382      118.668       30.396        0.066      349.305       29.635      861.986
07/08/2013  12:20:00        2.806       83.599       -0.722       64.634       58.290       32.261     4177.579     3397.714     1040.795        0.780        0.431       83.647       20.489        0.060      349.613       30.170      861.971
07/08/2013  12:21:00       71.885       36.866       22.005       70.579       61.710       50.064     4981.437     3808.104     2506.416        0.915        0.565       80.787       35.040        0.188      349.682       30.287      861.968
07/08/2013  12:22:00       90.246       85.613        1.974       57.179       47.413       36.442     3269.448     2247.950     1328.047        1.116        0.342      124.394       23.211        0.035      349.155       29.374      861.957
07/08/2013  12:23:00       45.921      -14.088       28.723       41.342       39.770       32.834     1709.168     1581.632     1078.066        0.375        0.218       48.033       22.248        0.215      349.164       29.390      861.946
07/08/2013  12:24:00       -3.585      -24.646       26.652       49.964       39.213       30.677     2496.410     1537.693      941.095        0.315        0.249       24.905       31.260        1.575      349.149       29.364      861.937
07/08/2013  12:25:00      -44.240      -38.031       12.016       56.584       33.911       26.481     3201.748     1149.989      701.220        0.430        0.253       58.339       18.212        0.097      349.324       29.669      861.919
07/08/2013  12:26:00      -39.953      -98.885       -1.402       58.927       52.389       32.587     3472.441     2744.620     1061.886        0.933        0.364      106.651       29.288        0.075      349.102       29.284      861.912
07/08/2013  12:27:00      -31.006     -121.385        0.164       35.206       64.877       30.592     1239.489     4209.058      935.869        1.104        0.319      125.282       37.908        0.092      349.055       29.203      861.891
07/08/2013  12:28:00       -7.196        0.715       23.518       28.386       26.254       20.067      805.777      689.285      402.696        0.125        0.095        7.231       16.068        4.937      350.165       31.128      861.867
07/08/2013  12:29:00      -42.370       17.861        9.667       40.606       22.565       21.693     1648.847      509.195      470.589        0.242        0.131       45.981       23.852        0.269      349.805       30.505      861.880
07/08/2013  12:30:00        9.745       58.365       30.760       47.261       43.001       37.650     2233.590     1849.100     1417.496        0.497        0.275       59.173       20.051        0.115      349.937       30.731      861.857
07/08/2013  12:31:00       48.475       90.632       26.813      122.251       58.310       48.275    14945.265     3400.005     2330.515        1.598        1.034      102.781       52.634        0.262      349.450       29.887      861.852
07/08/2013  12:32:00      -53.127      242.579      -20.452       47.978       88.677       38.613     2301.905     7863.546     1490.942        3.687        0.583      248.329       38.773        0.024      349.143       29.352      861.854
07/08/2013  12:33:00     -132.583      179.518      -20.314       48.587      104.540       40.049     2360.712    10928.555     1603.924        3.255        0.745      223.170       28.019        0.016      349.107       29.290      861.856
07/08/2013  12:34:00     -136.387      145.816      -30.782       58.814       62.736       36.419     3459.116     3935.749     1326.317        2.476        0.436      199.659       32.248        0.026      349.236       29.515      861.866
07/08/2013  12:35:00      -13.932      114.905      -11.635       50.229       78.899       38.924     2522.928     6225.042     1515.106        1.190        0.513      115.746       28.987        0.063      349.283       29.597      861.873
07/08/2013  12:36:00        0.429       58.697      -29.384       24.644       73.581       27.589      607.327     5414.166      761.135        0.554        0.339       58.699       35.492        0.366      349.226       29.499      861.855
07/08/2013  12:37:00       72.347       80.829       28.466       62.638       37.804       54.018     3923.557     1429.178     2917.959        1.042        0.414      108.478       26.175        0.058      349.500       29.973      861.836
07/08/2013  12:38:00       47.365      109.195        1.461       68.548       65.367       47.794     4698.827     4272.860     2284.260        1.271        0.563      119.025       34.868        0.086      349.742       30.394      861.831
07/08/2013  12:39:00       96.222       75.058       22.236       95.380       76.631       48.794     9097.427     5872.292     2380.842        1.637        0.868      122.034       37.608        0.095      349.816       30.520      861.831
07/08/2013  12:40:00       74.142       76.923       55.493       80.775       58.420       54.536     6524.648     3412.926     2974.201        1.370        0.646      106.837       45.735        0.183      349.960       30.771      861.833
07/08/2013  12:41:00        6.224      123.697        6.035       66.805      104.916       52.579     4462.957    11007.429     2764.601        1.680        0.912      123.853       50.485        0.166      349.582       30.116      861.841
07/08/2013  12:42:00      -34.403      199.832      -10.199       66.406       87.941       55.074     4409.815     7733.649     3033.176        2.820        0.759      202.772       56.216        0.077      349.628       30.194      861.866
07/08/2013  12:43:00      -63.982      259.183      -28.743       74.288       96.168       41.736     5518.720     9248.307     1741.914        4.430        0.825      266.963       46.518        0.030      349.364       29.735      861.866
07/08/2013  12:44:00      -89.993      130.199      -27.904       36.099       55.426       37.556     1303.166     3072.044     1410.452        1.581        0.289      158.274       33.212        0.044      349.310       29.643      861.868
07/08/2013  12:45:00      -26.118       91.186       -9.461       41.486       70.680       32.497     1721.120     4995.719     1056.086        0.843        0.389       94.853       34.331        0.131      349.679       30.285      861.852
07/08/2013  12:46:00       16.318       56.849       20.863       55.683       52.540       32.750     3100.605     2760.433     1072.550        0.543        0.347       59.145       27.114        0.210      349.691       30.305      861.827
07/08/2013  12:47:00      -56.838      153.783        1.363       46.846       60.706       44.739     2194.570     3685.220     2001.572        1.738        0.394      163.951       40.886        0.062      349.767       30.436      861.814
07/08/2013  12:48:00      -69.110      153.245      -12.818       57.341       75.309       40.544     3288.003     5671.509     1643.792        1.951        0.530      168.108       43.633        0.067      349.720       30.354      861.806
07/08/2013  12:49:00       65.259      137.333       -7.574       96.687      106.058       53.483     9348.335    11248.232     2860.470        2.331        1.173      152.050       54.579        0.129      350.251       31.276      861.799
07/08/2013  12:50:00      215.267      158.070       11.033       88.110       66.483       60.828     7763.451     4420.013     3700.103        4.366        0.794      267.070       36.098        0.018      349.496       29.963      861.793
07/08/2013  12:51:00        4.614      170.806      -10.477       58.730       84.184       43.721     3449.171     7086.976     1911.561        2.087        0.622      170.868       38.771        0.051      349.619       30.179      861.814
07/08/2013  12:52:00       70.494      117.143        8.379       60.138       64.000       47.703     3616.558     4096.015     2275.549        1.437        0.499      136.719       43.229        0.100      349.721       30.357      861.818
07/08/2013  12:53:00      158.525       93.331       25.790       74.302       64.144       59.083     5520.860     4114.478     3490.765        2.381        0.656      183.959       41.169        0.050      349.432       29.853      861.806
07/08/2013  12:54:00      187.400      102.889       22.826       87.256       73.749       49.934     7613.624     5438.905     2493.366        3.088        0.777      213.788       26.963        0.016      349.500       29.973      861.776
07/08/2013  12:55:00      122.547      153.001      -14.966       68.963       80.782       51.465     4755.897     6525.655     2648.686        2.629        0.697      196.028       49.197        0.063      349.589       30.124      861.783
07/08/2013  12:56:00       78.533      131.811      -18.357       80.236       86.955       58.242     6437.889     7561.089     3392.155        2.063        0.870      153.432       49.937        0.106      349.601       30.147      861.774
07/08/2013  12:57:00       -8.985       73.556      -10.043       73.142       46.624       32.579     5349.750     2173.774     1061.402        0.709        0.429       74.102       33.476        0.204      349.578       30.109      861.794
07/08/2013  12:58:00      -49.156      129.573       -0.102       54.117       66.792       43.635     2928.700     4461.149     1903.998        1.425        0.465      138.584       29.615        0.046      349.806       30.505      861.771
07/08/2013  12:59:00       -9.066       62.452       15.407       33.788       66.853       35.948     1141.627     4469.323     1292.263        0.556        0.345       63.106       34.849        0.305      350.252       31.279      861.751
07/08/2013  13:00:00      -65.824       54.594        7.964      112.461       81.080       44.514    12647.405     6573.900     1981.479        1.429        1.060       85.518       54.446        0.405      349.923       30.706      861.738
07/08/2013  13:01:00     -161.701      214.975      -23.539      111.627       94.972       56.615    12460.611     9019.685     3205.237        4.880        1.234      269.001       65.260        0.059      349.646       30.225      861.753
07/08/2013  13:02:00     -132.059      172.515      -13.381       97.418       91.449       52.503     9490.185     8362.976     2756.557        3.399        1.030      217.258       47.923        0.049      349.744       30.393      861.732
07/08/2013  13:03:00     -146.749       43.140       -4.770       91.673       64.970       44.754     8403.863     4221.140     2002.934        1.902        0.731      152.959       41.560        0.074      349.476       29.928      861.733
07/08/2013  13:04:00      -80.837      125.309        4.785       76.326       64.874       43.780     5825.644     4208.573     1916.665        1.710        0.598      149.121       26.026        0.030      349.961       30.772      861.718
07/08/2013  13:05:00      -70.988       56.254       -0.029       54.982       53.718       32.253     3023.067     2885.628     1040.228        0.757        0.347       90.575       35.541        0.154      350.065       30.955      861.710
07/08/2013  13:06:00     -147.207      109.151      -20.537       79.474       72.489       56.315     6316.073     5254.681     3171.393        2.437        0.737      183.259       42.331        0.053      349.935       30.728      861.715
07/08/2013  13:07:00     -134.237       37.224      -16.142       68.719       76.805       28.995     4722.329     5899.067      840.699        1.556        0.573      139.303       23.497        0.028      349.589       30.129      861.713
07/08/2013  13:08:00      -22.229       29.457        5.893       48.897       72.296       39.113     2390.902     5226.654     1529.832        0.527        0.457       36.903       38.889        1.111      350.130       31.068      861.686
07/08/2013  13:09:00      -11.488      161.463       -5.968       44.333       93.572       41.537     1965.457     8755.745     1725.305        1.934        0.622      161.871       30.557        0.036      349.927       30.713      861.678
07/08/2013  13:10:00        7.043      128.999       10.047       49.258       93.197       54.194     2426.344     8685.662     2936.958        1.542        0.702      129.191       49.750        0.148      350.158       31.115      861.670
07/08/2013  13:11:00       20.543      115.553      -13.438       47.835       68.915       26.543     2288.188     4749.255      704.526        1.085        0.387      117.365       19.864        0.029      349.903       30.674      861.658
07/08/2013  13:12:00      -21.780      144.255       -5.028       47.719       66.707       30.547     2277.097     4449.765      933.112        1.448        0.383      145.890       29.119        0.040      349.936       30.731      861.657
07/08/2013  13:13:00        6.854       88.985       12.771       44.116       80.309       33.658     1946.224     6449.564     1132.872        0.883        0.476       89.249       33.862        0.144      350.251       31.278      861.654
07/08/2013  13:14:00       30.847       32.070        6.523       54.211       34.558       25.435     2938.798     1194.232      646.957        0.340        0.239       44.497       22.344        0.252      350.046       30.921      861.652
07/08/2013  13:15:00      -12.789      117.962        2.621       27.915       69.434       35.666      779.236     4821.089     1272.043        1.048        0.344      118.654       33.470        0.080      350.067       30.959      861.643
07/08/2013  13:16:00      -15.112      154.411      -12.490       39.643       59.552       37.635     1571.537     3546.441     1416.372        1.538        0.327      155.149       25.183        0.026      349.955       30.762      861.630
07/08/2013  13:17:00       21.005       93.651       13.643       42.413       88.620       44.196     1798.838     7853.558     1953.303        1.050        0.580       95.978       46.680        0.237      350.298       31.360      861.616
07/08/2013  13:18:00        5.304       90.030      -11.938       49.802       62.893       24.802     2480.193     3955.484      615.121        0.766        0.353       90.186       24.218        0.072      350.190       31.172      861.613
07/08/2013  13:19:00      -75.512       49.984      -13.889       59.672       87.634       26.246     3560.741     7679.722      688.852        1.016        0.596       90.557       13.848        0.023      350.254       31.284      861.622
07/08/2013  13:20:00     -118.556       36.409       -6.229       60.858       53.437       36.099     3703.735     2855.485     1303.140        1.164        0.393      124.020       34.357        0.077      350.227       31.237      861.628
07/08/2013  13:21:00      -82.310       32.504        4.531       80.966       74.271       42.654     6555.462     5516.183     1819.371        1.087        0.695       88.495       43.651        0.243      350.480       31.675      861.628
07/08/2013  13:22:00      -30.894       24.791       26.709       67.629       52.493       35.944     4573.679     2755.505     1291.996        0.545        0.431       39.611       38.102        0.925      350.620       31.919      861.639
07/08/2013  13:23:00     -116.914      -18.713        4.714       52.639       68.586       34.266     2770.875     4703.981     1174.179        1.134        0.432      118.402       35.728        0.091      350.355       31.458      861.646
07/08/2013  13:24:00     -150.593       14.997        5.314       94.664       86.051       47.645     8961.359     7404.810     2270.036        2.078        0.932      151.337       51.728        0.117      350.349       31.445      861.646
07/08/2013  13:25:00     -113.909      -59.654       -3.646       71.604       61.455       35.709     5127.192     3776.771     1275.156        1.336        0.509      128.584       33.781        0.069      350.070       30.963      861.662
07/08/2013  13:26:00      -64.821      -29.720       -5.596       47.715       46.670       30.178     2276.684     2178.049      910.739        0.524        0.268       71.310       26.368        0.137      349.943       30.742      861.666
07/08/2013  13:27:00       16.552       56.177       54.918       42.363       58.183       43.978     1794.585     3385.315     1934.086        0.678        0.356       58.565       37.274        0.405      350.484       31.682      861.623
07/08/2013  13:28:00       35.541       34.855        2.767       68.160       54.899       38.224     4645.833     3013.898     1461.060        0.580        0.456       49.780       21.235        0.182      350.285       31.338      861.576
07/08/2013  13:29:00      -75.479       70.457      -11.762       45.995       87.437       34.772     2115.499     7645.193     1209.091        1.088        0.548      103.253       42.792        0.172      350.234       31.247      861.583
07/08/2013  13:30:00       40.628       18.777       17.369       47.324       38.045       32.887     2239.548     1447.439     1081.542        0.354        0.238       44.757       26.380        0.347      350.669       32.005      861.587
07/08/2013  13:31:00      -65.118     -160.486       -6.814       85.050      115.366       44.672     7233.579    13309.355     1995.628        2.629        1.127      173.194       48.434        0.078      349.983       30.811      861.590
07/08/2013  13:32:00     -106.970      -71.674       -0.120       51.882       64.338       35.827     2691.782     4139.423     1283.556        1.235        0.406      128.762       31.707        0.061      349.801       30.495      861.584
07/08/2013  13:33:00      -62.525      -94.332       14.020       41.181       50.596       36.297     1695.908     2559.995     1317.470        0.929        0.279      113.172       17.628        0.024      349.979       30.804      861.556
07/08/2013  13:34:00     -136.839      -83.536        3.177       71.628       95.744       46.220     5130.519     9166.964     2136.255        2.107        0.822      160.322       37.252        0.054      349.994       30.831      861.546
07/08/2013  13:35:00     -197.927      -19.569      -17.835       60.571       43.137       36.231     3668.817     1860.760     1312.651        2.336        0.342      198.892       34.901        0.031      349.801       30.494      861.555
07/08/2013  13:36:00     -128.507      -62.084      -24.612       36.414       35.437       21.445     1326.013     1255.789      459.898        1.201        0.152      142.718       15.749        0.012      349.732       30.376      861.559
07/08/2013  13:37:00       16.730        7.067        9.156       67.064       24.721       31.448     4497.568      611.118      988.964        0.325        0.305       18.161       32.815        3.265      349.638       30.212      861.520
07/08/2013  13:38:00       30.225       27.029        3.963       45.607       40.926       26.232     2079.971     1674.921      688.109        0.305        0.222       40.548       17.736        0.191      349.619       30.181      861.478
07/08/2013  13:39:00       38.487       83.693        5.904       45.706       66.872       40.776     2089.019     4471.806     1662.692        0.837        0.411       92.118       24.287        0.070      350.215       31.215      861.471
07/08/2013  13:40:00      -14.753       85.476       25.627       63.936      102.879       41.425     4087.783    10584.120     1716.014        1.228        0.819       86.740       47.924        0.305      350.732       32.115      861.468
07/08/2013  13:41:00      -92.795       32.912       -8.824       59.894       60.852       32.735     3587.341     3702.986     1071.599        0.907        0.418       98.459       28.758        0.085      350.291       31.348      861.483
07/08/2013  13:42:00      -16.790      -26.074       18.526       52.648       37.147       32.492     2771.811     1379.874     1055.745        0.326        0.260       31.012       29.390        0.898      350.638       31.952      861.465
07/08/2013  13:43:00       54.093       11.952       38.252       39.305       43.751       39.034     1544.897     1914.178     1523.656        0.476        0.249       55.398       29.758        0.289      350.150       31.102      861.446
07/08/2013  13:44:00     -126.448      -56.360        7.410       68.026       46.365       38.913     4627.516     2149.729     1514.220        1.375        0.415      138.440       17.700        0.016      350.490       31.693      861.457
07/08/2013  13:45:00      -67.610      -86.096        5.105       59.594       58.357       34.730     3551.416     3405.533     1206.147        1.008        0.408      109.470       29.643        0.073      350.280       31.328      861.452
07/08/2013  13:46:00      -93.232      -55.017        2.477       62.010       66.693       29.350     3845.281     4447.942      861.425        1.044        0.458      108.255       24.614        0.052      350.597       31.880      861.462
07/08/2013  13:47:00     -115.528     -126.006       -0.109       84.672       83.862       45.045     7169.420     7032.836     2029.020        2.272        0.812      170.951       46.946        0.075      350.595       31.874      861.477
07/08/2013  13:48:00      -29.910      -37.031       21.480       44.753       68.555       35.956     2002.868     4699.833     1292.804        0.536        0.400       47.602       27.073        0.323      350.854       32.328      861.480
07/08/2013  13:49:00      -42.752        6.480       14.754       37.792       38.340       25.141     1428.212     1469.987      632.087        0.281        0.177       43.240       19.175        0.197      351.198       32.926      861.472
07/08/2013  13:50:00     -105.411       -6.074       -7.408       43.069       32.275       33.380     1854.920     1041.689     1114.237        0.761        0.201      105.586       20.767        0.039      350.620       31.921      861.457
07/08/2013  13:51:00     -192.497      -91.649       -0.367      124.303       88.965       45.564    15451.322     7914.692     2076.040        3.544        1.272      213.201       44.365        0.043      350.488       31.687      861.485
07/08/2013  13:52:00     -113.189     -104.084        9.888      116.720      103.943       50.385    13623.569    10804.185     2538.612        2.535        1.348      153.770       59.950        0.152      350.410       31.553      861.501
07/08/2013  13:53:00      -81.181      -56.697       17.161       87.689       70.104       36.061     7689.373     4914.551     1300.364        1.200        0.695       99.019       41.879        0.179      350.596       31.878      861.478
07/08/2013  13:54:00     -133.357     -112.905        1.381      100.779       90.829       43.771    10156.460     8249.848     1915.929        2.542        1.016      174.733       47.670        0.074      350.431       31.589      861.475
07/08/2013  13:55:00      -90.549      -64.591       17.848       91.301      116.431       53.959     8335.919    13556.224     2911.553        1.874        1.240      111.225       52.205        0.220      350.522       31.749      861.473
07/08/2013  13:56:00     -164.474     -141.787        7.564      129.267      108.500       66.936    16709.919    11772.352     4480.433        4.008        1.648      217.153       78.149        0.130      350.431       31.588      861.451
07/08/2013  13:57:00     -239.153      -41.265       -3.304       98.859      109.149       58.127     9773.072    11913.538     3378.783        4.198        1.253      242.687       46.221        0.036      350.418       31.565      861.465
07/08/2013  13:58:00     -217.432      -27.555      -28.412       96.297       82.178       36.144     9273.082     6753.295     1306.388        3.308        0.867      219.171       22.990        0.011      350.213       31.208      861.473
07/08/2013  13:59:00     -104.873       -1.946      -12.849       57.161       30.463       24.802     3267.375      928.022      615.154        0.799        0.241      104.891       23.824        0.052      350.142       31.087      861.461
07/08/2013  14:00:00       -4.142       21.777       16.651       25.793       26.735       22.197      665.272      714.770      492.686        0.132        0.094       22.168        9.864        0.198      350.858       32.332      861.442
07/08/2013  14:01:00       19.048       25.936       14.419       25.018       20.508       30.099      625.888      420.563      905.946        0.160        0.098       32.180       18.404        0.327      350.442       31.609      861.405
07/08/2013  14:02:00       34.606       78.055       10.626       29.397       29.254       31.135      864.204      855.803      969.388        0.505        0.134       85.382       18.621        0.048      350.317       31.392      861.367
07/08/2013  14:03:00       79.688       18.096       32.656       44.143       49.800       39.006     1948.638     2480.029     1521.445        0.685        0.298       81.717       22.424        0.075      349.615       30.174      861.348
07/08/2013  14:04:00       37.104       36.788       -6.362       34.549       48.520       34.658     1193.648     2354.227     1201.147        0.376        0.237       52.250       31.684        0.368      350.130       31.066      861.322
07/08/2013  14:05:00       69.850       35.221       38.967       59.339       65.334       40.587     3521.060     4268.522     1647.333        0.854        0.472       78.227       24.347        0.097      350.355       31.458      861.308
07/08/2013  14:06:00       34.438      -19.615       10.380       60.393       67.377       39.094     3647.319     4539.690     1528.325        0.569        0.486       39.632       30.898        0.608      350.297       31.358      861.298
07/08/2013  14:07:00      -57.150      -41.420        7.387       59.548       88.042       52.076     3546.012     7751.400     2711.923        0.952        0.700       70.581       51.612        0.535      350.201       31.190      861.306
07/08/2013  14:08:00      -82.215       29.345        1.889       60.004       47.737       28.128     3600.441     2278.804      791.201        0.715        0.334       87.295       18.824        0.046      350.658       31.985      861.320
07/08/2013  14:09:00      -90.446      -30.305       26.375       98.139       95.149       39.839     9631.275     9053.409     1587.153        1.503        1.014       95.388       44.903        0.222      350.940       32.475      861.317
07/08/2013  14:10:00     -196.385     -117.761        0.947      102.628       67.524       47.367    10532.499     4559.496     2243.661        3.488        0.867      228.986       38.212        0.028      350.466       31.648      861.298
07/08/2013  14:11:00     -181.906      -46.198      -11.250       87.733       91.323       49.102     7697.097     8339.846     2411.029        2.690        0.922      187.680       37.231        0.039      350.593       31.870      861.294
07/08/2013  14:12:00      -50.978      108.327        1.052       68.064      105.577       44.481     4632.654    11146.515     1978.593        1.604        0.888      119.722       48.370        0.163      350.858       32.333      861.324
07/08/2013  14:13:00     -266.540      -99.461      -13.604      106.032       65.814       49.671    11242.841     4331.457     2467.208        4.958        0.902      284.492       39.780        0.020      350.660       31.985      861.325
07/08/2013  14:14:00     -244.744       -7.545       -6.640       98.154       73.198       45.366     9634.199     5358.019     2058.094        3.852        0.853      244.860       48.141        0.039      350.264       31.297      861.317
07/08/2013  14:15:00       -8.948     -152.133        2.694       97.174       61.425       42.381     9442.863     3772.994     1796.175        1.912        0.751      152.396       30.010        0.039      350.107       31.026      861.226
07/08/2013  14:16:00       41.291      -76.128       -3.651       63.956       84.930       52.687     4090.373     7213.149     2775.934        1.079        0.704       86.605       50.206        0.336      350.477       31.670      861.202
07/08/2013  14:17:00      -70.673      -39.344        2.503       46.016       47.523       36.927     2117.510     2258.483     1363.606        0.614        0.287       80.886       30.202        0.139      350.637       31.949      861.242
07/08/2013  14:18:00      -69.281      -43.789        5.242       80.220       58.656       34.212     6435.172     3440.543     1170.488        0.889        0.552       81.959       34.039        0.172      350.631       31.938      861.245
07/08/2013  14:19:00       76.560     -137.374       -9.207      145.095      124.672       60.718    21052.447    15543.220     3686.656        3.254        2.014      157.268       68.478        0.190      350.682       32.026      861.261
07/08/2013  14:20:00       -7.303      -59.706       33.602       59.220       89.333       44.916     3507.006     7980.388     2017.403        0.912        0.675       60.151       28.695        0.228      350.593       31.870      861.273
07/08/2013  14:21:00       17.612       -4.326       40.102       34.977       67.376       46.697     1223.415     4539.475     2180.573        0.494        0.397       18.135       46.460        6.563      350.700       32.058      861.249
07/08/2013  14:22:00       58.429       23.093       20.850       43.422       27.647       38.098     1885.449      764.377     1451.473        0.424        0.205       62.827       16.740        0.071      350.161       31.122      861.248
07/08/2013  14:23:00     -154.953      -89.887       -8.862      129.538      127.982       53.061    16780.042    16379.331     2815.451        3.406        1.799      179.137       52.045        0.084      350.618       31.915      861.289
07/08/2013  14:24:00      -98.529      -17.235       30.877       91.739      108.161       67.051     8416.018    11698.738     4495.800        1.778        1.231      100.025       68.774        0.473      350.827       32.279      861.284
07/08/2013  14:25:00     -226.331      -65.902       -0.774      146.433      102.325       57.234    21442.767    10470.448     3275.708        4.537        1.759      235.730       61.576        0.068      350.598       31.878      861.240
07/08/2013  14:26:00     -337.725       46.349      -40.088       85.078       75.444       46.830     7238.302     5691.779     2193.007        6.647        0.756      340.891       33.470        0.010      350.250       31.272      861.205
07/08/2013  14:27:00     -262.019       96.721      -18.859      116.302       68.055       34.924    13526.216     4631.549     1219.664        4.887        0.969      279.301       23.407        0.007      350.259       31.289      861.175
07/08/2013  14:28:00     -334.432      -20.499      -12.073      252.166      147.366       82.441    63587.465    21716.794     6796.552       10.224        4.605      335.060      112.013        0.112      350.887       32.381      861.123
07/08/2013  14:29:00     -315.010     -150.139       -6.913      286.367      142.737       80.014    82005.783    20373.869     6402.296       11.528        5.439      348.960       76.131        0.048      350.894       32.393      861.106
07/08/2013  14:30:00     -153.461     -137.669       -1.437      124.121      101.157       60.487    15406.040    10232.738     3658.729        3.590        1.465      206.162       45.712        0.049      350.803       32.235      861.209
07/08/2013  14:31:00     -417.396       20.967       -8.669      152.359      151.495       66.613    23213.268    22950.832     4437.301       11.266        2.530      417.922       64.079        0.024      350.797       32.223      861.222
07/08/2013  14:32:00     -200.925      -31.567       12.314      136.842       77.779       43.759    18725.783     6049.524     1914.875        3.410        1.335      203.390       48.468        0.057      350.952       32.496      861.234
07/08/2013  14:33:00     -265.713      -72.225      -11.711      147.927       94.431       55.592    21882.526     8917.171     3090.426        5.492        1.695      275.354       59.831        0.047      350.712       32.076      861.243
07/08/2013  14:34:00     -263.950       69.985      -16.838      122.540      130.970       60.083    15016.150    17153.046     3609.958        5.531        1.789      273.071       57.984        0.045      350.687       32.032      861.208
07/08/2013  14:35:00     -404.107      -86.380      -34.454      156.768      156.045       65.840    24576.238    24350.021     4334.854       11.260        2.663      413.236       49.529        0.014      350.685       32.029      861.168
07/08/2013  14:36:00     -368.981      -44.034      -22.105      162.132      142.599       76.148    26286.825    20334.521     5798.532        9.549        2.621      371.599       75.163        0.041      350.773       32.181      861.148
07/08/2013  14:37:00     -466.383     -173.691      -23.066      176.385      179.579       86.017    31111.544    32248.520     7398.951       15.947        3.538      497.676       98.438        0.039      350.797       32.224      861.175
07/08/2013  14:38:00     -215.653     -202.757       13.315      185.984      166.392       83.618    34590.079    27686.390     6991.935        7.852        3.463      296.001       84.690        0.082      350.447       31.616      861.214
07/08/2013  14:39:00     -307.025     -223.628      -15.298      186.331      152.194       76.185    34719.293    23163.025     5804.203       10.408        3.184      379.834       93.717        0.061      350.402       31.537      861.223
07/08/2013  14:40:00     -228.946     -164.944        0.365      139.077      159.336       56.706    19342.387    25387.901     3215.594        6.377        2.397      282.175       62.356        0.049      350.602       31.885      861.195
07/08/2013  14:41:00     -275.006      -56.233      -14.565      159.636      118.218       52.687    25483.699    13975.614     2775.972        6.061        2.112      280.696       59.462        0.045      350.764       32.168      861.183
07/08/2013  14:42:00     -126.476     -108.362       29.569      126.761      164.182       78.071    16068.285    26955.644     6095.133        3.886        2.456      166.549       75.676        0.206      350.844       32.308      861.172
07/08/2013  14:43:00     -348.386     -281.306        4.919      238.378      168.609       89.121    56823.879    28429.013     7942.584       14.684        4.660      447.779      112.935        0.064      350.420       31.569      861.160
07/08/2013  14:44:00     -342.184     -258.363       -3.429      227.457      190.865      100.960    51736.799    36429.272    10193.020       14.109        4.918      428.767      121.033        0.080      350.446       31.612      861.138
07/08/2013  14:45:00     -354.354     -171.539      -18.676      155.728      141.930       79.162    24251.085    20143.988     6266.638       10.299        2.533      393.691       87.644        0.050      350.648       31.964      861.131
07/08/2013  14:46:00     -358.683     -229.137        1.079      258.547      152.991       94.850    66846.333    23406.096     8996.440       14.018        4.962      425.626      121.557        0.082      350.813       32.252      861.131
07/08/2013  14:47:00     -546.927      -63.220      -25.111      201.580      162.469       73.771    40634.367    26396.157     5442.104       18.810        3.624      550.569       86.419        0.025      350.558       31.807      861.163
07/08/2013  14:48:00     -288.023     -144.373        1.282      178.358      130.754       73.038    31811.754    17096.695     5334.521        7.901        2.712      322.181       91.470        0.081      350.739       32.123      861.186
07/08/2013  14:49:00     -353.875     -124.268        0.995      191.017      142.885       68.416    36487.426    20416.080     4680.795       10.112        3.079      375.060       74.821        0.040      350.561       31.813      861.187
07/08/2013  14:50:00     -414.122     -238.756       -3.459      170.289      159.362       80.718    28998.372    25396.390     6515.468       14.470        3.046      478.018       92.724        0.038      350.417       31.562      861.196
07/08/2013  14:51:00     -208.263     -173.589        8.266      137.677      104.943       57.368    18955.042    11013.107     3291.086        5.341        1.663      271.121       47.195        0.030      350.556       31.803      861.182
07/08/2013  14:52:00     -152.901      -67.417       -1.080      124.151       96.575       58.760    15413.385     9326.683     3452.713        2.805        1.410      167.103       62.209        0.139      350.587       31.860      861.170
07/08/2013  14:53:00     -114.682      -56.135        3.766       67.963       63.786       37.811     4618.930     4068.641     1429.708        1.322        0.506      127.683       32.170        0.063      350.809       32.246      861.159
07/08/2013  14:54:00      -74.788     -174.181        3.529      113.123      132.550       46.835    12796.748    17569.619     2193.511        3.425        1.628      189.558       39.680        0.044      350.694       32.045      861.135
07/08/2013  14:55:00     -137.098     -284.277       17.900      130.602      178.378       82.028    17056.804    31818.713     6728.668        7.776        2.780      315.609       72.799        0.053      350.797       32.224      861.093
07/08/2013  14:56:00     -201.004     -107.503       14.487      159.170       99.009       71.107    25335.222     9802.831     5056.163        4.617        2.010      227.947       71.839        0.099      351.055       32.674      861.100
07/08/2013  14:57:00     -211.236      -70.928        9.722       92.783       86.842       49.009     8608.635     7541.563     2401.916        3.415        0.928      222.826       45.395        0.042      351.149       32.837      861.122
07/08/2013  14:58:00      -50.570      -57.692       13.634       79.982       57.465       33.039     6397.067     3302.180     1091.546        0.843        0.540       76.718       30.009        0.153      351.177       32.888      861.096
07/08/2013  14:59:00     -101.451      -10.314        7.695       84.630       64.720       54.375     7162.232     4188.669     2956.688        1.238        0.715      101.974       36.990        0.132      351.289       33.084      861.091
07/08/2013  15:00:00     -152.194      -44.083       15.601      110.990       82.897       50.159    12318.825     6871.858     2515.947        2.352        1.085      158.449       59.880        0.143      351.437       33.341      861.097
07/08/2013  15:01:00     -288.492     -158.810      -10.668      140.333      133.505       69.963    19693.374    17823.526     4894.861        7.548        2.121      329.315       72.306        0.048      350.515       31.731      861.091
07/08/2013  15:02:00     -152.292      -98.843        7.994      146.964      146.648       77.272    21598.489    21505.561     5970.930        4.104        2.454      181.556       74.824        0.170      350.918       32.435      861.115
07/08/2013  15:03:00     -344.778     -138.492       -8.366      162.948      101.903       66.212    26552.061    10384.158     4384.016        8.971        2.066      371.553       71.690        0.037      350.633       31.939      861.125
07/08/2013  15:04:00      -45.522      -77.189       34.367      112.709      113.206       75.737    12703.305    12815.687     5736.149        2.023        1.563       89.612       70.820        0.625      351.010       32.597      861.123
07/08/2013  15:05:00     -274.910      -39.864       -5.009      168.293      117.603       59.137    28322.415    13830.538     3497.202        6.141        2.283      277.785       71.099        0.066      350.897       32.398      861.117
07/08/2013  15:06:00     -272.580      -23.802      -11.872      139.099      100.640       57.280    19348.529    10128.317     3281.015        5.388        1.638      273.618       59.476        0.047      350.699       32.054      861.103
07/08/2013  15:07:00     -237.606      -28.394       -1.793      132.261      139.875       62.344    17492.974    19565.138     3886.724        4.910        2.047      239.296       53.622        0.050      350.727       32.101      861.093
07/08/2013  15:08:00     -179.279        4.592       30.271      164.463      131.715       68.798    27048.096    17348.717     4733.223        4.109        2.457      179.338       85.886        0.229      350.962       32.512      861.073
07/08/2013  15:09:00     -316.214      -46.756      -31.051      170.324      117.899       60.685    29010.415    13900.115     3682.617        7.486        2.330      319.652       54.123        0.029      350.803       32.236      861.070
07/08/2013  15:10:00     -186.257      -86.237       -7.816      172.766      113.071       79.642    29848.004    12785.018     6342.926        4.557        2.449      205.253       88.678        0.187      350.769       32.177      861.048
07/08/2013  15:11:00     -237.221     -111.890      -11.895      204.895      120.092       65.889    41982.056    14421.991     4341.326        6.483        3.037      262.284       77.370        0.087      350.849       32.315      861.040
07/08/2013  15:12:00     -288.117      -81.288      -16.857      118.676      131.709       56.440    14083.900    17347.253     3185.528        6.225        1.731      299.365       52.677        0.031      350.627       31.927      861.060
07/08/2013  15:13:00     -333.708      -63.440      -31.583      154.332      122.968       68.784    23818.362    15121.095     4731.224        8.002        2.184      339.685       79.812        0.055      350.738       32.120      861.079
07/08/2013  15:14:00      -40.326      -75.971       23.600       74.401       76.216       41.214     5535.486     5808.813     1698.555        1.050        0.652       86.010       33.316        0.150      351.017       32.611      861.079
07/08/2013  15:15:00     -170.576      -85.357        7.916      165.727      164.178       68.840    27465.474    26954.512     4738.879        4.779        2.958      190.740       88.613        0.216      351.076       32.711      861.067
07/08/2013  15:16:00     -409.641       11.182      -46.162      151.780       96.011       58.150    23037.227     9218.022     3381.416       10.284        1.782      409.794       64.735        0.025      350.682       32.024      861.071
07/08/2013  15:17:00     -347.113      -62.091      -16.359      142.057      166.102       74.523    20180.101    27589.858     5553.616        8.896        2.666      352.622       57.229        0.026      350.862       32.337      861.043
07/08/2013  15:18:00     -351.399     -104.630       -5.669      145.134      126.238       56.216    21063.990    15936.011     3160.275        8.730        2.008      366.645       58.461        0.025      350.766       32.170      861.061
07/08/2013  15:19:00      -79.487      -91.352       -0.329       85.172       66.036       49.027     7254.322     4360.801     2403.618        1.434        0.701      121.092       39.297        0.105      351.019       32.612      861.067
07/08/2013  15:20:00     -137.377      -32.274        3.895       74.606       87.390       45.112     5566.110     7637.048     2035.111        1.758        0.762      141.117       36.848        0.068      350.879       32.369      861.049
07/08/2013  15:21:00     -207.733     -119.792        6.465      139.241      141.396       67.979    19387.958    19992.747     4621.134        5.076        2.200      239.798       74.542        0.097      350.862       32.339      861.048
07/08/2013  15:22:00     -165.725       -3.583        2.123      142.123      107.355       63.016    20199.031    11525.038     3971.015        3.158        1.785      165.764       76.656        0.214      351.051       32.667      861.059
07/08/2013  15:23:00     -270.538      -70.819       -3.295      172.856      113.676       69.547    29879.281    12922.147     4836.811        6.292        2.382      279.654       84.213        0.091      350.894       32.394      861.054
07/08/2013  15:24:00     -311.325     -124.627       -8.398      174.970      137.468       70.194    30614.557    18897.508     4927.206        8.347        2.722      335.343       83.691        0.062      350.734       32.114      861.041
07/08/2013  15:25:00     -234.690     -189.432        8.236      152.062      119.470       78.558    23122.814    14273.171     6171.309        6.729        2.178      301.602       85.614        0.081      350.613       31.904      861.065
07/08/2013  15:26:00     -139.671      -18.425        1.044      102.023      114.090       47.831    10408.607    13016.473     2287.836        2.278        1.286      140.881       54.395        0.149      350.650       31.969      861.070
07/08/2013  15:27:00     -174.303       62.299       -7.251       92.692       81.377       50.474     8591.777     6622.147     2547.595        2.603        0.888      185.102       39.656        0.046      350.982       32.547      861.048
07/08/2013  15:28:00     -420.638        5.573      -26.332      134.931      111.693       58.803    18206.249    12475.313     3457.829       10.589        1.707      420.675       60.157        0.020      350.943       32.477      861.054
07/08/2013  15:29:00     -373.307     -112.589       -6.385      155.722      148.519       61.445    24249.375    22057.795     3775.451       10.107        2.504      389.916       63.714        0.027      350.777       32.189      861.071
07/08/2013  15:30:00     -336.699     -121.327      -14.882      142.028      127.829       56.984    20171.831    16340.271     3247.124        8.403        1.988      357.892       57.383        0.026      350.520       31.743      861.067
07/08/2013  15:31:00     -140.230     -111.398       10.586      123.440      121.116       58.074    15237.461    14668.979     3372.590        3.273        1.664      179.092       62.451        0.122      350.705       32.064      861.038
07/08/2013  15:32:00     -136.132      -80.148        8.273      133.702       97.781       69.352    17876.187     9561.120     4809.747        2.863        1.612      157.974       69.205        0.192      350.852       32.320      861.011
07/08/2013  15:33:00     -151.755       -5.866       13.051       92.273       66.597       41.164     8514.350     4435.108     1694.491        1.894        0.732      151.868       50.574        0.111      350.835       32.290      861.006
07/08/2013  15:34:00     -228.128      -48.837        2.001      153.654       92.018       54.722    23609.503     8467.334     2994.517        4.474        1.754      233.297       61.461        0.069      350.921       32.439      861.013
07/08/2013  15:35:00     -121.812       24.111       -6.560       82.653      101.729       45.935     6831.536    10348.776     2110.047        1.737        0.965      124.175       42.415        0.117      350.885       32.381      860.998
07/08/2013  15:36:00      -88.882      -32.376       17.229       81.319       89.862       44.278     6612.716     8075.109     1960.511        1.294        0.832       94.595       37.132        0.154      351.170       32.877      860.993
07/08/2013  15:37:00     -275.744     -169.444       -7.435      240.524      159.715       88.978    57851.762    25508.774     7917.063        9.802        4.564      323.645       75.552        0.054      351.018       32.610      860.989
07/08/2013  15:38:00     -431.677     -140.579       -7.054      248.491      171.002       97.939    61747.777    29241.590     9592.109       15.335        5.029      453.991      118.205        0.068      350.722       32.094      861.003
07/08/2013  15:39:00     -313.758     -103.157      -33.973      216.328      155.595       75.587    46797.622    24209.847     5713.376        9.346        3.836      330.281       93.013        0.079      350.780       32.196      861.022
07/08/2013  15:40:00     -248.176     -135.798       21.039      247.652      180.860       98.840    61331.530    32710.304     9769.284        9.212        5.191      282.900      109.566        0.150      350.748       32.140      861.020
07/08/2013  15:41:00     -286.248     -233.278        2.833      173.898      124.199       81.120    30240.449    15425.345     6580.483        9.430        2.612      369.265       85.350        0.053      350.673       32.008      861.043
07/08/2013  15:42:00     -142.607     -110.383       17.928      123.757      103.013       64.698    15315.829    10611.721     4185.845        3.147        1.506      180.337       62.752        0.121      350.773       32.182      861.037
07/08/2013  15:43:00     -409.035     -100.955      -12.393      170.718      132.331       71.276    29144.680    17511.386     5080.335       11.469        2.587      421.310       69.315        0.027      350.676       32.013      861.055
07/08/2013  15:44:00     -166.349      -60.330        6.232      123.528       98.044       45.256    15259.099     9612.679     2048.061        2.913        1.346      176.951       50.532        0.082      350.512       31.727      861.051
07/08/2013  15:45:00     -257.229       -0.928      -15.645      106.086       76.079       59.966    11254.154     5787.944     3595.956        4.352        1.032      257.231       59.659        0.054      350.998       32.572      861.037
07/08/2013  15:46:00     -266.317     -116.099      -14.316      120.045      102.033       56.592    14410.869    10410.773     3202.620        5.631        1.401      290.523       53.960        0.034      351.045       32.656      861.019
07/08/2013  15:47:00     -303.034     -188.844        4.586      178.853      161.087       79.456    31988.468    25949.114     6313.276        9.587        3.213      357.060       93.717        0.069      350.776       32.189      861.046
07/08/2013  15:48:00     -488.563     -214.572       -0.450      253.252      157.528      100.543    64136.432    24815.068    10108.959       19.188        4.953      533.606      115.952        0.047      350.708       32.069      861.016
07/08/2013  15:49:00     -342.680     -222.465       -3.103      223.116      217.082      101.038    49780.854    47124.379    10208.638       13.700        5.356      408.559      121.696        0.089      350.760       32.160      861.027
07/08/2013  15:50:00     -318.120     -164.562       -4.087      228.591      165.831       86.608    52254.060    27500.040     7500.893       10.776        4.363      358.163      101.945        0.081      350.873       32.358      861.040
07/08/2013  15:51:00     -275.034     -169.504        8.370      171.574      147.526       86.257    29437.511    21764.013     7440.323        8.153        2.932      323.072       99.159        0.094      350.646       31.961      861.053
07/08/2013  15:52:00     -328.293     -224.800      -16.052      143.990       91.051       59.006    20733.093     8290.285     3481.720        9.553        1.625      397.884       66.151        0.028      350.512       31.727      861.022
07/08/2013  15:53:00     -241.850     -115.724      -15.979       96.230       90.253       48.905     9260.216     8145.615     2391.662        4.596        0.990      268.111       33.477        0.016      350.754       32.151      861.032
07/08/2013  15:54:00     -377.952      -88.794       -9.245      150.026      109.532       58.179    22507.763    11997.260     3384.834        9.435        1.894      388.243       64.879        0.028      350.733       32.112      861.035
07/08/2013  15:55:00     -488.270      -85.630      -28.742      201.841      128.209       83.678    40739.875    16437.484     7002.022       15.536        3.209      495.722       91.965        0.034      350.828       32.279      861.035
07/08/2013  15:56:00     -415.633     -145.685      -53.053      204.984      142.853       88.249    42018.390    20406.961     7787.861       13.349        3.511      440.426       87.365        0.039      350.524       31.748      861.026
07/08/2013  15:57:00     -370.501     -111.025       -1.538      148.498      167.455       84.286    22051.784    28041.276     7104.168       10.339        2.860      386.779       86.827        0.050      350.684       32.028      861.003
07/08/2013  15:58:00     -222.824      -60.914        1.779      158.498      172.784       77.373    25121.602    29854.421     5986.530        5.715        3.048      231.001       39.903        0.030      350.919       32.439      861.004
07/08/2013  15:59:00     -338.459      -70.689      -15.176      136.757      175.933       84.078    18702.593    30952.342     7069.040        8.824        2.836      345.762       80.666        0.054      350.907       32.415      861.002
07/08/2013  16:00:00     -322.492      -29.058      -25.670      145.903      134.822       67.015    21287.686    18176.924     4491.077        7.472        2.198      323.798       76.194        0.055      350.640       31.949      861.009
07/08/2013  16:01:00     -170.344       36.606      -23.018      101.190      120.601       64.527    10239.480    14544.625     4163.719        2.991        1.447      174.233       50.548        0.084      350.853       32.320      860.998
07/08/2013  16:02:00      -42.683        9.507       17.411       82.821      108.225       52.729     6859.286    11712.604     2780.389        1.178        1.068       43.729       44.645        1.042      351.023       32.621      860.994
07/08/2013  16:03:00     -155.199      -79.928        8.862      133.296       77.441       60.666    17767.754     5997.087     3680.342        2.899        1.372      174.571       68.518        0.154      351.172       32.878      860.989
07/08/2013  16:04:00     -380.735     -108.507      -16.737      203.300      157.091       85.710    41330.846    24677.561     7346.244       11.517        3.668      395.895       89.803        0.051      350.820       32.263      860.979
07/08/2013  16:05:00     -454.885     -230.296       -1.931      218.282      188.945      101.583    47646.818    35700.086    10319.084       17.679        4.683      509.860      108.898        0.046      350.799       32.228      860.995
07/08/2013  16:06:00     -407.370     -218.526      -10.814      195.235      151.980       87.375    38116.689    23098.021     7634.400       14.132        3.442      462.281       75.806        0.027      350.580       31.847      861.054
07/08/2013  16:07:00     -219.972      -44.192       -3.477      167.643      106.243       67.842    28104.253    11287.645     4602.568        4.716        2.200      224.367       86.054        0.147      350.829       32.281      861.057
07/08/2013  16:08:00     -128.658      -32.034       10.962      148.154      102.518       64.559    21949.653    10509.844     4167.889        2.716        1.831      132.586       78.507        0.351      350.985       32.554      861.031
07/08/2013  16:09:00     -367.905     -116.455      -16.689      163.711      133.423       72.710    26801.287    17801.694     5286.768        9.953        2.494      385.896       74.390        0.037      350.725       32.100      861.027
07/08/2013  16:10:00     -309.812      -24.885       -7.156      183.693      122.739       71.329    33743.234    15064.755     5087.817        7.526        2.695      310.810       91.711        0.087      350.748       32.139      861.014
07/08/2013  16:11:00     -251.647      -49.880      -13.133      120.181      110.240       59.891    14443.573    12152.869     3586.950        4.808        1.509      256.543       57.116        0.050      351.072       32.703      860.993
07/08/2013  16:12:00     -469.083      -83.791      -43.918      171.003      136.341       68.653    29242.095    18588.873     4713.299       14.076        2.627      476.508       61.361        0.017      350.881       32.370      860.980
07/08/2013  16:13:00     -343.980     -156.895        9.265      186.999      190.479       95.740    34968.714    36282.219     9166.116       11.170        4.021      378.072      105.676        0.078      350.896       32.396      861.011
07/08/2013  16:14:00     -301.671     -213.538      -17.179      130.420      123.878       69.310    17009.487    15345.871     4803.817        8.702        1.858      369.600       68.082        0.034      350.637       31.945      861.018
07/08/2013  16:15:00     -122.118     -110.576      -11.705      123.835       98.261       53.088    15335.106     9655.276     2818.355        2.754        1.390      164.742       52.823        0.103      350.866       32.344      861.004
07/08/2013  16:16:00     -260.533     -231.259       17.641      213.808      155.051      100.658    45714.007    24040.817    10131.993       10.076        3.994      348.365      125.402        0.130      350.831       32.285      860.991
07/08/2013  16:17:00     -121.396      -42.880       22.871      206.484      135.300       76.366    42635.483    18305.991     5831.699        4.192        3.339      128.747       87.831        0.465      351.038       32.644      861.021
07/08/2013  16:18:00     -270.248     -149.220        5.968      234.734      174.451      107.893    55100.104    30433.026    11640.831        9.624        4.859      308.708      127.172        0.170      350.876       32.362      861.010
07/08/2013  16:19:00     -436.066     -266.872      -13.758      202.343      133.464       86.501    40942.752    17812.527     7482.472       16.389        3.312      511.248       89.173        0.030      350.678       32.018      861.028
07/08/2013  16:20:00     -355.710     -199.111        6.700      180.913      137.873       80.552    32729.692    19008.997     6488.550       11.221        2.911      407.645       83.758        0.042      350.509       31.721      861.031
07/08/2013  16:21:00     -173.788      -74.404       -2.351      111.543       78.868       50.934    12441.907     6220.181     2594.298        2.850        1.063      189.045       46.633        0.061      350.656       31.979      861.028
07/08/2013  16:22:00       48.719       27.413       50.637       73.263       79.914       55.023     5367.458     6386.278     3027.485        1.023        0.739       55.902       24.709        0.195      350.426       31.580      861.007
07/08/2013  16:23:00     -124.692     -114.964        6.395      140.876      121.819       61.276    19845.951    14839.917     3754.689        3.362        1.922      169.602       74.838        0.195      350.728       32.105      861.001
07/08/2013  16:24:00     -162.347      -29.538       -2.475      111.578       76.488       44.156    12449.644     5850.368     1949.775        2.374        1.012      165.012       39.319        0.057      350.793       32.219      861.016
07/08/2013  16:25:00     -204.271      -89.874       20.052      173.727      135.805       83.793    30181.111    18442.889     7021.250        5.291        2.782      223.168       91.871        0.169      351.006       32.590      861.006
07/08/2013  16:26:00     -336.128      -24.866       -9.381      151.727      129.288       72.041    23020.943    16715.465     5189.838        7.930        2.246      337.046       74.944        0.049      351.027       32.624      861.039
07/08/2013  16:27:00     -306.937     -158.189       -9.190      247.153      142.724       85.075    61084.831    20370.022     7237.738       10.399        4.435      345.303       93.993        0.074      350.812       32.252      861.028
07/08/2013  16:28:00     -314.214     -140.925       -6.464      155.272      127.109       66.563    24109.301    16156.701     4430.680        8.166        2.235      344.369       61.880        0.032      350.688       32.036      861.040
07/08/2013  16:29:00     -401.169      -19.216      -30.010      151.246      122.308       63.247    22875.381    14959.369     4000.207       10.201        2.092      401.629       66.672        0.028      350.734       32.114      861.064
07/08/2013  16:30:00     -282.650      -35.104      -23.464      152.727      125.990       61.740    23325.689    15873.441     3811.841        6.233        2.151      284.822       71.865        0.064      350.763       32.166      861.049
07/08/2013  16:31:00     -141.176     -101.002       29.929      158.671      156.716       81.348    25176.452    24559.843     6617.517        4.368        2.818      173.586       97.782        0.317      350.732       32.110      861.051
07/08/2013  16:32:00     -324.150     -216.677      -12.452      189.821      131.799       73.651    36031.868    17370.959     5424.413       10.549        2.941      389.900       93.392        0.057      350.619       31.913      861.042
07/08/2013  16:33:00     -245.099     -135.736        8.040      148.536      138.885       77.793    22062.829    19288.980     6051.764        6.297        2.370      280.175       81.453        0.085      350.698       32.051      861.079
07/08/2013  16:34:00     -251.042     -129.438       -3.545      219.014      124.149       72.072    47967.108    15413.079     5194.318        7.417        3.429      282.447       86.097        0.093      350.536       31.771      861.084
07/08/2013  16:35:00     -326.278      -45.004      -34.448      132.554       88.775       63.883    17570.611     7881.055     4081.036        6.959        1.477      329.367       74.519        0.051      350.502       31.712      861.096
07/08/2013  16:36:00     -268.323      -23.958       -7.640      136.704      114.588       54.653    18687.957    13130.506     2986.933        5.371        1.740      269.390       73.667        0.075      350.646       31.962      861.068
07/08/2013  16:37:00     -449.512      -79.266      -27.130      167.484      125.978       73.106    28051.010    15870.391     5344.525       12.916        2.463      456.447       80.008        0.031      350.655       31.976      861.073
07/08/2013  16:38:00     -169.379     -191.988        6.094      170.990      159.077       67.191    29237.516    25305.395     4514.622        6.231        2.953      256.025       64.520        0.064      350.690       32.037      861.082
07/08/2013  16:39:00     -108.208     -133.169       11.004      137.584      125.139       62.279    18929.418    15659.778     3878.719        3.401        1.923      171.590       66.374        0.150      350.912       32.427      861.084
07/08/2013  16:40:00     -233.988     -151.640        9.285      147.165      112.830       63.751    21657.469    12730.572     4064.170        5.813        1.923      278.828       69.664        0.062      350.824       32.271      861.098
07/08/2013  16:41:00     -239.254     -234.191        9.188      186.407      182.096       87.935    34747.677    33159.135     7732.547        9.389        3.782      334.796      102.342        0.093      350.661       31.987      861.089
07/08/2013  16:42:00     -453.175      -74.287      -37.898      140.100      146.872       83.380    19628.081    21571.479     6952.272       13.023        2.408      459.223       69.099        0.023      350.799       32.229      861.097
07/08/2013  16:43:00     -133.671       -4.984       10.664      115.227       88.917       58.414    13277.250     7906.194     3412.162        2.130        1.230      133.764       58.110        0.189      351.083       32.723      861.073
07/08/2013  16:44:00     -309.656      -17.290       -2.400      174.128      109.894       71.898    30320.450    12076.680     5169.310        7.187        2.378      310.139       66.653        0.046      351.030       32.631      861.093
07/08/2013  16:45:00     -346.535       82.225      -32.047      184.268      105.067       57.787    33954.665    11039.134     3339.350        8.809        2.417      356.157       59.979        0.028      350.903       32.408      861.064
07/08/2013  16:46:00     -479.386       44.967      -50.756      115.441      100.396       62.220    13326.669    10079.437     3871.358       13.084        1.364      481.490       41.348        0.007      350.817       32.257      861.042
07/08/2013  16:47:00     -272.982      -80.400      -35.498      145.712      128.115       72.898    21232.124    16413.550     5314.160        6.259        2.148      284.576       53.027        0.035      350.951       32.492      861.051
07/08/2013  16:48:00     -267.636      -98.771        0.102      157.632      128.211       59.961    24847.929    16437.991     3595.288        6.312        2.244      285.280       72.695        0.065      350.938       32.472      861.060
07/08/2013  16:49:00     -411.296     -104.455      -19.479      158.787      161.829       74.688    25213.235    26188.599     5578.343       11.871        2.849      424.353       74.566        0.031      350.823       32.270      861.034
07/08/2013  16:50:00     -183.685      -82.421       13.230      191.896      141.300       91.614    36824.107    19965.751     8393.206        5.293        3.259      201.329      103.508        0.264      350.979       32.541      861.059
07/08/2013  16:51:00     -374.850      -44.933      -13.942      184.691      171.094       89.496    34110.771    29273.285     8009.476       10.705        3.570      377.534       81.140        0.046      350.752       32.145      861.074
07/08/2013  16:52:00     -188.622      -22.386       11.224      145.277      120.202       60.166    21105.431    14448.523     3620.001        3.768        1.959      189.946       68.621        0.131      350.918       32.435      861.056
07/08/2013  16:53:00     -302.349      -40.504       -8.271      205.048      113.231       80.843    42044.720    12821.301     6535.639        7.725        3.070      305.050      100.815        0.109      350.862       32.337      861.067
07/08/2013  16:54:00     -340.339      -37.182       -7.751      130.435      131.542       69.626    17013.371    17303.242     4847.791        7.821        1.958      342.364       69.043        0.041      350.822       32.268      861.074
07/08/2013  16:55:00     -347.764      -61.768      -17.216      181.080      111.118       71.283    32790.086    12347.300     5081.317        8.763        2.511      353.207       89.077        0.064      350.847       32.311      861.057
07/08/2013  16:56:00     -363.035      -13.518      -24.322      152.761      112.132       58.334    23335.927    12573.650     3402.866        8.593        1.966      363.286       67.569        0.035      350.809       32.245      861.074
07/08/2013  16:57:00     -421.443        6.074      -30.495      128.733      105.886       70.397    16572.074    11211.917     4955.677       10.565        1.637      421.487       73.310        0.030      350.688       32.033      861.074
07/08/2013  16:58:00     -372.295     -119.975      -15.838      180.372      131.631       59.985    32534.122    17326.679     3598.150       10.334        2.673      391.149       70.796        0.033      350.770       32.178      861.066
07/08/2013  16:59:00     -348.567     -177.016      -16.900      195.917      188.263       84.916    38383.631    35442.840     7210.772       11.706        4.052      390.939       93.674        0.057      350.715       32.082      861.028
07/08/2013  17:00:00     -306.893      -54.659      -13.931      164.512      133.657       88.770    27064.098    17864.127     7880.123        7.508        2.640      311.722       89.043        0.082      350.875       32.359      861.042
07/08/2013  17:01:00     -167.297      -37.565        7.550      118.710      141.102       58.731    14092.107    19909.680     3449.383        3.345        1.873      171.462       58.444        0.116      350.790       32.213      861.049
07/08/2013  17:02:00     -212.102      -63.357        5.788      172.832      141.359       64.792    29871.047    19982.289     4198.051        5.153        2.703      221.363       73.182        0.109      350.937       32.469      861.043
07/08/2013  17:03:00     -289.049      -88.530      -13.169      165.886      141.765       72.199    27518.022    20097.363     5212.657        7.218        2.641      302.302       79.664        0.069      350.903       32.410      861.050
07/08/2013  17:04:00     -514.187     -107.219      -22.933      250.673      158.305       82.446    62836.880    25060.452     6797.407       18.553        4.735      525.247      107.031        0.042      350.735       32.116      861.063
07/08/2013  17:05:00     -465.394     -176.487      -20.341      194.482      159.762       81.459    37823.151    25523.796     6635.589       15.905        3.499      497.734       89.774        0.033      350.525       31.750      861.025
07/08/2013  17:06:00     -649.087     -114.770       -2.585      218.350      195.133      111.090    47676.516    38076.771    12341.010       26.627        4.905      659.155      118.912        0.033      350.574       31.836      860.997
07/08/2013  17:07:00     -455.090     -129.215      -15.343      153.542      169.574       82.116    23575.012    28755.493     6742.958       14.154        2.954      473.079       93.591        0.039      350.585       31.854      861.049
07/08/2013  17:08:00     -353.767      -49.827        0.578      169.456      138.907       67.627    28715.421    19295.071     4573.443        9.010        2.629      357.259       82.831        0.054      350.675       32.012      861.053
07/08/2013  17:09:00     -443.079     -147.391      -11.863      207.721      148.660       72.666    43148.204    22099.737     5280.305       14.434        3.526      466.951       79.543        0.029      350.556       31.805      861.028
07/08/2013  17:10:00     -322.527      -84.736       -8.215      155.615      105.488       77.146    24216.054    11127.760     5951.507        7.627        2.065      333.472       74.254        0.050      350.777       32.190      861.062
07/08/2013  17:11:00     -230.063     -129.665        9.065      181.133      130.646       75.340    32809.000    17068.338     5676.189        6.268        2.778      264.087       88.108        0.111      350.778       32.192      861.077
07/08/2013  17:12:00     -287.818      -72.405      -26.092      246.766      130.984       71.224    60893.270    17156.814     5072.815        8.593        4.156      296.785       91.519        0.095      350.760       32.161      861.046
07/08/2013  17:13:00     -681.070     -180.455      -50.325      223.544      158.853       93.746    49971.933    25234.199     8788.399       29.146        4.200      704.571       80.584        0.013      350.600       31.881      861.036
07/08/2013  17:14:00     -544.772     -119.906      -34.064      218.458      223.291       92.058    47724.031    49858.934     8474.756       20.916        5.303      557.812       90.140        0.026      350.542       31.779      861.068
07/08/2013  17:15:00     -410.347      -90.232      -12.114      293.270      163.458      104.355    86007.356    26718.657    10889.982       15.012        6.181      420.151      133.083        0.100      350.623       31.921      861.090
07/08/2013  17:16:00     -204.292     -137.123        8.968      133.438      149.253       69.880    17805.685    22276.438     4883.172        5.278        2.248      246.045       70.330        0.082      350.416       31.561      861.091
07/08/2013  17:17:00     -134.838      -64.063       16.333      185.002      103.854       65.532    34225.884    10785.552     4294.385        3.592        2.465      149.283       86.282        0.334      350.842       32.303      861.091
07/08/2013  17:18:00     -496.769     -121.488      -33.933      260.788      202.246       89.254    68010.442    40903.442     7966.212       18.976        5.844      511.408       98.535        0.037      350.488       31.688      861.068
07/08/2013  17:19:00     -548.069     -170.448      -32.014      211.784      178.293       90.132    44852.289    31788.239     8123.722       20.759        4.238      573.962      104.329        0.033      350.464       31.646      861.076
07/08/2013  17:20:00     -600.823      -10.364      -29.493      191.132      213.078       92.323    36531.266    45402.225     8523.491       22.619        4.523      600.912       96.669        0.026      350.314       31.383      861.084
07/08/2013  17:21:00     -547.500     -195.223      -22.035      226.887      169.247      100.411    51477.859    28644.572    10082.438       21.426        4.510      581.264      119.547        0.042      350.324       31.402      861.094
07/08/2013  17:22:00     -576.662     -171.248      -31.609      252.995      200.427      131.820    64006.650    40171.155    17376.607       24.219        6.078      601.552      132.418        0.048      350.224       31.227      861.083
07/08/2013  17:23:00     -407.216     -283.474      -15.667      211.993      172.651      101.948    44941.061    29808.376    10393.465       16.577        4.257      496.168      109.337        0.049      350.298       31.357      861.067
07/08/2013  17:24:00     -389.485     -180.928      -12.948      227.922      148.160       93.219    51948.636    21951.481     8689.773       13.358        4.129      429.457      103.354        0.058      350.323       31.398      861.050
07/08/2013  17:25:00     -480.927     -187.766      -15.944      230.585      177.980       87.572    53169.290    31676.830     7668.901       17.964        4.626      516.282       92.934        0.032      350.270       31.306      861.058
07/08/2013  17:26:00     -336.404     -205.879       -6.551      274.444      239.675      110.894    75319.532    57444.208    12297.433       15.030        7.253      394.403      136.078        0.119      350.255       31.282      861.045
07/08/2013  17:27:00     -425.481     -218.586        3.899      315.111      204.805      116.790    99295.022    41945.274    13639.982       19.182        7.744      478.345      150.122        0.098      350.196       31.179      861.050
07/08/2013  17:28:00     -398.625     -326.940      -14.135      216.468      190.686      115.927    46858.350    36361.128    13439.010       18.131        4.833      515.550      120.797        0.055      350.149       31.097      861.055
07/08/2013  17:29:00     -350.890     -216.486       -5.566      195.506      151.463       87.115    38222.777    22941.075     7589.078       11.937        3.438      412.298       85.805        0.043      350.218       31.218      861.075
07/08/2013  17:30:00     -370.674      -88.920       -1.733      206.470      156.369       85.593    42629.749    24451.388     7326.141       10.984        3.720      381.190      100.654        0.070      350.298       31.355      861.091
07/08/2013  17:31:00     -360.947      -89.171       -1.084      163.006      195.501       71.709    26570.902    38220.748     5142.162       10.407        3.497      371.799       78.298        0.044      350.403       31.540      861.079
07/08/2013  17:32:00     -368.032       13.611      -20.028      220.902      168.719       94.611    48797.487    28466.217     8951.178       11.111        4.311      368.284      105.196        0.082      350.403       31.537      861.104
07/08/2013  17:33:00     -496.179     -182.068      -18.969      232.140      170.894       86.674    53889.085    29204.882     7512.434       18.514        4.530      528.529       97.849        0.034      350.243       31.260      861.114
07/08/2013  17:34:00     -390.216     -192.577        4.089      293.719      239.446      114.347    86270.597    57334.612    13075.165       17.299        7.834      435.149      148.221        0.116      350.218       31.217      861.099
07/08/2013  17:35:00     -291.917      -88.276        0.019      232.556      162.200       90.157    54082.434    26308.703     8128.264        9.075        4.426      304.972       76.987        0.064      350.215       31.212      861.071
07/08/2013  17:36:00     -474.277     -137.072      -10.414      241.057      133.529       92.673    58108.484    17829.991     8588.284       16.416        4.226      493.688      103.019        0.044      350.187       31.163      861.070
07/08/2013  17:37:00     -436.261     -108.067       -7.450      216.181      156.347       95.946    46734.132    24444.515     9205.570       14.120        4.019      449.447      106.912        0.057      350.224       31.225      861.065
07/08/2013  17:38:00     -457.124      -87.329      -12.924      167.190      127.105       85.301    27952.543    16155.602     7276.245       13.406        2.569      465.390       91.395        0.039      350.188       31.165      861.077
07/08/2013  17:39:00     -328.704     -122.598       16.560      220.321      151.086      103.073    48541.297    22826.864    10623.986       10.266        4.100      350.823      124.470        0.126      350.236       31.249      861.041
07/08/2013  17:40:00     -497.677     -133.567      -15.846      200.317      149.564       87.196    40127.098    22369.430     7603.108       16.792        3.505      515.288       86.667        0.028      350.235       31.246      861.022
07/08/2013  17:41:00     -444.039     -107.861       -1.916      146.664      140.141       74.616    21510.372    19639.558     5567.497       12.775        2.336      456.951       64.032        0.020      350.319       31.393      861.058
07/08/2013  17:42:00     -187.183      -79.274       23.316      160.229      135.567       77.168    25673.300    18378.504     5954.907        4.593        2.500      203.278       84.732        0.174      350.360       31.465      861.045
07/08/2013  17:43:00     -296.235     -138.336        0.028      204.221      138.996       83.554    41706.279    19320.000     6981.268        8.744        3.400      326.944       80.655        0.061      350.347       31.441      861.050
07/08/2013  17:44:00     -210.553     -150.455        6.432      149.093      133.082       81.950    22228.845    17710.911     6715.726        5.682        2.333      258.784       87.817        0.115      350.279       31.324      861.030
07/08/2013  17:45:00     -369.257      -34.584      -11.349      136.774      119.889       75.172    18707.042    14373.365     5650.800        8.820        1.937      370.873       81.071        0.048      350.405       31.543      861.021
07/08/2013  17:46:00     -405.661     -134.185        3.112      225.629      145.458       91.716    50908.442    21157.989     8411.739       13.151        4.024      427.278       97.133        0.052      350.270       31.306      861.041
07/08/2013  17:47:00     -589.266     -167.452      -23.112      186.482      142.760       86.299    34775.593    20380.518     7447.558       21.919        3.130      612.596       91.943        0.023      350.046       30.916      861.030
07/08/2013  17:48:00     -508.700      -73.806      -26.411      232.618      143.408       87.415    54111.183    20565.824     7641.423       17.360        4.116      514.026      108.542        0.045      350.212       31.206      861.032
07/08/2013  17:49:00     -384.657      -71.569      -31.875      122.978      152.555       83.178    15123.680    23272.876     6918.556        9.970        2.266      391.259       80.110        0.042      350.305       31.367      861.024
07/08/2013  17:50:00     -539.259      -72.384      -47.268      201.518      200.024       81.329    40609.671    40009.770     6614.328       19.274        4.362      544.096       78.913        0.021      350.072       30.964      861.016
07/08/2013  17:51:00     -634.975      -35.489      -26.687      205.561      187.371       88.304    42255.433    35107.926     7797.675       24.515        4.258      635.966       90.005        0.020      350.129       31.062      861.047
07/08/2013  17:52:00     -426.618      -95.158      -13.256      313.486      130.914       99.859    98273.496    17138.401     9971.878       15.828        6.269      437.102      139.960        0.103      350.100       31.012      861.059
07/08/2013  17:53:00     -389.393       -2.979      -42.116      163.971      108.123       64.326    26886.620    11690.661     4137.869        9.805        2.136      389.404       54.309        0.019      350.092       30.998      861.051
07/08/2013  17:54:00     -153.261      -33.620       14.869      139.930      112.452       77.479    19580.324    12645.368     6002.998        3.153        1.911      156.905       79.091        0.254      350.248       31.269      861.050
07/08/2013  17:55:00     -381.959      -66.196       -7.340      219.362      165.246       81.377    48119.703    27306.290     6622.215       11.617        4.102      387.653       89.162        0.053      350.107       31.024      861.046
07/08/2013  17:56:00     -528.053     -171.817      -42.630      194.510      140.851       80.631    37834.302    19839.105     6501.370       18.716        3.209      555.302       84.559        0.023      350.054       30.930      861.053
07/08/2013  17:57:00     -448.396     -125.994      -23.363      190.811      203.300       84.279    36408.900    41330.929     7102.884       15.114        4.242      465.761       86.761        0.035      350.035       30.900      861.054
07/08/2013  17:58:00     -423.696      -79.549      -37.222      268.339      179.051       86.590    72005.659    32059.288     7497.776       14.937        5.578      431.099      107.396        0.062      350.086       30.987      861.041
07/08/2013  17:59:00     -176.701     -115.098       11.820      135.786      105.096       60.054    18437.818    11045.130     3606.513        3.884        1.654      210.881       63.512        0.091      350.079       30.976      861.054
07/08/2013  18:00:00     -411.845      -85.860      -19.013      218.722      185.995       94.257    47839.389    34594.121     8884.428       13.432        4.566      420.700       93.709        0.050      350.047       30.920      861.043
07/08/2013  18:01:00     -375.154      -40.026      -21.414      189.779      169.278       88.227    36016.129    28655.070     7784.075       10.761        3.623      377.283       81.471        0.047      350.110       31.027      861.034
07/08/2013  18:02:00     -479.538      -93.023      -27.748      191.185      171.066       87.686    36551.587    29263.435     7688.778       15.643        3.675      488.477       91.703        0.035      350.032       30.893      861.073
07/08/2013  18:03:00     -421.134      -43.464       -7.279      234.839      160.329       89.796    55149.396    25705.294     8063.355       13.409        4.446      423.371      107.005        0.064      350.020       30.872      861.045
07/08/2013  18:04:00     -309.393      -67.207       -1.436      169.709      106.866       75.026    28801.296    11420.430     5628.948        7.304        2.293      316.608       78.938        0.062      350.073       30.963      861.059
07/08/2013  18:05:00     -519.201       12.454      -49.557      222.466      124.028       81.476    49490.936    15382.997     6638.407       17.183        3.576      519.351      100.050        0.037      350.010       30.855      861.057
07/08/2013  18:06:00     -504.475     -168.761      -33.446      239.798      163.682       85.327    57503.302    26791.938     7280.769       18.782        4.579      531.954       97.618        0.034      349.940       30.734      861.067
07/08/2013  18:07:00     -360.876     -187.428      -10.874      219.124      174.331       84.054    48015.386    30391.440     7065.024       12.546        4.274      406.646       97.982        0.058      349.956       30.761      861.060
07/08/2013  18:08:00     -381.563      -56.315       -5.945      252.125      148.795       85.124    63566.915    22139.997     7246.026       12.086        4.648      385.697      114.660        0.088      350.058       30.938      861.090
07/08/2013  18:09:00     -618.552      -57.032      -42.355      228.381      172.309       93.418    52157.751    29690.261     8726.887       23.910        4.529      621.176      109.895        0.031      349.921       30.700      861.079
07/08/2013  18:10:00     -445.912     -211.725       -7.294      221.072      171.384       93.617    48872.708    29372.647     8764.122       16.535        4.350      493.624       98.638        0.040      349.996       30.830      861.071
07/08/2013  18:11:00     -382.313     -182.741        0.307      231.431      177.637      102.330    53560.163    31554.970    10471.423       13.755        4.779      423.742      109.668        0.067      350.038       30.903      861.106
07/08/2013  18:12:00     -319.856     -235.600       -0.980      228.236      221.808       82.297    52091.504    49198.636     6772.735       13.292        5.403      397.260       97.133        0.060      350.056       30.935      861.116
07/08/2013  18:13:00     -237.869     -205.800       17.807      188.771      151.477       78.878    35634.389    22945.183     6221.722        8.201        3.240      314.540       96.468        0.094      350.027       30.886      861.134
07/08/2013  18:14:00     -234.690     -164.467        7.289      212.923      174.933       88.045    45336.107    30601.390     7751.991        8.292        4.184      286.581      114.003        0.158      349.998       30.834      861.117
07/08/2013  18:15:00     -563.277     -145.561      -32.099      268.693      187.125      103.425    72195.859    35015.834    10696.737       22.868        5.895      581.781      101.105        0.030      349.933       30.721      861.105
07/08/2013  18:16:00     -484.282     -176.161      -38.648      258.517      167.083       94.947    66830.920    27916.819     9014.942       18.539        5.188      515.327      105.631        0.042      349.950       30.750      861.103
07/08/2013  18:17:00     -233.261     -115.778        9.473      167.288      137.944       87.791    27985.417    19028.662     7707.233        6.130        2.736      260.413       94.096        0.131      350.033       30.896      861.106
07/08/2013  18:18:00     -244.850     -104.492        2.079      132.851      133.919       74.589    17649.318    17934.376     5563.491        5.600        2.057      266.214       61.766        0.054      350.071       30.962      861.109
07/08/2013  18:19:00     -280.185      -82.641        1.121      126.302      120.279       59.734    15952.192    14467.054     3568.157        5.965        1.699      292.118       71.566        0.060      350.137       31.075      861.147
07/08/2013  18:20:00     -260.707     -112.393        5.763      185.428      160.872       66.427    34383.579    25879.902     4412.606        7.264        3.234      283.902       84.142        0.088      350.079       30.976      861.135
07/08/2013  18:21:00     -277.545     -129.028        0.546      183.146      145.311       90.955    33542.311    21115.349     8272.745        7.829        3.147      306.071       99.067        0.105      350.021       30.877      861.133
07/08/2013  18:22:00     -229.931     -218.457        2.809      201.906      164.041       96.160    40766.028    26909.387     9246.652        8.875        3.846      317.162      110.539        0.121      349.995       30.829      861.144
07/08/2013  18:23:00     -282.748     -112.315       -2.422      194.995      149.231       81.725    38022.985    22270.024     6679.054        7.976        3.349      304.239       92.406        0.092      350.019       30.872      861.157
07/08/2013  18:24:00     -584.626     -116.074      -23.708      247.675      156.191       91.839    61343.035    24395.667     8434.448       22.498        4.709      596.038       98.313        0.027      349.873       30.617      861.174
07/08/2013  18:25:00     -388.884      -90.499       -0.896      189.124      126.996       92.477    35767.947    16127.875     8551.956       10.992        3.022      399.275       92.194        0.053      349.887       30.642      861.179
07/08/2013  18:26:00     -528.874     -191.281      -14.536      243.966      210.669       90.707    59519.298    44381.636     8227.791       21.430        5.606      562.402      115.502        0.042      349.843       30.563      861.172
07/08/2013  18:27:00     -378.514     -157.638       -0.273      236.481      154.862       88.395    55923.427    23982.195     7813.695       12.790        4.386      410.027      102.728        0.063      349.870       30.613      861.177
07/08/2013  18:28:00     -283.487     -121.821       -4.541      179.313      149.389       93.621    32153.252    22317.021     8764.899        7.922        3.162      308.554       89.983        0.085      349.921       30.701      861.169
07/08/2013  18:29:00     -248.067     -119.678        5.637      141.043      132.438       72.635    19893.126    17539.738     5275.800        5.929        2.135      275.427       75.819        0.076      349.977       30.798      861.194
07/08/2013  18:30:00     -288.002     -242.413       -1.962      183.502      149.210       92.897    33673.047    22263.567     8629.879       10.313        3.228      376.443       96.818        0.066      349.949       30.751      861.196
07/08/2013  18:31:00     -389.108     -249.942      -14.730      197.619      181.085      107.933    39053.457    32791.885    11649.557       14.878        4.175      462.467       96.333        0.043      349.897       30.658      861.185
07/08/2013  18:32:00     -297.669     -176.516       -5.786      202.622      148.445       93.231    41055.537    22035.817     8691.985        9.578        3.589      346.070      105.493        0.093      349.891       30.649      861.218
07/08/2013  18:33:00     -453.590     -187.842       -7.948      298.776      176.650      104.895    89266.962    31205.235    11002.935       18.626        6.574      490.946      135.826        0.077      349.837       30.554      861.224
07/08/2013  18:34:00     -443.799     -195.604      -10.659      213.853      212.821       87.651    45733.172    45292.721     7682.746       16.700        4.935      484.993       93.455        0.037      349.765       30.429      861.229
07/08/2013  18:35:00     -399.580     -274.624      -12.031      223.836      179.426       91.029    50102.465    32193.544     8286.255       16.289        4.529      484.853      102.766        0.045      349.716       30.343      861.230
07/08/2013  18:36:00     -334.181       -0.255      -11.572      227.978      171.561       87.164    51974.034    29433.245     7597.643       10.039        4.450      334.181      104.619        0.098      349.825       30.536      861.245
07/08/2013  18:37:00     -347.255     -182.840        8.708      205.593      161.839       88.998    42268.383    26191.989     7920.649       11.522        3.819      392.449       90.013        0.053      349.828       30.539      861.254
07/08/2013  18:38:00     -450.333      -87.005      -14.654      165.525      144.477       83.339    27398.606    20873.674     6945.438       13.289        2.761      458.660       76.931        0.028      349.812       30.511      861.260
07/08/2013  18:39:00     -533.474     -157.319      -20.939      229.610      150.494       98.358    52720.830    22648.458     9674.212       19.740        4.252      556.187      111.907        0.040      349.732       30.371      861.264
07/08/2013  18:40:00     -410.428     -139.102      -10.684      231.474      176.632       82.590    53580.048    31198.785     6821.032       13.974        4.580      433.360       87.770        0.041      349.737       30.379      861.291
07/08/2013  18:41:00     -185.780     -148.437       -5.865      171.775      162.756       84.027    29506.710    26489.639     7060.611        5.981        3.153      237.798       89.161        0.141      349.811       30.510      861.291
07/08/2013  18:42:00     -199.060      -65.156       24.852      195.216      149.178      110.252    38109.109    22254.079    12155.510        5.849        3.626      209.452      105.370        0.253      349.797       30.485      861.283
07/08/2013  18:43:00     -399.260      -76.014      -35.701      220.825      188.675       90.954    48763.813    35598.396     8272.564       12.953        4.632      406.432       86.529        0.045      349.786       30.465      861.284
07/08/2013  18:44:00     -320.345     -196.292        7.043      258.225      163.103       88.458    66680.141    26602.544     7824.829       12.113        5.055      375.701      106.377        0.080      349.725       30.361      861.295
07/08/2013  18:45:00     -308.861      -90.087        4.824      211.676      169.466       78.214    44806.581    28718.850     6117.397        9.157        3.982      321.731       97.841        0.092      349.761       30.423      861.337
07/08/2013  18:46:00     -469.321     -294.866      -35.311      166.125      191.891      102.712    27597.617    36822.140    10549.718       19.170        3.748      554.264       96.479        0.030      349.671       30.266      861.364
07/08/2013  18:47:00     -383.228     -310.707       -5.488      214.995      170.936      110.846    46222.679    29219.157    12286.819       16.556        4.386      493.358      121.678        0.061      349.627       30.190      861.327
07/08/2013  18:48:00     -416.135     -204.823      -19.234      191.723      129.984       83.453    36757.717    16895.851     6964.468       13.804        3.031      463.811       85.278        0.034      349.672       30.267      861.344
07/08/2013  18:49:00     -266.094     -162.411        3.333      167.025      155.649       90.682    27897.494    24226.664     8223.298        7.876        3.017      311.742       83.529        0.072      349.723       30.358      861.334
07/08/2013  18:50:00     -351.398      -66.757       -5.001      208.604      137.548       81.228    43515.746    18919.453     6597.951        9.848        3.452      357.683       93.736        0.069      349.716       30.344      861.355
07/08/2013  18:51:00     -321.539     -136.699       13.244      186.756      167.459       85.499    34877.807    28042.451     7310.005        9.623        3.512      349.391      104.639        0.090      349.701       30.317      861.326
07/08/2013  18:52:00     -263.604     -177.594       15.603      225.541      143.565       93.122    50868.585    20610.974     8671.672        9.069        4.008      317.847      109.765        0.119      349.705       30.325      861.353
07/08/2013  18:53:00     -362.054     -107.709      -20.451      236.789      167.775       87.548    56068.804    28148.515     7664.621       11.747        4.594      377.736      111.895        0.088      349.696       30.310      861.327
07/08/2013  18:54:00     -399.871     -109.435        8.820      211.823      191.470       94.947    44868.902    36660.696     9014.876       13.123        4.527      414.576       95.514        0.053      349.653       30.236      861.334
07/08/2013  18:55:00     -388.782     -204.615      -15.373      190.496      196.507      101.263    36288.616    38615.021    10254.240       13.919        4.258      439.339      104.097        0.056      349.594       30.134      861.364
07/08/2013  18:56:00     -420.264     -143.002      -19.136      242.005      143.979       89.560    58566.460    20729.916     8020.999       14.236        4.366      443.927      101.418        0.052      349.594       30.133      861.371
07/08/2013  18:57:00     -346.157     -169.628      -10.838      236.723      107.306       80.664    56037.765    11514.543     6506.602       11.137        3.703      385.485      105.669        0.075      349.625       30.188      861.365
07/08/2013  18:58:00     -233.370      -32.426        1.662      147.056      100.823       78.184    21625.337    10165.281     6112.695        4.670        1.895      235.612       78.517        0.111      349.702       30.318      861.375
07/08/2013  18:59:00     -268.159      -52.134        1.671      167.549      119.726       72.271    28072.779    14334.330     5223.095        6.112        2.382      273.179       79.074        0.084      349.674       30.271      861.377
07/08/2013  19:00:00     -427.831     -197.379      -21.166      212.302      109.691       74.688    45072.190    12032.194     5578.270       14.255        3.134      471.167       77.792        0.027      349.572       30.095      861.378
07/08/2013  19:01:00     -222.934      -34.678        7.125      192.165      137.462       78.136    36927.281    18895.851     6105.208        5.643        3.096      225.615       76.255        0.114      349.628       30.194      861.379
07/08/2013  19:02:00     -381.335     -120.889        7.104      273.767      195.950      107.590    74948.490    38396.332    11575.668       14.248        6.246      400.038      122.543        0.094      349.577       30.103      861.367
07/08/2013  19:03:00     -371.841       -6.907      -21.881      171.340      138.685       78.817    29357.295    19233.514     6212.094        9.679        2.740      371.905       93.555        0.063      349.540       30.039      861.403
07/08/2013  19:04:00     -251.095     -137.533       -1.290      127.627      124.009       73.435    16288.579    15378.232     5392.658        5.951        1.853      286.294       59.635        0.043      349.581       30.111      861.399
07/08/2013  19:05:00     -260.089     -103.488       -4.762      197.541      131.615       85.309    39022.320    17322.609     7277.626        7.099        3.181      279.922       93.997        0.113      349.567       30.087      861.405
07/08/2013  19:06:00     -353.900     -207.320       -1.580      217.382      163.525      104.582    47254.872    26740.326    10937.410       12.656        4.247      410.154       97.942        0.057      349.507       29.982      861.396
07/08/2013  19:07:00     -418.881      -97.523      -21.506      195.973      156.373       97.268    38405.294    24452.400     9461.082       12.886        3.616      430.084       96.890        0.051      349.486       29.945      861.411
07/08/2013  19:08:00     -292.244     -126.765        0.554      190.074      147.948       86.170    36127.988    21888.756     7425.345        8.345        3.272      318.553       96.262        0.091      349.484       29.944      861.398
07/08/2013  19:09:00     -101.324      -59.945       39.750      143.922      130.381       73.669    20713.666    16999.151     5427.051        2.928        2.157      117.728       72.846        0.383      349.550       30.057      861.415
07/08/2013  19:10:00     -191.839      -82.964       -0.156      180.682      122.597       69.659    32645.966    15029.979     4852.432        4.810        2.626      209.010       89.368        0.183      349.517       30.001      861.420
07/08/2013  19:11:00     -151.330      -74.987       -3.111      137.019      111.132       59.197    18774.206    12350.424     3504.235        3.157        1.731      168.890       46.798        0.077      349.559       30.072      861.430
07/08/2013  19:12:00     -406.461     -211.148      -14.927      161.576      165.675       81.324    26106.681    27448.331     6613.522       13.508        3.008      458.032       73.063        0.025      349.463       29.907      861.422
07/08/2013  19:13:00     -412.730     -104.234      -13.700      189.056      198.221       89.580    35742.090    39291.616     8024.652       13.221        4.153      425.688       97.315        0.052      349.444       29.872      861.434
07/08/2013  19:14:00     -478.909     -176.440      -12.765      200.505      245.233      104.172    40202.392    60139.116    10851.845       18.590        5.560      510.377      102.628        0.040      349.418       29.828      861.441
07/08/2013  19:15:00     -464.889     -194.129      -11.052      272.073      212.611      107.059    74023.896    45203.304    11461.723       19.228        6.534      503.794      132.326        0.069      349.364       29.734      861.426
07/08/2013  19:16:00     -339.796     -142.942       -2.515      197.208      146.751       89.993    38891.056    21535.861     8098.673       10.220        3.426      368.638       76.552        0.043      349.401       29.798      861.458
07/08/2013  19:17:00     -338.941     -164.948        8.246      208.506      176.604       89.646    43474.572    31188.806     8036.420       11.241        4.135      376.946      102.718        0.074      349.396       29.789      861.464
07/08/2013  19:18:00     -442.495      -93.293      -11.890      257.417      218.614       96.572    66263.276    47792.086     9326.149       16.399        6.169      452.223      102.349        0.051      349.349       29.707      861.463
07/08/2013  19:19:00     -375.253     -174.673       -4.082      234.820      192.337       91.442    55140.385    36993.428     8361.710       13.590        5.025      413.915      100.315        0.059      349.346       29.702      861.471
07/08/2013  19:20:00     -372.878      -67.407        0.208      267.460      154.204      111.810    71534.852    23778.777    12501.552       12.568        5.391      378.922      123.778        0.107      349.332       29.679      861.481
07/08/2013  19:21:00     -295.979     -136.029       -9.166      199.462      120.186       93.527    39784.952    14444.618     8747.267        8.457        3.149      325.741       98.778        0.092      349.326       29.668      861.490
07/08/2013  19:22:00     -419.161     -241.171      -10.232      185.086      164.694       93.610    34256.723    27124.223     8762.764       15.204        3.507      483.590      100.942        0.044      349.282       29.592      861.496
07/08/2013  19:23:00     -176.028     -109.827        9.140      167.498      109.439       74.326    28055.535    11976.950     5524.418        4.433        2.278      207.480       71.791        0.120      349.303       29.629      861.483
07/08/2013  19:24:00     -520.249     -140.509      -32.594      217.709      259.939      113.102    47397.050    67568.073    12792.052       20.959        6.388      538.890       97.805        0.033      349.275       29.580      861.489
07/08/2013  19:25:00     -336.124     -307.859       -5.965      205.509      185.025      100.905    42233.889    34234.432    10181.773       14.720        4.333      455.803      106.933        0.055      349.236       29.513      861.503
07/08/2013  19:26:00     -243.356       51.403        2.055      161.504      130.906       76.779    26083.536    17136.356     5894.990        5.548        2.456      248.725       80.611        0.105      349.290       29.608      861.531
07/08/2013  19:27:00     -397.712      -39.689      -14.464      142.319      104.793       70.969    20254.710    10981.676     5036.568        9.811        1.814      399.687       57.857        0.021      349.265       29.562      861.534
07/08/2013  19:28:00     -237.842      -33.387       14.444      117.841      120.770       73.007    13886.428    14585.328     5330.037        4.584        1.690      240.174       61.821        0.066      349.255       29.547      861.539
07/08/2013  19:29:00     -386.184      -87.560      -24.378      210.345      131.864       73.812    44244.965    17388.163     5448.164       11.223        3.354      395.985       87.918        0.049      349.238       29.516      861.534
07/08/2013  19:30:00     -297.409      -83.384       -4.134      159.619      106.522       64.639    25478.334    11347.009     4178.242        6.820        2.050      308.877       61.331        0.039      349.218       29.482      861.549
07/08/2013  19:31:00     -143.980      -52.129        5.559      150.814      105.731       58.503    22744.750    11179.130     3422.623        3.040        1.867      153.126       62.343        0.166      349.173       29.406      861.568
07/08/2013  19:32:00     -227.026     -159.618       -8.815      247.126      163.448      100.310    61071.082    26715.279    10062.058        8.745        4.892      277.522      128.672        0.215      349.177       29.411      861.575
07/08/2013  19:33:00     -517.567      -31.126      -25.255      206.670      190.006       75.769    42712.418    36102.225     5741.014       17.700        4.228      518.502       77.252        0.022      349.128       29.325      861.605
07/08/2013  19:34:00     -394.151     -148.626       11.136      210.559      164.257       81.272    44335.009    26980.319     6605.144       12.773        3.896      421.242       86.336        0.042      349.115       29.301      861.591
07/08/2013  19:35:00     -231.222      -30.112        9.475      148.284      142.692       91.660    21988.143    20360.915     8401.540        5.260        2.538      233.175       86.063        0.136      349.113       29.298      861.632
07/08/2013  19:36:00     -294.186     -132.709       -8.796      176.239      145.595       81.484    31060.191    21197.825     6639.613        8.155        2.945      322.734       84.080        0.068      349.070       29.223      861.624
07/08/2013  19:37:00     -371.333       20.731      -19.465      163.107      130.889       68.722    26603.781    17132.016     4722.674        9.357        2.423      371.912       74.311        0.040      349.073       29.229      861.643
07/08/2013  19:38:00     -538.661      -97.076      -11.971      200.647      140.010      102.029    40259.303    19602.893    10409.877       18.498        3.514      547.339      102.824        0.035      349.031       29.156      861.632
07/08/2013  19:39:00     -569.932     -162.855       -5.771      265.857      168.446       96.307    70679.748    28374.167     9275.120       22.983        5.416      592.743      115.955        0.038      348.994       29.092      861.630
07/08/2013  19:40:00     -466.624        8.099      -19.132      152.068      120.924       70.016    23124.619    14622.536     4902.221       13.040        2.132      466.694       62.875        0.018      349.018       29.135      861.650
07/08/2013  19:41:00     -247.660      -27.884        0.872      140.185      121.530       62.065    19651.695    14769.581     3852.046        5.019        1.914      249.225       60.788        0.059      349.023       29.144      861.651
07/08/2013  19:42:00     -266.768        3.654      -13.910      129.558      114.875       64.073    16785.344    13196.332     4105.356        5.272        1.704      266.793       61.781        0.054      348.948       29.014      861.662
07/08/2013  19:43:00     -299.228      -67.219       -0.050      243.862      137.824       85.784    59468.797    18995.393     7358.824        8.992        4.291      306.685      112.482        0.135      348.976       29.063      861.666
07/08/2013  19:44:00     -394.936      -77.122      -24.876      229.497      134.017       86.805    52668.811    17960.638     7535.125       12.034        3.908      402.396       95.195        0.056      348.951       29.018      861.637
07/08/2013  19:45:00     -402.858       24.671      -18.776      245.883      177.807       94.544    60458.464    31615.418     8938.626       13.211        5.051      403.613       96.667        0.057      348.923       28.969      861.652
07/08/2013  19:46:00     -466.922     -143.564      -21.396      194.313      178.715       75.613    37757.578    31939.121     5717.260       15.723        3.771      488.495       91.815        0.035      348.889       28.911      861.636
07/08/2013  19:47:00     -311.750      -62.836        0.214      191.384      160.899       83.500    36627.679    25888.424     6972.172        8.530        3.474      318.019       93.722        0.087      348.865       28.870      861.644
07/08/2013  19:48:00     -510.289      -70.407      -49.477      234.306      149.042       98.253    54899.157    22213.478     9653.599       17.727        4.338      515.124      100.260        0.038      348.862       28.864      861.672
07/08/2013  19:49:00     -422.252     -143.404      -14.466      158.304      165.216       87.385    25060.183    27296.456     7636.070       12.952        3.000      445.939       75.363        0.029      348.845       28.834      861.677
07/08/2013  19:50:00     -496.889      -90.083      -32.234      232.348      174.843       92.610    53985.521    30569.934     8576.610       17.457        4.657      504.989      116.811        0.054      348.812       28.778      861.701
07/08/2013  19:51:00     -494.583     -145.184      -17.988      244.254      167.273      105.688    59660.080    27980.141    11170.053       18.239        4.941      515.452      123.353        0.057      348.775       28.713      861.703
07/08/2013  19:52:00     -523.050        0.271      -36.254      204.061      164.329       83.185    41640.910    27003.964     6919.788       17.521        3.778      523.050       89.838        0.030      348.760       28.688      861.731
07/08/2013  19:53:00     -419.047      -95.750       -8.604      234.362      149.806       76.566    54925.323    22441.706     5862.294       13.402        4.161      429.847      101.973        0.056      348.726       28.629      861.734
07/08/2013  19:54:00     -399.365      -37.539       -9.944      191.780      141.501       79.352    36779.474    20022.649     6296.694       11.204        3.155      401.125       91.295        0.052      348.707       28.598      861.762
07/08/2013  19:55:00     -427.484      -36.037      -18.372      228.900      178.506       79.043    52395.282    31864.216     6247.875       13.743        4.525      429.000       97.169        0.051      348.655       28.507      861.763
07/08/2013  19:56:00     -482.876      -89.670      -19.305      163.162      178.299       77.926    26621.863    31790.620     6072.506       15.302        3.224      491.131       67.849        0.019      348.673       28.538      861.759
07/08/2013  19:57:00     -500.428     -157.043      -15.333      207.632      178.965       86.503    43111.243    32028.503     7482.703       17.896        4.131      524.491       95.643        0.033      348.641       28.482      861.760
07/08/2013  19:58:00     -396.102     -140.032        5.992      234.455      165.126       83.150    54968.966    27266.617     6913.961       13.283        4.457      420.125       97.856        0.054      348.613       28.432      861.766
07/08/2013  19:59:00     -437.257     -103.114       -5.473      188.146      174.784       82.799    35398.969    30549.449     6855.703       13.732        3.640      449.250       87.088        0.038      348.595       28.402      861.757
07/08/2013  20:00:00     -510.218      -84.424      -36.119      241.032      172.224       85.516    58096.577    29660.947     7313.002       18.189        4.754      517.156      106.752        0.043      348.590       28.393      861.755
07/08/2013  20:01:00     -544.270     -140.222      -21.852      267.977      198.640      106.639    71811.882    39457.761    11371.799       21.948        6.132      562.043      137.925        0.060      348.559       28.338      861.763
07/08/2013  20:02:00     -411.416      -58.583      -18.401      213.517      139.112       75.335    45589.612    19352.135     5675.425       12.181        3.531      415.566       87.659        0.044      348.569       28.356      861.798
07/08/2013  20:03:00     -429.200      -58.130      -37.449      221.931      201.674       77.622    49253.304    40672.589     6025.160       14.245        4.798      433.118       73.491        0.029      348.516       28.263      861.817
07/08/2013  20:04:00     -568.471       11.629      -34.615      175.693      154.081       83.643    30867.883    23740.977     6996.219       19.304        3.080      568.590       77.778        0.019      348.502       28.240      861.825
07/08/2013  20:05:00     -406.643     -136.718      -13.760      180.444      159.945       82.827    32560.082    25582.356     6860.308       12.461        3.250      429.011       80.789        0.035      348.475       28.195      861.821
07/08/2013  20:06:00     -505.303     -135.294      -28.584      211.595      129.840       80.572    44772.237    16858.329     6491.818       17.127        3.406      523.102       94.732        0.033      348.455       28.159      861.826
07/08/2013  20:07:00     -309.457     -113.029       -9.798      171.293      130.785       82.182    29341.275    17104.805     6753.888        8.091        2.660      329.453       78.728        0.057      348.448       28.148      861.818
07/08/2013  20:08:00     -402.507      -71.020      -27.792      171.814      154.319       74.868    29520.115    23814.424     5605.162       11.337        2.947      408.724       77.625        0.036      348.406       28.077      861.837
07/08/2013  20:09:00     -457.565      -39.205       -9.039      174.590      142.777       91.690    30481.747    20385.148     8407.093       13.512        2.964      459.241      100.664        0.048      348.376       28.025      861.855
07/08/2013  20:10:00     -370.159      -42.021      -16.864      236.920      134.818       75.954    56130.959    18175.781     5768.950       10.956        4.004      372.537       85.299        0.052      348.381       28.032      861.880
07/08/2013  20:11:00     -278.985      -15.211        1.063      193.809      133.618       85.574    37561.985    17853.889     7322.888        7.039        3.137      279.399       95.600        0.117      348.316       27.920      861.885
07/08/2013  20:12:00     -593.229     -109.748      -24.989      240.497      229.027      103.891    57838.708    52453.444    10793.345       24.281        6.054      603.296      110.100        0.033      348.325       27.934      861.872
07/08/2013  20:13:00     -405.248      -50.981      -16.465      162.005      161.546       83.690    26245.590    26097.162     7004.058       11.321        2.967      408.442       87.154        0.046      348.321       27.926      861.905
07/08/2013  20:14:00     -497.597      -49.327      -18.751      210.920      205.070       90.051    44487.237    42053.696     8109.099       17.250        4.733      500.036       87.479        0.031      348.289       27.871      861.904
07/08/2013  20:15:00     -612.589      -52.446      -38.079      231.078      170.364      104.324    53396.905    29023.779    10883.598       23.637        4.665      614.830      114.694        0.035      348.281       27.859      861.911
07/08/2013  20:16:00     -509.615       -5.609      -23.935      226.842      175.630       92.696    51457.223    30845.834     8592.600       17.559        4.545      509.646       93.761        0.034      348.255       27.813      861.932
07/08/2013  20:17:00     -548.046      -49.070      -36.475      248.428      149.972       86.142    61716.352    22491.718     7420.450       19.784        4.581      550.238      106.461        0.037      348.253       27.809      861.946
07/08/2013  20:18:00     -344.093      -67.406      -17.104      209.597      155.900       79.381    43931.007    24304.910     6301.275        9.887        3.727      350.633       82.845        0.056      348.230       27.770      861.959
07/08/2013  20:19:00     -450.716      -63.773      -22.666      191.809      164.849       97.239    36790.560    27175.226     9455.353       14.056        3.671      455.205       99.052        0.047      348.226       27.764      861.943
07/08/2013  20:20:00     -336.534      -55.290      -17.416      172.604      197.773       86.992    29792.077    39114.192     7567.632        9.653        3.824      341.045       79.786        0.055      348.194       27.709      861.951
07/08/2013  20:21:00     -426.273      -61.899      -23.266      248.048      172.498       95.086    61527.740    29755.531     9041.318       14.318        5.016      430.744      103.560        0.058      348.150       27.633      861.963
07/08/2013  20:22:00     -418.617      -63.196      -18.462      247.431      143.451       85.654    61221.886    20578.095     7336.605       13.434        4.457      423.360      103.782        0.060      348.129       27.597      861.987
07/08/2013  20:23:00     -615.377      -67.753      -31.960      217.782      174.931       94.663    47428.986    30600.867     8961.068       23.563        4.350      619.095      105.171        0.029      348.117       27.576      861.983
07/08/2013  20:24:00     -469.901     -124.723       -6.212      205.361      189.431      103.387    42173.209    35884.228    10688.818       16.256        4.437      486.172      107.937        0.049      348.114       27.570      861.998
07/08/2013  20:25:00     -469.999     -159.918       -9.046      253.125      202.963       97.505    64072.185    41194.072     9507.153       18.064        5.739      496.461      102.717        0.043      348.113       27.568      861.982
07/08/2013  20:26:00     -477.772      -34.698      -25.147      231.053      151.997       95.379    53385.700    23103.169     9097.061       15.783        4.279      479.030      108.387        0.051      348.112       27.567      862.011
07/08/2013  20:27:00     -430.774      -58.242      -20.179      236.039      119.271       84.576    55714.352    14225.649     7153.023       13.321        3.855      434.694      107.527        0.061      348.096       27.539      862.037
07/08/2013  20:28:00     -389.250     -175.624        1.530      262.807      159.512       87.250    69067.522    25443.951     7612.583       14.222        5.106      427.036      111.181        0.068      348.084       27.518      862.052
07/08/2013  20:29:00     -436.111      -69.752      -23.289      264.087      163.433       92.604    69742.039    26710.232     8575.572       15.029        5.251      441.654       97.219        0.048      348.070       27.493      862.060
07/08/2013  20:30:00     -492.004     -166.460      -12.889      240.307      171.265       96.792    57747.502    29331.656     9368.733       18.318        4.822      519.401      114.900        0.049      348.040       27.441      862.076
07/08/2013  20:31:00     -419.522      -80.583        0.304      240.544      190.544       89.338    57861.476    36307.000     7981.224       14.230        5.107      427.191      100.244        0.055      348.038       27.438      862.079
07/08/2013  20:32:00     -596.188      -87.952      -46.985      291.299      147.246       74.437    84855.304    21681.322     5540.844       23.871        5.604      602.640      102.907        0.029      348.030       27.424      862.117
07/08/2013  20:33:00     -512.288     -116.897      -26.644      208.040      158.635       83.799    43280.659    25165.176     7022.331       17.613        3.773      525.456       78.757        0.022      348.027       27.421      862.125
07/08/2013  20:34:00     -310.812     -102.331        4.592      252.995      205.379      110.270    64006.429    42180.642    12159.432       11.270        5.917      327.224      135.952        0.173      348.016       27.401      862.144
07/08/2013  20:35:00     -227.442      -34.019        1.331      172.169      133.872       79.044    29642.307    17921.690     6247.901        5.334        2.691      229.972       81.412        0.125      347.974       27.329      862.157
07/08/2013  20:36:00     -462.012     -129.696      -18.438      251.372      177.463      110.598    63187.962    31493.274    12231.830       16.874        5.346      479.871      125.516        0.068      348.027       27.419      862.163
07/08/2013  20:37:00     -366.404     -106.235      -10.148      194.452      173.870       85.159    37811.736    30230.646     7252.066       11.045        3.765      381.494       88.920        0.054      348.032       27.429      862.167
07/08/2013  20:38:00     -284.460      -39.826       -8.372      193.475      125.633       77.823    37432.707    15783.751     6056.343        7.091        2.964      287.235       87.219        0.092      347.968       27.317      862.184
07/08/2013  20:39:00     -475.167     -137.975      -13.824      278.875      193.737      105.376    77771.102    37534.004    11104.166       18.569        6.320      494.794      124.334        0.063      347.953       27.292      862.184
07/08/2013  20:40:00     -419.042     -143.964      -13.950      233.352      152.633       91.642    54453.230    23296.836     8398.293       14.132        4.307      443.083       99.814        0.051      347.964       27.311      862.187
07/08/2013  20:41:00     -466.508     -112.973       -8.666      218.547      155.321      106.606    47762.815    24124.499    11364.863       15.684        4.163      479.992      118.158        0.061      347.922       27.239      862.201
07/08/2013  20:42:00     -425.067     -148.983      -19.638      239.337      185.019       98.647    57282.114    34232.145     9731.304       15.223        5.062      450.419      109.347        0.059      347.916       27.228      862.202
07/08/2013  20:43:00     -445.036      -63.424      -14.894      212.361      161.334       91.651    45097.238    26028.679     8399.831       14.090        3.976      449.532       90.828        0.041      347.912       27.221      862.225
07/08/2013  20:44:00     -439.324     -104.053        2.803      203.588      162.413       93.832    41448.000    26377.940     8804.412       14.022        3.832      451.478      109.894        0.059      347.897       27.196      862.283
07/08/2013  20:45:00     -299.447      -49.736      -11.355      159.338      129.101       77.061    25388.594    16667.102     5938.327        7.012        2.400      303.549       80.640        0.071      347.902       27.205      862.321
07/08/2013  20:46:00     -393.971      -56.445      -17.470      166.577      115.648       68.422    27747.980    13374.435     4681.562       10.225        2.290      397.994       70.831        0.032      347.879       27.164      862.328
07/08/2013  20:47:00     -290.765      -23.898       -8.054      171.884      122.060       72.211    29544.259    14898.624     5214.475        6.741        2.483      291.746       63.867        0.048      347.841       27.099      862.321
07/08/2013  20:48:00     -279.453      -54.851       -1.749      159.903      142.411       68.912    25569.024    20280.832     4748.812        6.584        2.530      284.785       78.463        0.076      347.837       27.092      862.303
07/08/2013  20:49:00     -451.099      -62.611      -17.138      282.988      168.328      106.495    80082.033    28334.204    11341.279       16.371        5.988      455.424      129.385        0.081      347.854       27.122      862.314
07/08/2013  20:50:00     -449.699        2.181      -21.614      259.686      223.722       98.516    67436.708    50051.711     9705.345       16.492        6.360      449.704      101.945        0.051      347.831       27.080      862.323
07/08/2013  20:51:00     -359.399     -117.241      -20.002      172.893      122.217       70.093    29892.018    14937.056     4913.068        9.652        2.487      378.038       80.037        0.045      347.824       27.069      862.350
07/08/2013  20:52:00     -603.191       15.078      -45.985      259.469      166.744       85.855    67324.051    27803.472     7371.010       23.432        5.125      603.379      104.510        0.030      347.823       27.067      862.346
07/08/2013  20:53:00     -569.619      -70.151      -23.007      217.383      164.193       98.472    47255.318    26959.328     9696.650       20.690        4.196      573.922      108.438        0.036      347.782       26.997      862.379
07/08/2013  20:54:00     -573.963     -109.168      -30.895      167.295      145.120       80.482    27987.717    21059.865     6477.275       19.890        2.776      584.253       90.116        0.024      347.784       27.001      862.365
07/08/2013  20:55:00     -452.566      -84.808      -11.850      197.795      133.041       86.131    39122.737    17699.886     7418.475       13.818        3.212      460.443       74.434        0.026      347.753       26.946      862.362
07/08/2013  20:56:00     -365.213      -70.954        2.067      180.334      172.622       80.443    32520.180    29798.249     6471.038       10.359        3.439      372.042       85.262        0.053      347.721       26.892      862.370
07/08/2013  20:57:00     -351.674     -162.277      -25.585      228.596      126.976       78.304    52256.350    16122.947     6131.557       11.257        3.726      387.309       97.779        0.064      347.729       26.906      862.395
07/08/2013  20:58:00     -367.627      -94.918      -18.342      240.219      139.691       94.141    57704.950    19513.565     8862.542       11.527        4.304      379.683      121.354        0.102      347.721       26.893      862.423
07/08/2013  20:59:00     -311.995      -40.801      -12.053      205.213      126.790       72.366    42112.505    16075.617     5236.822        8.128        3.171      314.652       90.423        0.083      347.728       26.904      862.473
07/08/2013  21:00:00     -447.691      -99.078      -25.751      206.304      170.070       80.757    42561.487    28923.760     6521.682       14.444        3.900      458.524       99.775        0.047      347.722       26.894      862.475
07/08/2013  21:01:00     -393.092      -34.860      -12.439      230.878      143.728       72.670    53304.547    20657.776     5280.982       11.755        3.962      394.635       89.538        0.051      347.670       26.803      862.478
07/08/2013  21:02:00     -349.947     -189.823        2.822      261.682      186.977       96.267    68477.494    34960.512     9267.288       13.558        5.635      398.115      114.727        0.083      347.696       26.850      862.452
07/08/2013  21:03:00     -511.006      -16.134      -38.101      172.739      127.581       93.286    29838.663    16276.970     8702.316       15.882        2.741      511.260       86.913        0.029      347.694       26.845      862.490
07/08/2013  21:04:00     -648.084     -136.109      -42.696      251.601      168.838      101.746    63303.027    28506.144    10352.309       27.124        5.108      662.223      116.356        0.031      347.694       26.845      862.469
07/08/2013  21:05:00     -498.367     -126.044      -13.564      208.974      132.766       87.709    43670.082    17626.687     7692.895       16.670        3.449      514.059       98.285        0.037      347.675       26.812      862.494
07/08/2013  21:06:00     -420.361      -37.061      -14.480      210.001      145.897       83.543    44100.447    21285.920     6979.390       12.531        3.618      421.992       99.267        0.055      347.655       26.778      862.537
07/08/2013  21:07:00     -343.833      -84.910        2.273      334.466      183.383       94.650   111867.669    33629.391     8958.655       13.992        7.723      354.162      122.812        0.120      347.656       26.779      862.549
07/08/2013  21:08:00     -504.437     -151.663       -8.413      304.401      153.533       95.091    92660.016    23572.258     9042.374       20.138        6.264      526.743      124.205        0.056      347.651       26.770      862.532
07/08/2013  21:09:00     -428.454     -172.985       -8.120      184.143      160.656       81.069    33908.714    25810.470     6572.129       13.991        3.315      462.057       75.493        0.027      347.639       26.750      862.557
07/08/2013  21:10:00     -308.478     -117.023      -13.400      203.608      175.012       86.907    41456.231    30629.046     7552.789        9.432        3.982      329.929       95.931        0.085      347.655       26.778      862.585
07/08/2013  21:11:00     -358.610      -62.366      -16.768      213.104      134.108       79.159    45413.173    17984.937     6266.217       10.120        3.483      363.992       92.417        0.064      347.649       26.768      862.637
07/08/2013  21:12:00     -438.005      -47.245      -15.440      243.894      133.574       85.594    59484.294    17841.903     7326.313       13.947        4.233      440.546      102.772        0.054      347.644       26.759      862.634
07/08/2013  21:13:00     -459.395      -82.537      -13.795      208.742      146.716       88.887    43573.035    21525.563     7900.882       14.551        3.650      466.750       88.472        0.036      347.616       26.712      862.673
07/08/2013  21:14:00     -298.023     -153.448       -2.414      229.975      151.563       81.275    52888.464    22971.291     6605.618        9.740        4.123      335.208      103.886        0.096      347.633       26.740      862.698
07/08/2013  21:15:00     -344.681      -95.819       -9.000      222.674      138.068       96.297    49583.821    19062.799     9273.193       10.298        3.896      357.752      118.542        0.110      347.595       26.676      862.724
07/08/2013  21:16:00     -486.468      -95.266      -19.736      239.498      158.306       87.662    57359.462    25060.877     7684.696       16.809        4.505      495.708       80.916        0.027      347.607       26.696      862.733
07/08/2013  21:17:00     -537.509      -56.235      -33.177      259.325      151.901       95.352    67249.354    23073.892     9091.928       19.628        4.971      540.442      114.529        0.045      347.586       26.659      862.748
07/08/2013  21:18:00     -424.893     -118.004      -25.826      130.742      123.905       75.629    17093.592    15352.548     5719.725       11.664        1.908      440.975       50.591        0.013      347.569       26.632      862.790
07/08/2013  21:19:00     -360.814      -82.982        0.176      185.485      153.500       78.076    34404.563    23562.291     6095.828       10.056        3.203      370.233       76.285        0.042      347.516       26.537      862.823
07/08/2013  21:20:00     -271.681      -16.221       -9.491      127.759      102.998       60.643    16322.344    10608.560     3677.546        5.238        1.530      272.165       63.211        0.054      347.524       26.551      862.849
07/08/2013  21:21:00     -546.629     -134.675      -26.358      230.828      180.293       87.546    53281.445    32505.621     7664.379       20.552        4.673      562.975       87.815        0.024      347.537       26.574      862.846
07/08/2013  21:22:00     -468.590      -71.016      -22.566      242.506      157.680       86.496    58809.012    24863.069     7481.617       15.812        4.558      473.940      109.162        0.053      347.512       26.530      862.851
07/08/2013  21:23:00     -259.229      -48.152      -11.876      162.090       99.856       65.416    26273.240     9971.278     4279.282        5.508        2.026      263.664       61.400        0.054      347.476       26.469      862.882
07/08/2013  21:24:00     -304.635      -98.931        2.942      272.899      147.901       70.192    74473.939    21874.766     4926.906       10.192        5.064      320.296       88.193        0.076      347.456       26.435      862.908
07/08/2013  21:25:00     -533.971      -20.178      -43.086      206.190      155.648       90.471    42514.156    24226.351     8185.026       18.114        3.746      534.352       88.029        0.027      347.484       26.482      862.905
07/08/2013  21:26:00     -367.174      -53.203       -4.126      172.354      145.222       80.132    29705.937    21089.286     6421.123        9.743        2.861      371.009       81.127        0.048      347.451       26.426      862.924
07/08/2013  21:27:00     -421.258      -93.775      -14.848      156.838      118.740       73.507    24598.082    14099.193     5403.260       11.528        2.205      431.569       83.802        0.038      347.444       26.413      862.934
07/08/2013  21:28:00     -455.262      -85.752      -32.553      161.223      132.234       77.073    25992.829    17485.796     5940.178       13.254        2.471      463.267       83.609        0.033      347.423       26.378      862.934
07/08/2013  21:29:00     -416.606      -36.631      -15.925      188.306      132.267       83.712    35459.117    17494.527     7007.770       11.755        2.998      418.213       91.068        0.047      347.415       26.363      862.941
07/08/2013  21:30:00     -358.888      -71.129       -6.465      202.937      135.403       77.169    41183.268    18333.927     5955.122        9.967        3.274      365.869       99.244        0.074      347.419       26.369      862.950
07/08/2013  21:31:00     -356.971       12.358      -16.866      146.790      121.770       69.948    21547.326    14827.866     4892.746        8.456        2.063      357.184       72.965        0.042      347.433       26.393      862.982
07/08/2013  21:32:00     -432.099     -170.322      -10.218      162.577      131.743       68.392    26431.225    17356.292     4677.411       13.213        2.423      464.455       74.452        0.026      347.460       26.441      862.986
07/08/2013  21:33:00     -515.691     -114.930      -33.584      272.341      132.369       86.463    74169.633    17521.574     7475.845       18.970        4.958      528.343      113.052        0.046      347.441       26.408      862.982
07/08/2013  21:34:00     -525.736      -51.110      -35.870      230.908      158.443       82.563    53318.334    25104.077     6816.606       18.275        4.262      528.215       99.345        0.035      347.428       26.385      863.010
07/08/2013  21:35:00     -605.350     -154.334      -23.201      240.611      162.716       96.421    57893.870    26476.400     9296.974       24.222        4.683      624.714      101.838        0.027      347.461       26.442      863.029
07/08/2013  21:36:00     -396.858      -85.343      -19.791      192.930      147.419       83.022    37221.878    21732.221     6892.682       11.550        3.292      405.931       78.100        0.037      347.446       26.417      863.050
07/08/2013  21:37:00     -377.855       -4.796      -17.561      134.154      116.460       65.293    17997.221    13562.900     4263.158        8.946        1.791      377.886       67.614        0.032      347.429       26.387      863.067
07/08/2013  21:38:00     -289.127      -72.173       -5.596      151.396      125.187       67.295    22920.651    15671.710     4528.667        6.597        2.156      297.999       81.646        0.075      347.396       26.331      863.081
07/08/2013  21:39:00     -400.239      -81.432      -25.722      177.783      158.777       91.840    31606.749    25210.262     8434.542       11.635        3.263      408.439       78.828        0.037      347.394       26.327      863.074
07/08/2013  21:40:00     -388.253      -21.924      -19.617      202.560      145.266       85.772    41030.659    21102.292     7356.754       11.053        3.474      388.872       84.744        0.047      347.369       26.285      863.091
07/08/2013  21:41:00     -450.689        7.815      -23.617      205.108      126.410       77.971    42069.232    15979.444     6079.484       13.392        3.206      450.757       99.263        0.048      347.345       26.244      863.134
07/08/2013  21:42:00     -466.197      -62.654      -17.103      233.613      143.534       86.966    54574.863    20602.117     7563.051       15.213        4.137      470.388       94.492        0.040      347.360       26.270      863.131
07/08/2013  21:43:00     -282.781      -91.988       11.792      155.594      129.528       77.524    24209.411    16777.586     6010.032        6.777        2.350      297.366       75.459        0.064      347.325       26.209      863.142
07/08/2013  21:44:00     -524.816      -95.987      -50.807      143.940      149.355       72.543    20718.619    22306.788     5262.437       16.775        2.414      533.521       62.547        0.014      347.348       26.250      863.163
07/08/2013  21:45:00     -343.221      -39.993      -28.799      153.354      121.626       73.165    23517.567    14792.899     5353.173        8.194        2.183      345.543       76.359        0.049      347.330       26.218      863.206
07/08/2013  21:46:00     -443.435      -50.505      -24.335      254.035      136.063       87.485    64533.655    18513.094     7653.583       14.522        4.535      446.302      107.783        0.058      347.348       26.251      863.181
07/08/2013  21:47:00     -420.346      -18.115      -15.604      184.107      129.342       79.782    33895.525    16729.224     6365.228       11.711        2.849      420.736       87.694        0.043      347.333       26.222      863.187
07/08/2013  21:48:00     -577.425      -17.988      -37.293      192.838      161.233       87.537    37186.387    25996.070     7662.682       20.298        3.542      577.705       83.252        0.021      347.354       26.259      863.236
07/08/2013  21:49:00     -369.335     -102.484       -1.608      201.472      121.594       77.166    40590.903    14785.175     5954.524       10.411        3.067      383.290      100.126        0.068      347.341       26.235      863.233
07/08/2013  21:50:00     -266.859      -63.313        1.733      139.238      120.397       65.118    19387.207    14495.508     4240.302        5.667        1.906      274.267       68.190        0.062      347.298       26.163      863.254
07/08/2013  21:51:00     -179.039      -85.158        8.508      151.656      144.898       77.234    22999.635    20995.366     5965.078        4.466        2.498      198.259       80.836        0.166      347.254       26.086      863.257
07/08/2013  21:52:00     -337.853     -148.050      -22.533      154.587      106.619       70.762    23897.055    11367.552     5007.276        8.841        2.014      368.868       70.086        0.036      347.288       26.144      863.283
07/08/2013  21:53:00     -349.557      -85.210      -16.398      162.865      115.633       82.446    26525.032    13371.089     6797.352        8.820        2.335      359.793       75.904        0.045      347.280       26.130      863.290
07/08/2013  21:54:00     -301.800     -126.374       -3.748      189.946      177.741       88.711    36079.503    31591.751     7869.720        9.129        3.777      327.190       94.776        0.084      347.253       26.085      863.303
07/08/2013  21:55:00     -279.320       43.568       -2.705      215.123      144.987       88.775    46277.753    21021.375     7881.057        7.754        3.759      282.698       96.156        0.116      347.250       26.080      863.298
07/08/2013  21:56:00     -428.494     -131.227      -37.614      157.039      200.402       75.709    24661.146    40161.043     5731.812       13.638        3.528      448.138       80.908        0.033      347.275       26.121      863.323
07/08/2013  21:57:00     -253.179      -97.604       -0.096      205.695      147.887       96.642    42310.300    21870.695     9339.620        7.356        3.676      271.341      111.356        0.168      347.243       26.067      863.296
07/08/2013  21:58:00     -382.113     -112.798       -1.132      217.219      203.404       92.738    47184.072    41373.279     8600.306       12.793        4.858      398.414       96.525        0.059      347.224       26.034      863.302
07/08/2013  21:59:00     -458.552      -67.201      -15.464      309.395      161.011       94.022    95725.488    25924.606     8840.075       17.273        6.525      463.450      141.533        0.093      347.228       26.040      863.302
07/08/2013  22:00:00     -418.572      -56.995      -17.126      196.175      163.024       80.132    38484.535    26576.744     6421.079       12.510        3.574      422.435       85.891        0.041      347.210       26.012      863.304
07/08/2013  22:01:00     -338.593      -72.095       -6.802      255.857      175.687      101.326    65462.705    30865.943    10266.949       11.322        5.330      346.184      111.998        0.105      347.230       26.047      863.280
07/08/2013  22:02:00     -320.551      -42.862      -15.188      165.789      141.191       84.596    27485.917    19934.909     7156.439        7.969        2.729      323.404       82.500        0.065      347.235       26.054      863.294
07/08/2013  22:03:00     -266.501      -54.417       -2.180      135.240      116.089       61.500    18289.989    13476.616     3782.221        5.476        1.777      272.000       59.481        0.048      347.209       26.009      863.315
07/08/2013  22:04:00     -286.808     -111.904       14.650      241.629      145.104       99.502    58384.463    21055.261     9900.631        9.215        4.467      307.865      101.730        0.109      347.192       25.981      863.319
07/08/2013  22:05:00     -248.479     -156.687       13.406      194.982      149.923       88.801    38017.969    22476.791     7885.578        7.741        3.419      293.756       93.851        0.102      347.208       26.007      863.289
07/08/2013  22:06:00     -232.950     -107.906       -8.209      150.399      153.200       70.950    22619.849    23470.205     5033.876        5.854        2.556      256.728       66.534        0.067      347.183       25.965      863.307
07/08/2013  22:07:00     -389.681      -80.593      -14.834      194.244      148.455       87.092    37730.739    22038.825     7584.943       11.295        3.368      397.928       92.836        0.054      347.153       25.912      863.286
07/08/2013  22:08:00     -454.190     -106.157      -36.722      164.815      154.774       99.081    27163.986    23955.130     9817.045       13.991        3.047      466.431       91.413        0.038      347.172       25.946      863.296
07/08/2013  22:09:00     -394.824     -136.595       -8.543      183.587      163.491       87.716    33704.199    26729.287     7694.166       12.136        3.406      417.785      105.524        0.064      347.147       25.901      863.289
07/08/2013  22:10:00     -498.815      -90.449      -22.810      243.863      223.166       91.260    59469.023    49803.027     8328.322       18.754        5.880      506.949      108.249        0.046      347.170       25.943      863.295
07/08/2013  22:11:00     -413.876     -112.059      -13.792      262.609      174.386       89.908    68963.444    30410.619     8083.434       14.573        5.373      428.778      102.155        0.057      347.147       25.904      863.296
07/08/2013  22:12:00     -530.182     -137.929      -26.033      216.284      177.285      101.907    46778.909    31430.083    10385.085       19.468        4.430      547.829       98.155        0.032      347.150       25.908      863.296
07/08/2013  22:13:00     -359.707      -46.096      -22.353      165.408      124.557       89.204    27359.687    15514.499     7957.338        9.141        2.542      362.649       87.797        0.059      347.138       25.887      863.287
07/08/2013  22:14:00     -393.669       -5.359      -15.563      166.971      127.655       80.656    27879.429    16295.786     6505.434       10.295        2.534      393.705       93.589        0.057      347.112       25.842      863.295
07/08/2013  22:15:00     -336.521      -95.064       -0.703      182.095      158.615       83.990    33158.566    25158.797     7054.278        9.381        3.269      349.690       87.831        0.063      347.095       25.813      863.285
07/08/2013  22:16:00     -428.788      -75.074       -7.639      225.690      106.902       75.569    50935.932    11428.086     5710.689       12.880        3.404      435.311       96.470        0.049      347.083       25.793      863.276
07/08/2013  22:17:00     -320.660      -86.888      -18.701      239.566      185.500      102.099    57391.888    34410.344    10424.277       10.645        5.111      332.224       81.319        0.060      347.077       25.782      863.281
07/08/2013  22:18:00     -322.614      -30.599      -25.288      169.898      131.972       86.588    28865.305    17416.568     7497.518        7.971        2.689      324.062       71.761        0.049      347.087       25.799      863.329
07/08/2013  22:19:00     -230.748     -110.659        9.373      204.785      161.438       89.682    41936.760    26062.337     8042.801        7.079        3.802      255.910       93.616        0.134      347.056       25.746      863.342
07/08/2013  22:20:00     -351.081      -76.907       -6.348      197.825      203.223       84.496    39134.595    41299.571     7139.605       10.838        4.379      359.406       91.018        0.064      347.080       25.786      863.364
07/08/2013  22:21:00     -267.701      -53.621       -7.427      126.504      116.924       53.410    16003.337    13671.326     2852.676        5.355        1.626      273.018       50.421        0.034      347.035       25.709      863.355
07/08/2013  22:22:00     -418.705     -145.783      -16.056      180.369      113.365       87.074    32533.128    12851.709     7581.796       12.488        2.648      443.358       82.061        0.034      347.026       25.695      863.355
07/08/2013  22:23:00     -326.225      -43.123       -2.538      154.572      147.378       76.092    23892.397    21720.401     5790.042        7.984        2.570      329.063       76.055        0.053      347.017       25.678      863.410
07/08/2013  22:24:00     -356.468     -122.208      -16.574      163.319      178.129       72.408    26673.226    31730.031     5242.870       10.295        3.182      376.835       79.566        0.045      347.032       25.705      863.443
07/08/2013  22:25:00     -338.220      -42.561       -8.284      178.982      118.745       81.492    32034.600    14100.401     6640.932        8.451        2.639      340.887       90.599        0.071      347.026       25.694      863.473
07/08/2013  22:26:00     -266.325     -145.396       -6.245      154.356      140.691       77.332    23825.752    19793.824     5980.209        7.084        2.480      303.428       66.063        0.047      347.030       25.700      863.499
07/08/2013  22:27:00     -276.380     -106.734      -12.613      140.822      121.071       67.981    19830.919    14658.220     4621.452        6.352        1.956      296.274       69.121        0.054      347.047       25.731      863.525
07/08/2013  22:28:00     -225.409      -38.590      -18.228      125.782       78.719       52.186    15821.037     6196.638     2723.328        3.868        1.237      228.689       56.424        0.061      347.044       25.724      863.533
07/08/2013  22:29:00     -209.686      -42.954       -9.976      105.898      108.086       62.187    11214.427    11682.651     3867.237        3.633        1.338      214.040       46.852        0.048      347.057       25.747      863.543
07/08/2013  22:30:00     -218.033     -140.864      -21.734      188.026      130.005       62.111    35353.844    16901.226     3857.762        6.197        2.806      259.579       90.251        0.121      347.055       25.746      863.564
07/08/2013  22:31:00     -161.858      -20.009        5.847      101.772       93.092       53.968    10357.528     8666.115     2912.562        2.428        1.097      163.090       53.208        0.106      347.008       25.665      863.593
07/08/2013  22:32:00     -278.941      -23.892      -16.727      153.820      113.971       57.301    23660.566    12989.461     3283.431        5.929        1.997      279.963       67.508        0.058      347.080       25.786      863.622
07/08/2013  22:33:00      -92.442     -120.095       15.545      142.313      100.257       74.968    20252.926    10051.530     5620.126        2.956        1.796      151.553       81.574        0.290      347.069       25.768      863.645
07/08/2013  22:34:00     -287.904     -139.771        2.870      162.606       89.559       55.695    26440.665     8020.875     3101.927        6.999        1.878      320.038       65.601        0.042      347.087       25.799      863.658
07/08/2013  22:35:00     -232.164      -88.713       -4.906      129.993      120.493       60.520    16898.258    14518.475     3662.676        4.843        1.754      248.536       50.172        0.041      347.075       25.778      863.668
07/08/2013  22:36:00     -291.783     -134.041      -13.948      179.013      129.218       64.663    32045.619    16697.165     4181.334        7.810        2.646      321.098       85.155        0.070      347.095       25.813      863.680
07/08/2013  22:37:00     -191.468     -111.252       14.459      125.429      124.688       70.566    15732.413    15547.107     4979.524        4.275        1.813      221.442       66.083        0.089      347.060       25.752      863.690
07/08/2013  22:38:00     -189.235     -109.179       13.243      154.826      153.417       79.502    23971.094    23536.711     6320.585        5.086        2.691      218.471       73.825        0.114      347.046       25.729      863.686
07/08/2013  22:39:00     -268.980     -143.299      -10.620      118.668      119.861       50.960    14082.060    14366.543     2596.941        6.202        1.552      304.770       52.306        0.029      347.069       25.767      863.705
07/08/2013  22:40:00     -229.028     -164.752       12.819      172.914      133.035       82.435    29899.267    17698.304     6795.465        6.707        2.720      282.130       97.931        0.120      347.084       25.792      863.690
07/08/2013  22:41:00     -248.876     -167.541       -6.871      146.162      100.843       67.712    21363.205    10169.263     4584.876        6.308        1.806      300.015       68.295        0.052      347.109       25.837      863.695
07/08/2013  22:42:00     -293.016     -129.753       -2.879      174.738      126.971       63.831    30533.202    16121.644     4074.361        7.671        2.536      320.459       82.347        0.066      347.082       25.791      863.706
07/08/2013  22:43:00     -121.075      -50.267       31.939      162.217      120.979       81.779    26314.430    14635.807     6687.862        3.291        2.382      131.095       84.902        0.419      347.077       25.782      863.708
07/08/2013  22:44:00     -160.788     -105.975        4.794      146.232      121.181       77.220    21383.895    14684.905     5962.863        3.956        2.102      192.571       86.609        0.202      347.088       25.801      863.693
07/08/2013  22:45:00     -304.357       -1.120       -6.591      182.670      105.631       75.626    33368.351    11157.854     5719.327        7.145        2.512      304.360       73.378        0.058      347.065       25.761      863.704
07/08/2013  22:46:00     -251.356      -52.958       -2.281      142.927      105.151       68.870    20428.164    11056.715     4743.107        5.110        1.811      256.874       76.897        0.090      347.048       25.732      863.705
07/08/2013  22:47:00     -281.847      -73.975      -17.877      165.865      105.373       70.621    27511.203    11103.524     4987.373        6.441        2.180      291.394       78.746        0.073      347.064       25.758      863.722
07/08/2013  22:48:00     -196.684      -87.839       -5.326      143.734       95.171       53.412    20659.438     9057.489     2852.887        3.949        1.628      215.407       71.531        0.110      347.035       25.709      863.724
07/08/2013  22:49:00     -292.495      -84.865      -17.616      161.225      117.203       71.212    25993.474    13736.506     5071.085        6.892        2.240      304.557       86.586        0.081      347.096       25.815      863.723
07/08/2013  22:50:00     -270.087     -134.179      -11.237      147.277      117.905       63.341    21690.495    13901.651     4012.061        6.533        1.980      301.581       64.670        0.046      347.089       25.802      863.723
07/08/2013  22:51:00     -231.055      -14.001        3.346      153.157      124.611       67.320    23457.134    15527.789     4532.034        4.855        2.176      231.479       62.111        0.072      346.993       25.638      863.739
07/08/2013  22:52:00     -369.922     -114.481      -18.288      199.895      150.738       63.286    39957.982    22721.805     4005.144       10.847        3.334      387.231       82.096        0.045      347.040       25.720      863.779
07/08/2013  22:53:00     -236.666      -86.525        9.842      142.241      178.757       87.646    20232.369    31954.127     7681.816        6.172        2.993      251.986       88.967        0.125      347.056       25.745      863.775
07/08/2013  22:54:00     -226.143     -141.076       -7.013      158.212      125.810       62.961    25031.042    15828.195     3964.043        5.795        2.241      266.539       68.979        0.067      347.095       25.813      863.798
07/08/2013  22:55:00     -187.552      -70.334       -9.470      134.556      138.831       70.541    18105.333    19274.007     4976.017        4.128        2.118      200.306       56.894        0.081      347.059       25.752      863.828
07/08/2013  22:56:00     -213.271     -103.594      -14.318      129.827       85.750       53.012    16855.155     7353.140     2810.227        4.171        1.351      237.099       58.298        0.060      347.024       25.691      863.835
07/08/2013  22:57:00     -263.301      -45.571      -16.291      130.657       83.469       56.616    17071.204     6967.153     3205.416        4.945        1.362      267.216       59.775        0.050      347.004       25.657      863.859
07/08/2013  22:58:00     -289.650      -87.669      -14.454      198.994      131.101       81.584    39598.524    17187.464     6655.906        7.760        3.172      302.626       89.625        0.088      347.039       25.716      863.865
07/08/2013  22:59:00     -165.416      -51.054        8.586      130.901       72.468       45.976    17135.107     5251.563     2113.767        2.727        1.225      173.115       56.002        0.105      346.985       25.625      863.879
07/08/2013  23:00:00     -220.434      -94.148        3.102      184.677      140.093       69.680    34105.689    19626.091     4855.297        5.801        2.929      239.697       71.690        0.089      347.024       25.691      863.900
07/08/2013  23:01:00     -123.755     -126.925       16.129      121.084      103.464       56.528    14661.238    10704.703     3195.393        3.012        1.428      177.272       53.290        0.090      347.007       25.663      863.903
07/08/2013  23:02:00     -216.576     -111.862       -8.151      149.490      142.209       59.002    22347.154    20223.351     3481.258        5.276        2.303      243.759       71.382        0.086      347.006       25.659      863.902
07/08/2013  23:03:00     -248.220     -121.758        6.789      164.198      168.899       72.208    26961.102    28526.900     5213.972        6.858        3.035      276.474       78.610        0.081      346.963       25.587      863.896
07/08/2013  23:04:00     -331.972     -118.194       -1.967      189.797      120.814       84.830    36022.938    14595.967     7196.081        9.099        2.891      352.385       96.907        0.076      346.990       25.632      863.892
07/08/2013  23:05:00     -268.776     -189.375      -11.228      141.662      158.319       80.526    20068.191    25064.770     6484.357        7.991        2.581      328.790       81.489        0.061      347.004       25.656      863.907
07/08/2013  23:06:00     -370.808     -174.683       -6.827      233.346      152.190      106.979    54450.404    23161.739    11444.478       12.854        4.453      409.894      124.419        0.092      347.037       25.711      863.886
07/08/2013  23:07:00     -208.182      -72.194       -0.034      161.281       89.346       53.162    26011.438     7982.731     2826.248        4.268        1.841      220.344       66.358        0.091      346.981       25.617      863.921
07/08/2013  23:08:00     -120.330      -40.245       16.501      137.094       75.876       68.264    18794.648     5757.107     4659.968        2.279        1.461      126.882       87.246        0.473      346.945       25.556      863.922
07/08/2013  23:09:00     -290.870      -84.263      -15.797      138.785       96.957       61.540    19261.228     9400.621     3787.168        6.220        1.622      302.829       70.738        0.055      346.996       25.642      863.931
07/08/2013  23:10:00     -249.579      -54.203       -0.135      169.968      103.302       64.379    28889.031    10671.205     4144.692        5.446        2.185      255.397       75.018        0.086      346.964       25.588      863.939
07/08/2013  23:11:00     -316.943      -97.483      -20.651      159.219      124.041       67.545    25350.625    15386.050     4562.326        7.783        2.265      331.596       69.625        0.044      347.004       25.656      863.956
07/08/2013  23:12:00     -214.169     -119.015      -18.367      138.710       91.899       59.122    19240.334     8445.493     3495.389        4.577        1.559      245.016       58.542        0.057      347.044       25.724      863.960
07/08/2013  23:13:00     -266.122        8.191       -5.275      119.102       78.734       53.742    14185.282     6199.000     2888.167        4.709        1.164      266.248       56.052        0.044      346.985       25.624      863.984
07/08/2013  23:14:00     -141.797     -100.278        9.870       94.137       84.884       43.204     8861.775     7205.344     1866.551        2.409        0.897      173.672       36.995        0.045      346.981       25.617      863.991
07/08/2013  23:15:00     -188.204     -154.336       -8.188       96.077       92.532       46.878     9230.816     8562.179     2197.567        3.964        1.000      243.393       43.226        0.032      347.037       25.711      863.990
07/08/2013  23:16:00     -134.981      -44.564        3.911      107.211       75.301       44.888    11494.164     5670.252     2014.889        1.970        0.959      142.147       55.392        0.152      346.927       25.524      863.996
07/08/2013  23:17:00     -193.904       19.911        0.055      137.015       92.480       61.697    18773.202     8552.531     3806.545        3.456        1.557      194.924       72.139        0.137      346.900       25.478      863.995
07/08/2013  23:18:00     -226.438       -9.592       -8.722      102.338      103.954       60.536    10473.164    10806.534     3664.566        3.819        1.247      226.642       59.646        0.069      346.918       25.507      863.984
07/08/2013  23:19:00     -179.584        0.600        8.686      138.057       92.295       52.888    19059.667     8518.331     2797.107        3.134        1.519      179.586       62.586        0.121      346.905       25.486      863.983
07/08/2013  23:20:00     -139.387       -9.695       17.313       93.920      113.602       61.296     8820.944    12905.470     3757.159        2.265        1.274      139.724       51.520        0.136      346.942       25.551      863.981
07/08/2013  23:21:00     -283.067      -57.965       -9.951      146.118       99.357       62.186    21350.520     9871.754     3867.158        5.933        1.754      288.941       71.985        0.062      346.940       25.547      864.002
07/08/2013  23:22:00     -264.903     -133.142        0.174      127.503      101.202       59.606    16256.998    10241.832     3552.897        5.897        1.503      296.480       59.925        0.041      346.996       25.640      863.994
07/08/2013  23:23:00     -239.721       61.625      -15.679       94.156       74.540       46.690     8865.393     5556.160     2179.973        3.905        0.830      247.516       28.633        0.013      346.971       25.598      864.007
07/08/2013  23:24:00     -234.046      -65.041       -5.013      124.386       87.282       45.922    15471.974     7618.225     2108.789        4.211        1.260      242.915       28.949        0.014      346.929       25.527      864.019
07/08/2013  23:25:00     -257.599      -82.177       -7.338       87.278       99.779       44.947     7617.499     9955.912     2020.251        4.638        0.980      270.389       42.519        0.025      346.943       25.551      864.038
07/08/2013  23:26:00      -89.669      -20.187       16.625      111.218       83.507       64.152    12369.346     6973.502     4115.521        1.609        1.173       91.914       61.229        0.444      346.869       25.425      864.031
07/08/2013  23:27:00     -275.455      -64.592      -17.265      121.700       80.346       49.733    14810.838     6455.448     2473.339        5.204        1.187      282.926       53.776        0.036      346.925       25.520      864.065
07/08/2013  23:28:00     -170.939      -99.064       -0.156       99.911       98.337       56.679     9982.224     9670.222     3212.519        3.094        1.143      197.570       52.479        0.071      346.886       25.454      864.060
07/08/2013  23:29:00     -211.329      -48.736        2.422       87.628       78.012       44.834     7678.659     6085.875     2010.076        3.140        0.789      216.875       43.594        0.040      346.853       25.396      864.073
07/08/2013  23:30:00     -203.757      -88.256       -5.629      105.274      109.038       44.130    11082.648    11889.315     1947.497        3.712        1.246      222.049       56.299        0.064      346.867       25.420      864.076
07/08/2013  23:31:00     -139.891      -46.248        9.899       73.185       75.553       50.620     5356.036     5708.285     2562.383        1.771        0.681      147.338       49.024        0.111      346.873       25.432      864.069
07/08/2013  23:32:00     -264.100     -146.790       -7.638      103.382       72.219       49.761    10687.749     5215.561     2476.194        5.486        0.919      302.153       55.349        0.034      346.907       25.488      864.080
07/08/2013  23:33:00      -75.585      -52.264        7.303       80.235       59.136       34.854     6437.720     3497.057     1214.787        0.982        0.557       91.895       36.484        0.158      346.842       25.380      864.092
07/08/2013  23:34:00     -221.707      -41.330      -28.250      121.764       65.332       42.362    14826.480     4268.257     1794.544        3.627        1.044      225.527       46.486        0.042      346.862       25.412      864.106
07/08/2013  23:35:00     -206.051     -106.258       -9.059      162.830       78.511       58.569    26513.559     6163.985     3430.305        4.496        1.805      231.836       72.168        0.097      346.879       25.441      864.101
07/08/2013  23:36:00     -226.837      -49.684       -5.968      142.727       79.495       58.833    20371.014     6319.474     3461.352        4.205        1.508      232.214       66.335        0.082      346.868       25.422      864.106
07/08/2013  23:37:00     -281.234      -76.637      -19.911      127.292       83.640       58.122    16203.363     6995.728     3378.196        5.596        1.329      291.489       67.074        0.053      346.878       25.439      864.108
07/08/2013  23:38:00     -224.869      -50.815      -10.176       72.611       77.623       42.703     5272.326     6025.408     1823.538        3.318        0.656      230.539       41.023        0.032      346.863       25.412      864.122
07/08/2013  23:39:00     -135.866      -71.942       -2.037       80.362       52.977       32.267     6458.101     2806.546     1041.179        1.697        0.515      153.737       32.002        0.043      346.846       25.384      864.135
07/08/2013  23:40:00     -146.707       13.500      -15.347       72.290       48.766       27.585     5225.846     2378.150      760.919        1.515        0.418      147.327       26.637        0.033      346.859       25.409      864.148
07/08/2013  23:41:00      -95.758      -94.032       -3.147       69.889       39.827       31.119     4884.438     1586.226      968.366        1.273        0.372      134.208       33.434        0.062      346.862       25.414      864.166
07/08/2013  23:42:00     -128.604      -93.504        5.670       87.504       86.474       42.444     7656.974     7477.703     1801.503        2.112        0.847      159.003       51.825        0.106      346.909       25.493      864.150
07/08/2013  23:43:00     -182.559      -50.943       -9.394      100.547       78.835       43.662    10109.688     6214.903     1906.411        2.712        0.912      189.534       42.764        0.051      346.827       25.351      864.157
07/08/2013  23:44:00     -163.589      -17.721       -7.673       35.752       45.692       29.435     1278.200     2087.773      866.413        1.568        0.212      164.546       21.973        0.018      346.813       25.331      864.151
07/08/2013  23:45:00      -75.374      -46.950        6.630       64.132       48.846       26.368     4112.944     2385.971      695.297        0.756        0.360       88.800       21.716        0.060      346.660       25.068      864.160
07/08/2013  23:46:00     -163.886       -4.250        1.507      109.285       71.582       43.802    11943.315     5123.983     1918.583        2.293        0.949      163.941       45.558        0.077      346.692       25.121      864.176
07/08/2013  23:47:00     -238.424      -85.561      -12.080       96.730       53.146       35.946     9356.719     2824.520     1292.127        3.889        0.674      253.311       28.015        0.012      346.821       25.341      864.185
07/08/2013  23:48:00      -42.531      -33.314        0.772       54.777       47.967       25.127     3000.489     2300.811      631.350        0.442        0.297       54.025       19.619        0.132      346.764       25.247      864.185
07/08/2013  23:49:00      -60.545      -15.867       -4.623       43.718       75.219       37.999     1911.264     5657.864     1443.950        0.647        0.451       62.590       26.165        0.175      346.774       25.263      864.189
07/08/2013  23:50:00      -91.732       -8.184      -12.192       38.374       35.765       16.614     1472.547     1279.169      276.030        0.583        0.151       92.096       10.263        0.012      346.840       25.379      864.197
07/08/2013  23:51:00      -25.101      -35.013        7.615       44.263       60.750       27.992     1959.235     3690.551      783.579        0.417        0.322       43.081       22.462        0.272      346.769       25.256      864.208
07/08/2013  23:52:00      -47.784      -38.955        4.649       75.903       43.309       30.768     5761.218     1875.684      946.690        0.620        0.429       61.651       33.085        0.288      346.850       25.394      864.195
07/08/2013  23:53:00      -73.029       45.343      -20.814       72.264       23.269       17.248     5222.092      541.450      297.509        0.694        0.303       85.961       28.780        0.112      346.672       25.088      864.219
07/08/2013  23:54:00       46.617       45.122       -4.973       15.022       21.006       16.246      225.648      441.237      263.926        0.258        0.047       64.878       10.151        0.024      346.606       24.973      864.245
07/08/2013  23:55:00       -7.531       -4.601        5.872       17.196       23.393       22.674      295.706      547.242      514.106        0.073        0.068        8.826       18.598        4.441      346.493       24.779      864.250
07/08/2013  23:56:00       -6.060      -52.401       23.196       44.860       40.840       27.982     2012.417     1667.887      782.986        0.389        0.223       52.750       29.307        0.309      346.723       25.176      864.268
07/08/2013  23:57:00      -57.116      -42.227      -15.347       43.671       78.599       26.955     1907.129     6177.838      726.563        0.704        0.441       71.031        6.373        0.008      346.915       25.507      864.254
07/08/2013  23:58:00       -0.253       13.591       16.495       54.565       21.613       21.522     2977.356      467.141      463.197        0.218        0.195       13.593       20.256        2.220      346.664       25.072      864.281
07/08/2013  23:59:00       92.936       47.084       17.705       38.847       60.524       31.381     1509.122     3663.126      984.791        0.866        0.308      104.183       27.423        0.069      346.377       24.580      864.267
